[[{"header":{"parameterUnit":"m.s-1","parameterCategory":1,"la1":30.6,"la2":29.2853,"lo1":-89.7004,"lo2":-87.6739,"dy":0.0162,"dx":0.0183,"nx":112,"ny":82,"refTime":"2026-03-04T00:00:00:Z","depth":0,"parameterNumber":2,"parameterNumberName":"U-component_of_WINDS"},"data":[0.0,0.0,0.0,0.0,0.0,0.0,0.0,0.0,0.0,0.0,0.0,0.0,0.0,0.0,0.0,0.0,0.0,0.0,0.0,0.0,0.0,0.0,0.0,0.0,0.0,0.0,0.0,0.0,0.0,0.0,0.0,0.0,0.0,0.0,0.0,0.0,0.0,0.0,0.0,0.0,0.0,0.0,0.0,0.0,0.0,0.0,0.0,0.0,0.0,0.0,0.0,0.0,0.0,0.0,0.0,0.0,0.0,0.0,0.0,0.0,0.0,0.0,0.0,0.0,0.0,0.0,0.0,0.0,0.0,0.0,0.0,0.0,0.0,0.0,0.0,0.0,0.0,0.0,0.0,0.0,0.0,0.0,0.0,0.0,0.0,0.0,0.0,0.0,0.0,0.0,-1.9994,-2.0603,-2.2658,-2.395,-2.3929,-2.3784,-2.266,-2.0294,0.0,0.0,0.0,0.0,0.0,0.0,0.0,0.0,0.0,0.0,0.0,0.0,0.0,0.0,0.0,0.0,0.0,0.0,0.0,0.0,0.0,0.0,0.0,0.0,0.0,0.0,0.0,0.0,0.0,0.0,0.0,0.0,0.0,0.0,0.0,0.0,0.0,0.0,0.0,0.0,0.0,0.0,0.0,0.0,0.0,0.0,0.0,0.0,0.0,0.0,0.0,0.0,0.0,0.0,0.0,0.0,0.0,0.0,0.0,0.0,0.0,0.0,0.0,0.0,0.0,0.0,0.0,0.0,0.0,0.0,0.0,0.0,0.0,0.0,0.0,0.0,0.0,0.0,0.0,0.0,0.0,0.0,0.0,0.0,0.0,0.0,0.0,0.0,0.0,0.0,0.0,0.0,0.0,0.0,0.0,0.0,0.0,0.0,0.0,0.0,0.0,0.0,0.0,0.0,-1.9698,-2.2434,-2.3722,-2.4281,-2.3908,-2.3163,-2.1897,-1.9997,0.0,0.0,0.0,0.0,0.0,0.0,0.0,0.0,0.0,0.0,0.0,0.0,0.0,0.0,0.0,0.0,0.0,0.0,0.0,0.0,0.0,0.0,0.0,0.0,0.0,0.0,0.0,0.0,0.0,0.0,0.0,0.0,0.0,0.0,0.0,0.0,0.0,0.0,0.0,0.0,0.0,0.0,0.0,0.0,0.0,0.0,0.0,0.0,0.0,0.0,0.0,0.0,0.0,0.0,0.0,0.0,0.0,0.0,0.0,0.0,0.0,0.0,0.0,0.0,0.0,0.0,0.0,0.0,0.0,0.0,0.0,0.0,0.0,0.0,0.0,0.0,0.0,0.0,0.0,0.0,0.0,0.0,0.0,0.0,0.0,0.0,0.0,0.0,0.0,0.0,0.0,0.0,0.0,0.0,0.0,0.0,0.0,0.0,0.0,0.0,0.0,0.0,0.0,-1.9327,-2.0534,-2.3267,-2.4157,-2.4425,-2.426,-2.3391,-2.2087,-2.0245,-1.9552,0.0,0.0,0.0,0.0,0.0,0.0,0.0,0.0,0.0,0.0,0.0,0.0,0.0,0.0,0.0,0.0,0.0,0.0,0.0,0.0,0.0,0.0,0.0,0.0,0.0,0.0,0.0,0.0,0.0,0.0,0.0,0.0,0.0,0.0,0.0,0.0,0.0,0.0,0.0,0.0,0.0,0.0,0.0,0.0,0.0,0.0,0.0,0.0,0.0,0.0,0.0,0.0,0.0,0.0,0.0,0.0,0.0,0.0,0.0,0.0,0.0,0.0,0.0,0.0,0.0,0.0,0.0,0.0,0.0,0.0,0.0,0.0,0.0,0.0,0.0,0.0,0.0,0.0,0.0,0.0,0.0,0.0,0.0,0.0,0.0,0.0,0.0,0.0,0.0,0.0,0.0,0.0,0.0,0.0,0.0,0.0,0.0,0.0,0.0,0.0,0.0,0.0,-2.0928,-2.1714,-2.3805,-2.4343,-2.4507,-2.4507,-2.3515,-2.217,-2.0478,-1.894,0.0,0.0,0.0,0.0,0.0,0.0,0.0,0.0,0.0,0.0,0.0,0.0,0.0,0.0,0.0,0.0,0.0,0.0,0.0,0.0,0.0,0.0,0.0,0.0,0.0,0.0,0.0,0.0,0.0,0.0,0.0,0.0,0.0,0.0,0.0,0.0,0.0,0.0,0.0,0.0,0.0,0.0,0.0,0.0,0.0,0.0,0.0,0.0,0.0,0.0,0.0,0.0,0.0,0.0,0.0,0.0,0.0,0.0,0.0,0.0,0.0,0.0,0.0,0.0,0.0,0.0,0.0,0.0,0.0,0.0,0.0,0.0,0.0,0.0,0.0,0.0,0.0,0.0,0.0,0.0,0.0,0.0,0.0,0.0,0.0,0.0,0.0,0.0,0.0,0.0,0.0,0.0,0.0,0.0,0.0,0.0,0.0,0.0,0.0,0.0,0.0,0.0,-2.1569,-2.2894,-2.4301,-2.4487,-2.4507,-2.4507,-2.2915,-2.1487,-2.0457,-1.8329,0.0,0.0,0.0,0.0,0.0,0.0,0.0,0.0,0.0,0.0,0.0,0.0,0.0,0.0,0.0,0.0,0.0,0.0,0.0,0.0,0.0,0.0,0.0,0.0,0.0,0.0,0.0,0.0,0.0,0.0,0.0,0.0,0.0,0.0,0.0,0.0,0.0,0.0,0.0,0.0,0.0,0.0,0.0,0.0,0.0,0.0,0.0,0.0,0.0,0.0,0.0,0.0,0.0,0.0,0.0,0.0,0.0,0.0,0.0,0.0,0.0,0.0,0.0,0.0,0.0,0.0,0.0,0.0,0.0,0.0,0.0,0.0,0.0,0.0,0.0,0.0,0.0,0.0,0.0,0.0,0.0,0.0,0.0,0.0,0.0,0.0,0.0,0.0,0.0,0.0,0.0,0.0,0.0,0.0,0.0,0.0,0.0,0.0,0.0,0.0,0.0,0.0,-2.1383,-2.2708,-2.4321,-2.4507,-2.4507,-2.4507,-2.3391,-2.2025,-2.0478,0.0,0.0,0.0,0.0,0.0,0.0,0.0,0.0,0.0,0.0,0.0,0.0,0.0,0.0,0.0,0.0,0.0,0.0,0.0,0.0,0.0,0.0,0.0,0.0,0.0,0.0,0.0,0.0,0.0,0.0,0.0,0.0,0.0,0.0,0.0,0.0,0.0,0.0,0.0,0.0,0.0,0.0,0.0,0.0,0.0,0.0,0.0,0.0,0.0,0.0,0.0,0.0,0.0,0.0,0.0,0.0,0.0,0.0,0.0,0.0,0.0,0.0,0.0,0.0,0.0,0.0,0.0,0.0,0.0,0.0,0.0,0.0,0.0,0.0,0.0,0.0,0.0,0.0,0.0,0.0,0.0,0.0,0.0,0.0,0.0,0.0,0.0,0.0,0.0,0.0,0.0,0.0,0.0,0.0,0.0,0.0,0.0,0.0,0.0,0.0,0.0,0.0,-2.0085,-2.1487,-2.2832,-2.4342,-2.4507,-2.4507,-2.4507,-2.3432,-2.2087,-2.0478,0.0,0.0,0.0,0.0,0.0,0.0,0.0,0.0,0.0,0.0,0.0,0.0,0.0,0.0,0.0,0.0,0.0,0.0,0.0,0.0,0.0,0.0,0.0,0.0,0.0,0.0,0.0,0.0,0.0,0.0,0.0,0.0,0.0,0.0,0.0,0.0,0.0,0.0,0.0,0.0,0.0,0.0,0.0,0.0,0.0,0.0,0.0,0.0,0.0,0.0,0.0,0.0,0.0,0.0,0.0,0.0,0.0,0.0,0.0,0.0,0.0,0.0,0.0,0.0,0.0,0.0,0.0,0.0,0.0,0.0,0.0,0.0,0.0,0.0,0.0,0.0,0.0,0.0,0.0,0.0,0.0,0.0,0.0,0.0,0.0,0.0,0.0,0.0,0.0,0.0,0.0,0.0,0.0,0.0,0.0,0.0,0.0,0.0,0.0,0.0,0.0,0.0,-2.0168,-2.2045,-2.3536,-2.4404,-2.4507,-2.4507,-2.4507,-2.2873,-2.1424,0.0,0.0,0.0,0.0,0.0,0.0,0.0,0.0,0.0,0.0,0.0,0.0,0.0,0.0,0.0,0.0,0.0,0.0,0.0,0.0,0.0,0.0,0.0,0.0,0.0,0.0,0.0,0.0,0.0,0.0,0.0,0.0,0.0,0.0,0.0,0.0,0.0,0.0,0.0,0.0,0.0,0.0,0.0,0.0,0.0,0.0,0.0,0.0,0.0,0.0,0.0,0.0,0.0,0.0,0.0,0.0,0.0,0.0,0.0,0.0,0.0,0.0,0.0,0.0,0.0,0.0,0.0,0.0,0.0,0.0,0.0,0.0,0.0,0.0,0.0,0.0,0.0,0.0,0.0,0.0,0.0,0.0,0.0,0.0,0.0,0.0,0.0,0.0,0.0,0.0,0.0,0.0,0.0,0.0,0.0,0.0,0.0,0.0,0.0,0.0,0.0,0.0,0.0,-2.0168,-2.2045,-2.3536,-2.4404,-2.4507,-2.4507,-2.4507,-2.3453,-2.2108,-2.0478,0.0,0.0,0.0,0.0,0.0,0.0,0.0,0.0,0.0,0.0,0.0,0.0,0.0,0.0,0.0,0.0,0.0,0.0,0.0,0.0,0.0,0.0,0.0,0.0,0.0,0.0,0.0,0.0,0.0,0.0,0.0,0.0,0.0,0.0,0.0,0.0,0.0,0.0,0.0,0.0,0.0,0.0,0.0,0.0,0.0,0.0,0.0,0.0,0.0,0.0,0.0,0.0,0.0,0.0,0.0,0.0,0.0,0.0,0.0,0.0,0.0,0.0,0.0,0.0,0.0,0.0,0.0,0.0,0.0,0.0,0.0,0.0,0.0,0.0,0.0,0.0,0.0,0.0,0.0,0.0,0.0,0.0,0.0,0.0,0.0,0.0,0.0,0.0,0.0,0.0,0.0,0.0,0.0,0.0,0.0,0.0,0.0,0.0,0.0,0.0,0.0,0.0,-2.0168,-2.2045,-2.3536,-2.4404,-2.4507,-2.4507,-2.4507,-2.3701,-2.2397,-2.0498,0.0,0.0,0.0,0.0,0.0,0.0,0.0,0.0,0.0,0.0,0.0,0.0,0.0,0.0,0.0,0.0,0.0,0.0,0.0,0.0,0.0,0.0,0.0,0.0,0.0,0.0,0.0,0.0,0.0,0.0,0.0,0.0,0.0,0.0,0.0,0.0,0.0,0.0,0.0,0.0,0.0,0.0,0.0,0.0,0.0,0.0,0.0,0.0,0.0,0.0,0.0,0.0,0.0,0.0,0.0,0.0,0.0,0.0,0.0,0.0,0.0,0.0,0.0,0.0,0.0,0.0,0.0,0.0,0.0,0.0,0.0,0.0,0.0,0.0,0.0,0.0,0.0,0.0,0.0,0.0,0.0,0.0,0.0,0.0,0.0,0.0,0.0,0.0,0.0,0.0,0.0,0.0,0.0,0.0,0.0,0.0,0.0,0.0,0.0,0.0,0.0,0.0,-2.0168,-2.2048,-2.3536,-2.4404,-2.4507,-2.4507,-2.4507,-2.3701,-2.2418,-2.056,0.0,0.0,0.0,0.0,0.0,0.0,0.0,0.0,0.0,0.0,0.0,0.0,0.0,0.0,0.0,0.0,0.0,0.0,0.0,0.0,0.0,0.0,0.0,0.0,0.0,0.0,0.0,0.0,0.0,0.0,0.0,0.0,0.0,0.0,0.0,0.0,0.0,0.0,0.0,0.0,0.0,0.0,0.0,0.0,0.0,0.0,0.0,0.0,0.0,0.0,0.0,0.0,0.0,0.0,0.0,0.0,0.0,0.0,0.0,0.0,-2.0238,0.0,0.0,0.0,0.0,0.0,0.0,0.0,0.0,0.0,0.0,0.0,0.0,0.0,0.0,0.0,0.0,0.0,0.0,0.0,0.0,0.0,0.0,0.0,0.0,0.0,0.0,0.0,0.0,0.0,0.0,0.0,0.0,0.0,0.0,0.0,0.0,0.0,0.0,0.0,0.0,0.0,-2.025,-2.22,-2.372,-2.4445,-2.4378,-2.4335,-2.4507,-2.3701,-2.2563,-2.1073,-1.9168,0.0,0.0,0.0,0.0,0.0,0.0,0.0,0.0,0.0,0.0,0.0,0.0,0.0,0.0,0.0,0.0,0.0,0.0,0.0,0.0,0.0,0.0,0.0,0.0,0.0,0.0,0.0,0.0,0.0,0.0,0.0,0.0,0.0,0.0,0.0,0.0,0.0,0.0,0.0,0.0,0.0,0.0,0.0,0.0,0.0,0.0,0.0,0.0,0.0,0.0,0.0,0.0,0.0,0.0,0.0,0.0,0.0,0.0,0.0,0.0,-2.1445,0.0,0.0,0.0,0.0,0.0,0.0,0.0,0.0,0.0,0.0,0.0,0.0,0.0,0.0,0.0,0.0,0.0,0.0,0.0,0.0,0.0,0.0,0.0,0.0,0.0,0.0,0.0,0.0,0.0,0.0,0.0,0.0,0.0,0.0,0.0,0.0,0.0,0.0,0.0,0.0,-2.0635,-2.235,-2.3778,-2.4582,-2.4459,-2.4378,-2.4507,-2.3908,-2.2936,-2.1528,-1.9727,0.0,0.0,0.0,0.0,0.0,0.0,0.0,0.0,0.0,0.0,0.0,0.0,0.0,0.0,0.0,0.0,0.0,0.0,0.0,0.0,0.0,0.0,0.0,0.0,0.0,0.0,0.0,0.0,0.0,0.0,0.0,0.0,0.0,0.0,0.0,0.0,0.0,0.0,0.0,0.0,0.0,0.0,0.0,0.0,0.0,0.0,0.0,0.0,0.0,0.0,0.0,0.0,0.0,-2.3865,-2.436,-2.4998,-2.4904,-2.5378,-2.6202,-2.4299,-2.3907,-2.4487,-2.2936,0.0,0.0,0.0,0.0,0.0,0.0,0.0,0.0,0.0,0.0,0.0,0.0,0.0,0.0,0.0,0.0,0.0,0.0,0.0,0.0,0.0,0.0,-2.163,-2.151,-2.177,-2.139,-1.9019,0.0,0.0,0.0,0.0,0.0,0.0,0.0,0.0,0.0,0.0,0.0,-2.1104,-2.2676,-2.3935,-2.4747,-2.4617,-2.4438,-2.4481,-2.4051,-2.3227,-2.2012,-2.0303,-1.8965,0.0,0.0,0.0,0.0,0.0,0.0,0.0,0.0,0.0,0.0,0.0,0.0,0.0,0.0,0.0,0.0,0.0,0.0,0.0,0.0,0.0,0.0,0.0,0.0,0.0,0.0,0.0,0.0,0.0,0.0,0.0,0.0,-1.8476,-1.9326,0.0,0.0,0.0,0.0,0.0,0.0,0.0,0.0,0.0,0.0,0.0,0.0,0.0,-2.191,-2.2752,-2.4022,-2.4751,-2.4867,-2.6444,-2.7175,-2.7125,-2.7464,-2.7758,-2.786,-2.7574,0.0,-2.5044,-2.4404,0.0,0.0,0.0,0.0,0.0,0.0,0.0,0.0,0.0,0.0,0.0,0.0,0.0,0.0,0.0,0.0,0.0,0.0,0.0,0.0,0.0,0.0,-2.3632,-2.3083,-2.2957,-2.2703,0.0,-2.0145,-1.8908,-1.8322,-1.762,0.0,0.0,0.0,0.0,0.0,0.0,0.0,-2.1548,-2.3046,-2.4282,-2.4962,-2.4531,-2.4246,-2.4468,-2.3766,-2.3039,-2.2473,-2.1082,-2.0147,-1.9818,-1.793,0.0,0.0,0.0,0.0,0.0,0.0,0.0,0.0,0.0,0.0,0.0,0.0,0.0,0.0,0.0,0.0,0.0,0.0,0.0,0.0,0.0,0.0,0.0,0.0,0.0,0.0,0.0,0.0,0.0,-1.8351,-1.9347,-1.9741,-1.9624,-1.923,0.0,0.0,0.0,0.0,0.0,0.0,0.0,0.0,0.0,-2.3037,-2.3634,-2.4251,-2.4957,-2.6067,-2.6609,-2.6629,-2.7703,-2.8278,-2.8369,-2.8488,-2.8568,-2.8724,-2.8568,-2.7935,-2.6947,-2.5727,-2.473,-2.3856,0.0,0.0,0.0,0.0,-2.2755,-2.2876,-2.4058,-2.4159,-2.3697,-2.331,0.0,0.0,0.0,0.0,0.0,0.0,0.0,-2.2047,-2.246,-2.3442,-2.4297,-2.4264,-2.4284,-2.4186,-2.3795,-2.2667,-2.1293,0.0,-1.9286,-1.869,-1.7188,0.0,0.0,0.0,0.0,-2.0915,-2.234,-2.347,-2.4405,-2.5172,-2.468,-2.4371,-2.4504,-2.3921,-2.3358,-2.2935,-2.207,-2.1346,-2.0754,-1.9394,-1.8248,0.0,0.0,0.0,0.0,0.0,0.0,0.0,0.0,0.0,0.0,0.0,0.0,0.0,0.0,0.0,0.0,0.0,0.0,0.0,0.0,0.0,0.0,0.0,0.0,0.0,0.0,0.0,0.0,-1.9658,-2.0363,-2.0487,-2.0912,-2.0612,0.0,0.0,0.0,0.0,0.0,0.0,-2.191,-2.2729,-2.3723,-2.4945,-2.5578,-2.6196,-2.6803,-2.7462,-2.7841,-2.7961,-2.8281,-2.862,-2.8973,-2.8781,-2.8834,-2.8973,-2.8781,-2.8602,-2.8321,-2.6881,-2.6026,-2.5504,-2.44,-2.3714,-2.3553,-2.4491,-2.4686,-2.468,-2.6335,-2.6475,-2.5857,-2.5418,-2.4476,-2.3322,-2.1849,0.0,0.0,0.0,0.0,-2.2906,-2.389,-2.4526,-2.5039,-2.5469,-2.5488,-2.5371,-2.5273,-2.4648,-2.3501,0.0,-2.1036,-2.0524,-1.881,0.0,0.0,0.0,0.0,-2.1606,-2.3105,-2.3904,-2.4625,-2.5393,-2.4987,-2.4626,-2.4461,-2.4042,-2.3604,-2.3208,-2.2727,-2.2229,-2.161,-2.0591,-1.9533,-1.8502,0.0,0.0,0.0,0.0,0.0,0.0,0.0,0.0,0.0,0.0,0.0,0.0,0.0,0.0,0.0,0.0,0.0,0.0,0.0,0.0,0.0,0.0,0.0,0.0,0.0,0.0,0.0,0.0,0.0,-2.2315,-2.294,0.0,0.0,0.0,0.0,-2.0968,-2.215,-2.327,-2.4175,-2.4868,-2.5666,-2.6577,-2.6438,-2.6769,-2.7611,-2.7669,-2.7885,-2.8276,-2.8295,-2.8441,-2.8727,-2.8727,-2.8727,-2.8727,-2.8727,-2.8548,-2.829,-2.7901,-2.7392,-2.695,-2.6448,-2.62,-2.6179,-2.6068,-2.6249,-2.6527,-2.6447,-2.6417,-2.6495,-2.7278,-2.6378,-2.4891,-2.4336,-2.334,0.0,0.0,-2.3945,-2.459,-2.5898,-2.625,-2.6387,-2.6816,-2.6602,-2.6211,-2.5801,-2.5332,-2.4656,0.0,-2.2405,-2.1564,-2.0605,0.0,-1.9999,-2.041,-2.1271,-2.2327,-2.3594,-2.4538,-2.5223,-2.5644,-2.5321,-2.4891,-2.4414,-2.4049,-2.3619,-2.3125,-2.2715,-2.2588,-2.2698,-2.1332,-2.0503,-2.0383,-1.8506,0.0,0.0,0.0,0.0,0.0,0.0,0.0,0.0,0.0,0.0,0.0,0.0,0.0,0.0,0.0,0.0,0.0,0.0,0.0,0.0,0.0,0.0,0.0,0.0,0.0,0.0,0.0,0.0,-2.3608,-2.3907,0.0,-2.2352,-2.253,-2.2806,-2.3043,-2.4207,-2.5172,-2.5669,-2.6438,-2.7047,-2.7341,-2.7532,-2.7637,-2.7728,-2.793,-2.8008,-2.7891,-2.8164,-2.8354,-2.8461,-2.8461,-2.8461,-2.8461,-2.8461,-2.8408,-2.8262,-2.816,-2.789,-2.7456,-2.6971,-2.6793,-2.6833,-2.7058,-2.7224,-2.7349,-2.7571,-2.7441,-2.7219,-2.6914,-2.6426,-2.584,-2.5391,-2.5137,-2.5078,-2.5371,-2.5762,-2.6191,-2.668,-2.6797,-2.6836,-2.6973,-2.6699,-2.6348,-2.6191,-2.5801,-2.5273,-2.4578,-2.3736,-2.2754,-2.1602,-2.1504,-2.1543,-2.1426,-2.2148,-2.3164,-2.4453,-2.493,-2.5234,-2.5635,-2.5332,-2.4883,-2.4453,-2.4023,-2.3613,-2.312,-2.2964,-2.2793,-2.2605,-2.1838,-2.1154,-2.0582,-1.9344,-1.8012,0.0,0.0,0.0,0.0,0.0,0.0,0.0,0.0,0.0,0.0,0.0,0.0,0.0,0.0,0.0,0.0,0.0,0.0,0.0,0.0,0.0,0.0,0.0,0.0,0.0,-2.2473,-2.3766,-2.436,-2.5011,-2.492,-2.3676,-2.4306,-2.4776,-2.4664,-2.5838,-2.6595,-2.6582,-2.7285,-2.7787,-2.7924,-2.8008,-2.8008,-2.7871,-2.8164,-2.8144,-2.7943,-2.8164,-2.8301,-2.8301,-2.8301,-2.8301,-2.8301,-2.8301,-2.8301,-2.8301,-2.8301,-2.8125,-2.7851,-2.7559,-2.7441,-2.748,-2.7773,-2.7871,-2.791,-2.8203,-2.8105,-2.7793,-2.7207,-2.6934,-2.6758,-2.6484,-2.6484,-2.6621,-2.6777,-2.7012,-2.7266,-2.7402,-2.7441,-2.7441,-2.7441,-2.7129,-2.6777,-2.6621,-2.6269,-2.582,-2.5371,-2.4707,-2.3906,-2.291,-2.2969,-2.3066,-2.2773,-2.334,-2.4102,-2.5008,-2.5195,-2.541,-2.5654,-2.5469,-2.5059,-2.4473,-2.4023,-2.3535,-2.2925,-2.275,-2.2598,-2.2305,-2.1894,-2.1387,-2.0801,-1.9805,-1.8594,-1.7135,0.0,0.0,0.0,0.0,0.0,0.0,0.0,0.0,0.0,0.0,0.0,0.0,0.0,0.0,0.0,0.0,0.0,0.0,0.0,0.0,0.0,0.0,0.0,-2.1418,-2.3582,-2.4937,-2.4536,-2.6187,-2.6675,-2.4901,-2.6133,-2.668,-2.5791,-2.6973,-2.75,-2.707,-2.7461,-2.7924,-2.8281,-2.7891,-2.7943,-2.8281,-2.8301,-2.8301,-2.8301,-2.8301,-2.8301,-2.8301,-2.8301,-2.8301,-2.8301,-2.8301,-2.8301,-2.8301,-2.8301,-2.8301,-2.8301,-2.8301,-2.8301,-2.8301,-2.8301,-2.8301,-2.8301,-2.8301,-2.8301,-2.8301,-2.8301,-2.8027,-2.7728,-2.7728,-2.7383,-2.7148,-2.7559,-2.7728,-2.7826,-2.8184,-2.8301,-2.8301,-2.8301,-2.7969,-2.7611,-2.7129,-2.6699,-2.6269,-2.5791,-2.5391,-2.4941,-2.4512,-2.4434,-2.4434,-2.4434,-2.4805,0.0,-2.5125,-2.5469,-2.5693,-2.5693,-2.5693,-2.5343,-2.4492,-2.4023,-2.3418,-2.2559,-2.2109,-2.1894,-2.1894,-2.1465,-2.119,-2.1171,-1.9941,-1.8867,-1.8008,0.0,0.0,0.0,0.0,0.0,0.0,0.0,0.0,0.0,0.0,0.0,0.0,0.0,0.0,0.0,0.0,0.0,0.0,0.0,0.0,0.0,-2.157,-2.3117,-2.3279,-2.447,-2.5548,-2.6212,-2.6536,-2.6467,-2.5996,-2.6562,-2.6914,-2.668,-2.7578,-2.8066,-2.7949,-2.8047,-2.8184,-2.8281,-2.8184,-2.8184,-2.8301,-2.8301,-2.8301,-2.8301,-2.8301,-2.8301,-2.8301,-2.8301,-2.8301,-2.8301,-2.8301,-2.8301,-2.8301,-2.8301,-2.8301,-2.8301,-2.8301,-2.8301,-2.8301,-2.8301,-2.8301,-2.8301,-2.8301,-2.8301,-2.8301,-2.8301,-2.8223,-2.8125,-2.8125,-2.8027,-2.7969,-2.8086,-2.8125,-2.8144,-2.8262,-2.8301,-2.8301,-2.8301,-2.7969,-2.7689,-2.7571,-2.6914,-2.6348,-2.623,-2.5859,-2.541,-2.4961,-2.4883,-2.4883,-2.4883,-2.5047,0.0,-2.5508,-2.5615,-2.5693,-2.5693,-2.5693,-2.5343,-2.4492,-2.4023,-2.3418,-2.2559,-2.2109,-2.1894,-2.1894,-2.1465,-2.1034,-2.0762,-1.9785,-1.8867,0.0,0.0,0.0,0.0,0.0,0.0,0.0,0.0,0.0,0.0,0.0,0.0,0.0,0.0,0.0,0.0,0.0,0.0,0.0,0.0,0.0,0.0,-2.3094,-2.4408,-2.5134,-2.5731,-2.6271,-2.6934,-2.6953,-2.6914,-2.6914,-2.7305,-2.748,-2.7305,-2.791,-2.8223,-2.8047,-2.8203,-2.8301,-2.8301,-2.8301,-2.8301,-2.8301,-2.8301,-2.8301,-2.8301,-2.8476,-2.8555,-2.8555,-2.875,-2.8828,-2.8828,-2.8828,-2.8828,-2.8828,-2.8828,-2.8828,-2.8789,0.0,0.0,0.0,0.0,-2.8301,-2.8301,-2.8301,-2.8301,-2.8301,-2.8301,-2.8301,-2.8301,-2.8301,-2.8301,-2.8301,-2.8301,-2.8301,-2.8301,-2.8301,-2.8301,-2.8301,-2.8301,-2.8105,-2.7943,-2.7767,-2.7285,-2.6816,-2.6465,-2.6191,0.0,-2.543,-2.5352,-2.5352,-2.5352,-2.5352,-2.5449,-2.5654,-2.5693,-2.5693,-2.5693,-2.5693,-2.5449,-2.4746,-2.4141,0.0,0.0,0.0,-2.1523,-2.1388,-2.1094,0.0,0.0,0.0,0.0,0.0,0.0,0.0,0.0,-1.889,-1.8734,0.0,0.0,0.0,0.0,0.0,0.0,0.0,0.0,0.0,0.0,0.0,0.0,0.0,0.0,0.0,0.0,-2.4428,-2.5254,-2.6797,-2.7012,-2.7012,-2.7012,-2.7363,-2.7598,-2.7598,-2.7969,-2.8066,-2.7748,-2.8047,-2.8125,-2.7806,-2.8086,0.0,0.0,0.0,-2.8301,-2.8301,-2.834,-2.8359,-2.8359,-2.8789,-2.8984,-2.9004,-2.9394,-2.9626,-2.9626,-2.9626,-2.9626,-2.9626,-2.9626,-2.9626,-2.9492,-2.873,-2.8437,-2.8437,-2.8437,-2.8398,-2.8359,-2.8359,0.0,0.0,-2.8301,-2.8301,-2.8301,-2.8301,-2.8301,-2.8301,-2.8301,-2.8301,-2.8301,-2.8301,-2.8301,-2.8301,-2.8301,-2.8301,-2.8184,-2.7812,-2.7748,-2.7493,-2.668,-2.6445,-2.6269,-2.583,-2.5732,-2.5693,-2.5693,-2.5693,-2.5693,-2.5693,-2.5693,-2.5693,-2.5693,-2.5693,0.0,-2.5145,-2.4316,-2.3496,-2.2637,-2.1736,-2.1133,-2.0762,-2.0762,-2.0918,-2.1327,-2.1346,-2.1541,-2.2031,-2.2031,-2.2246,-2.2598,-2.0157,-1.9884,0.0,0.0,0.0,0.0,0.0,0.0,0.0,0.0,0.0,0.0,0.0,0.0,0.0,0.0,0.0,-2.4433,-2.5643,-2.6621,-2.6973,-2.7012,-2.7012,-2.7012,-2.709,-2.7148,-2.7148,-2.7539,-2.7806,-2.7728,-2.8047,-2.8262,-2.8184,-2.8242,-2.8301,-2.8301,-2.8301,-2.8301,-2.8301,-2.8633,-2.8789,-2.8809,-2.9238,0.0,-2.9453,-2.9587,-2.9626,-2.9626,-2.9626,-2.9626,-2.9626,-2.9626,-2.9626,-2.9551,-2.9394,-2.9372,-2.9372,-2.9372,-2.9101,-2.8789,-2.8789,-2.8574,-2.8301,-2.8301,-2.8301,-2.8301,-2.8301,-2.8301,0.0,-2.8301,-2.8301,-2.8301,-2.8301,-2.8301,-2.8301,-2.8301,-2.8301,-2.8262,-2.8184,-2.791,-2.7669,-2.7493,-2.6855,-2.6367,-2.6269,-2.5977,-2.5693,-2.5693,-2.5693,-2.5693,-2.5693,-2.5693,-2.5693,-2.5693,-2.5693,-2.5547,-2.5145,-2.459,-2.3926,-2.3023,-2.2227,-2.1719,-2.1641,-2.1641,-2.1836,-2.2266,-2.2266,-2.2438,-2.2847,-2.291,-2.3169,-2.3516,-2.2324,-2.2129,0.0,0.0,0.0,0.0,0.0,0.0,0.0,0.0,0.0,0.0,0.0,-2.1673,-2.2999,0.0,-2.4842,-2.5691,-2.6691,-2.7266,-2.7051,-2.7207,-2.7266,-2.7031,-2.7207,-2.7344,-2.7344,-2.7734,-2.7988,-2.7988,-2.8184,-2.8301,-2.8301,-2.8301,-2.8301,-2.8301,-2.8301,-2.8398,-2.8613,-2.8809,-2.9023,-2.9258,-2.9687,-2.9883,-2.9883,-3.0117,-3.0234,-3.0234,-3.0234,-3.0234,-3.0234,-3.0234,-3.0234,-3.0234,-3.0234,-2.9961,-2.9626,-2.9626,-2.9434,-2.9238,-2.9238,-2.9101,-2.8887,-2.8672,-2.8613,-2.8574,-2.8359,-2.8301,-2.8301,-2.8301,-2.8301,-2.8301,-2.8301,-2.8301,-2.8301,-2.8301,-2.8301,-2.8301,-2.8301,-2.8125,-2.791,-2.7767,-2.7376,-2.6953,-2.6738,-2.6348,-2.5996,-2.5732,-2.5693,-2.5693,-2.5693,-2.5693,-2.5693,-2.5693,-2.5693,-2.5596,-2.543,-2.4805,-2.4141,-2.3496,-2.2871,-2.2519,-2.2519,-2.2519,-2.2715,-2.3144,-2.3144,-2.3359,-2.3725,-2.3789,-2.4004,-2.4414,-2.3984,-2.3906,0.0,0.0,0.0,0.0,0.0,0.0,0.0,-2.0435,-2.0793,-2.2503,-2.2827,-2.3351,-2.5118,-2.5445,-2.5796,-2.6898,-2.7434,-2.7571,-2.707,-2.7383,-2.75,-2.707,-2.7402,-2.7748,-2.7826,-2.8086,-2.8301,-2.8301,-2.8301,-2.8301,-2.8301,-2.8301,-2.8301,-2.8301,-2.8379,-2.8574,-2.8906,-2.9082,-2.9336,-2.9687,-3.0117,-3.0332,-3.0351,-3.0723,-3.0898,-3.0898,-3.0898,-3.0898,-3.0898,-3.0898,-3.0898,-3.0898,-3.0898,-3.0449,-2.9824,-2.9824,-2.9766,-2.9744,-2.9744,-2.9704,-2.9567,-2.916,-2.9043,-2.8965,-2.8535,-2.8418,-2.8398,-2.832,-2.8301,-2.8301,-2.8301,-2.8301,-2.8301,-2.8301,-2.8301,-2.8301,-2.8301,-2.8301,-2.8184,-2.7851,-2.7767,-2.7559,-2.7207,-2.6797,-2.6367,-2.5869,-2.5752,-2.5693,-2.5693,-2.5693,-2.5693,-2.5693,-2.5693,-2.5693,-2.5693,-2.5,-2.4394,-2.4062,-2.3633,-2.3398,-2.3335,-2.3398,-2.3658,-2.4023,-2.4043,-2.4258,-2.4621,-2.4621,-2.4863,-2.5195,-2.5341,-2.5273,-2.2523,-2.0385,-1.9124,-2.0407,-2.0203,-2.082,0.0,-2.5204,-2.5007,-2.6389,-2.7301,-2.7629,-2.6866,-2.747,-2.7892,-2.7419,-2.757,-2.7571,-2.707,-2.7383,-2.75,-2.707,-2.7402,-2.7812,-2.8184,-2.8262,-2.8301,-2.8301,-2.8301,-2.8301,-2.8301,-2.8301,-2.8301,-2.8301,-2.8652,-2.8867,-2.8926,-2.9668,-3.0078,-3.0137,-3.0586,-3.082,-3.082,-3.0859,-3.0898,-3.0898,-3.0898,-3.0898,-3.0898,-3.0898,-3.0898,-3.0898,-3.0898,-3.082,-3.0742,-3.0742,-3.0488,-3.0137,-3.0137,-2.9883,-2.957,-2.9567,-2.9492,-2.9414,-2.8984,-2.8848,-2.8769,-2.8398,-2.8301,-2.8301,-2.8301,-2.8301,-2.8301,-2.8301,-2.8301,-2.8301,-2.8301,-2.8301,-2.8281,-2.8223,-2.793,-2.7708,-2.765,-2.7226,-2.6797,-2.6387,-2.5996,-2.5693,-2.5693,-2.5693,-2.5693,-2.5693,-2.5693,-2.5693,-2.5693,-2.5273,-2.5028,-2.4969,-2.4512,-2.4277,-2.4277,-2.4277,-2.4473,-2.4969,-2.4969,-2.5137,-2.5538,-2.5538,-2.5577,-2.5615,-2.6055,-2.6035,-2.3731,-2.2723,-2.2244,-2.2049,-2.2687,-2.4041,-2.6562,-2.6582,-2.6663,-2.8633,-2.8519,-2.8455,-2.9715,-2.9027,-2.8461,-2.9076,-2.9064,-2.8951,-2.8819,-2.8901,-2.9033,-2.9173,-2.9065,-2.8967,-2.8886,-2.8331,-2.8588,-3.012,-2.9006,-2.8548,-2.9217,-2.9217,-2.9073,-2.8652,-2.9459,-2.9799,-2.9668,-3.0019,-3.0332,-3.0605,-3.0801,-3.0898,-3.0898,-3.0898,-3.0898,-3.0898,-3.0898,-3.0898,-3.0898,-3.0898,-3.0898,-3.0898,-3.0898,-3.0898,-3.0898,-3.0898,-3.0762,-3.0605,-3.0605,-3.0488,-3.0293,-3.0019,-2.9941,-2.9863,-2.9434,-2.9297,-2.9258,-2.9082,-2.8848,-2.8652,-2.8652,-2.8476,-2.8301,-2.8301,-2.8301,-2.8301,-2.8301,-2.8301,-2.8301,-2.8301,-2.8144,-2.8027,-2.8027,-2.7676,-2.7344,-2.7168,-2.6758,-2.6387,-2.6152,-2.6113,-2.6016,-2.5713,-2.5693,-2.5693,-2.5693,-2.5566,-2.5449,-2.5449,-2.5293,-2.5148,-2.5148,-2.5148,-2.5273,-2.5449,-2.5449,-2.5684,-2.6113,-2.6113,-2.625,-2.6434,-2.668,-2.666,-2.4617,-2.4447,-2.4626,-2.374,-2.5098,-2.6922,-2.8314,-2.8422,-2.8828,-3.0739,-3.0066,-2.9667,-3.1457,-3.0321,-2.9387,-3.0063,-3.0327,-3.033,-2.9954,-3.0005,-3.0185,-3.0389,-3.0005,-2.9779,-2.9992,-2.926,-2.929,-3.0587,-2.9775,-2.9428,-2.988,-3.0193,-3.0244,-2.9863,-3.0772,-3.1065,-3.0687,-3.0826,-3.0892,-3.0898,-3.0898,-3.0898,-3.0898,-3.0898,-3.1054,-3.1402,-3.1054,-3.1112,-3.1344,-3.1054,-3.0898,-3.0898,-3.0898,-3.0898,-3.0898,-3.0898,-3.0898,-3.0898,-3.0898,-3.0898,-3.084,-3.0488,-3.0391,-3.0312,-2.9863,-2.9746,-2.9726,-2.9609,-2.9355,-2.9101,-2.9101,-2.8789,-2.8457,-2.8457,-2.8379,-2.8301,-2.8301,-2.8301,-2.8301,-2.8301,-2.8301,-2.8301,-2.8301,-2.8047,-2.7885,-2.7885,-2.7578,-2.7168,-2.6621,-2.6562,-2.6387,-2.5957,-2.5869,-2.581,-2.5693,-2.5693,-2.5693,-2.5693,-2.5693,-2.5693,-2.5693,-2.581,-2.5869,-2.5869,-2.5986,-2.625,-2.6562,-2.6562,-2.6719,-2.7012,-2.7129,-2.7187,-2.5224,-2.4706,-2.4815,-2.569,-2.7005,-2.8664,-3.1105,-3.1982,-3.2397,-3.3066,-3.3047,-3.2488,-3.1202,-3.1417,-3.1261,-2.9593,-3.0802,-3.1312,-2.9546,-3.0177,-3.0438,-2.948,-2.9324,-2.9951,-3.1542,-3.1567,-3.0639,-2.8548,-3.0349,-3.1,-2.9964,-3.0949,-3.1804,-3.2285,-3.2721,-3.2609,-3.194,-3.2437,-3.2055,-3.0898,-3.0898,-3.0898,-3.0898,-3.0898,-3.1556,-3.2571,-3.1402,-3.1556,-3.2571,-3.1402,-3.0898,-3.0898,-3.0898,-3.0898,-3.0898,-3.0898,-3.0898,-3.0898,-3.0898,-3.0898,-3.0898,-3.0879,-3.0859,-3.0781,-3.0312,-3.0176,-3.0098,-2.9687,-2.9607,-2.9551,-2.9551,-2.9219,-2.8906,-2.8906,-2.8594,-2.8301,-2.8301,-2.8301,-2.8301,-2.8301,-2.8301,-2.8301,-2.8301,-2.8281,-2.8281,-2.8281,-2.8262,-2.7949,-2.7109,-2.6992,-2.6836,-2.6406,-2.6367,-2.6191,-2.5732,-2.5693,-2.5693,-2.5693,-2.5693,-2.5693,-2.5693,-2.6152,-2.6367,-2.6367,-2.6777,-2.6973,-2.6992,-2.6992,-2.7012,-2.7031,-2.7441,-2.7708,-2.6153,-2.6976,-2.8323,-2.8775,-3.0257,-3.1941,-3.3399,-3.3598,-3.3591,-3.4135,-3.3383,-3.2793,-3.3336,-3.2297,-3.1677,-3.2536,-3.2391,-3.2314,-3.2629,-3.2034,-3.1679,-3.1949,-3.1588,-3.1437,-3.1683,-3.1016,-3.1186,-3.2532,-3.1971,-3.1717,-3.2072,-3.2426,-3.2705,-3.2774,-3.3607,-3.3915,-3.3574,-3.3767,-3.3233,-3.2076,-3.2076,-3.2076,-3.2133,-3.2892,-3.3459,-3.3776,-3.2628,-3.2285,-3.2628,-3.1402,-3.0898,-3.0898,-3.0898,-3.0898,-3.0898,-3.0898,-3.0898,-3.0898,-3.0898,-3.0898,-3.0898,-3.0898,-3.0898,-3.0859,-3.0703,-3.0664,-3.0625,-3.0488,-3.0215,-2.998,-2.998,-2.9668,-2.9277,-2.8984,-2.8809,-2.8633,-2.8359,-2.8301,-2.8301,-2.8301,-2.8301,-2.8301,-2.8301,-2.8301,-2.8301,-2.8301,-2.8047,-2.7826,-2.748,-2.7187,-2.6953,-2.6816,-2.6797,-2.6738,-2.6602,-2.6582,-2.6582,-2.6582,-2.6582,-2.6582,-2.6582,-2.6719,-2.6797,-2.6797,-2.6934,-2.7148,-2.7441,-2.7441,-2.7598,-2.7871,-2.8008,-2.8086,-2.7673,-2.9043,-3.065,-3.1277,-3.265,-3.3998,-3.4769,-3.4598,-3.4394,-3.489,-3.3749,-3.286,-3.3703,-3.2565,-3.1965,-3.3287,-3.3061,-3.3044,-3.3847,-3.3071,-3.2624,-3.3179,-3.2767,-3.2441,-3.2581,-3.1943,-3.2099,-3.3528,-3.3101,-3.2901,-3.3201,-3.3549,-3.3843,-3.3928,-3.4757,-3.5106,-3.4768,-3.4968,-3.4447,-3.3289,-3.3289,-3.3289,-3.3346,-3.4056,-3.4614,-3.4947,-3.3797,-3.3572,-3.3853,-3.2685,-3.1903,-3.1556,-3.1556,-3.1286,-3.0957,-3.1402,-3.1556,-3.1518,-3.1054,-3.0898,-3.0898,-3.0898,-3.0898,-3.0898,-3.0898,-3.0898,-3.0898,-3.0898,-3.0684,-3.0449,-3.0449,-3.0117,-2.9726,-2.9453,-2.9258,-2.9043,-2.8613,-2.8516,-2.8476,-2.832,-2.8301,-2.8301,-2.8301,-2.8301,-2.8301,-2.8301,-2.8066,-2.7891,-2.7891,-2.7637,-2.7422,-2.7266,-2.7246,-2.7187,-2.7031,-2.7012,-2.7012,-2.7012,-2.7012,-2.7012,-2.7012,-2.7168,-2.7246,-2.7246,-2.7402,-2.7617,-2.7891,-2.7891,-2.8027,-2.8301,-2.8301,-2.8301,-2.9609,-3.0827,-3.188,-3.3095,-3.4114,-3.4881,-3.5382,-3.5107,-3.4831,-3.5232,-3.4098,-3.286,-3.224,-3.2105,-3.2084,-3.195,-3.282,-3.3479,-3.3305,-3.3236,-3.3211,-3.3211,-3.2769,-3.2999,-3.4238,-3.4228,-3.3434,-3.1905,-3.3671,-3.436,-3.335,-3.4262,-3.5064,-3.5593,-3.6122,-3.6165,-3.5534,-3.6033,-3.5663,-3.4503,-3.4503,-3.4503,-3.4503,-3.4558,-3.5223,-3.6286,-3.5057,-3.5168,-3.6122,-3.4891,-3.3776,-3.2799,-3.2799,-3.2076,-3.1228,-3.2342,-3.2799,-3.2628,-3.1518,-3.1054,-3.0995,-3.0995,-3.0957,-3.0898,-3.0898,-3.0898,-3.0898,-3.0898,-3.0898,-3.0898,-3.0898,-3.0566,-3.0234,-3.0195,-2.9902,-2.9473,-2.9043,-2.8945,-2.8828,-2.8398,-2.8301,-2.8301,-2.8301,-2.8301,-2.8301,-2.8301,-2.8301,-2.8301,-2.8301,-2.8301,-2.8144,-2.7787,-2.7748,-2.7519,-2.7109,-2.709,-2.709,-2.709,-2.709,-2.709,-2.709,-2.748,-2.7748,-2.7748,-2.8086,-2.8301,-2.8301,-2.8301,-2.8301,-2.8301,-2.8301,-2.8301,-3.0801,-3.2721,-3.4535,-3.4856,-3.5444,-3.5881,-3.5558,-3.5382,-3.4856,-3.3326,-3.239,-3.1405,-3.0025,-3.0433,-3.1238,-3.2017,-3.3084,-3.402,-3.4615,-3.3975,-3.3365,-3.3187,-3.3433,-3.3707,-3.4078,-3.4762,-3.4919,-3.4337,-3.4775,-3.4872,-3.4433,-3.4823,-3.5308,-3.5915,-3.6598,-3.711,-3.7336,-3.7051,-3.6588,-3.6022,-3.6022,-3.6022,-3.6077,-3.6965,-3.7631,-3.808,-3.6642,-3.6185,-3.6402,-3.5002,-3.4224,-3.3944,-3.3944,-3.3776,-3.3551,-3.3832,-3.3944,-3.3888,-3.3607,-3.2949,-3.2248,-3.2248,-3.1614,-3.0898,-3.0898,-3.0898,-3.0898,-3.0898,-3.0898,-3.0898,-3.0898,-3.0801,-3.0625,-3.0273,-3.0117,-2.9922,-2.9492,-2.9394,-2.9277,-2.8848,-2.8516,-2.8301,-2.8301,-2.8301,-2.8301,-2.8301,-2.8301,-2.8301,-2.8301,-2.8301,-2.8262,-2.8144,-2.8125,-2.8086,-2.7988,-2.7969,-2.7969,-2.7969,-2.7969,-2.7969,-2.7969,-2.8066,-2.8125,-2.8125,-2.8242,-2.8301,-2.8301,-2.8301,-2.8301,-2.8301,-2.8301,-2.8301,-3.2516,-3.4173,-3.5558,-3.5855,-3.5956,-3.573,-3.47,-3.4073,-3.3126,-3.1185,-3.0131,-2.9302,-2.8373,-2.9126,-3.0192,-3.1336,-3.2641,-3.3803,-3.4545,-3.4075,-3.3707,-3.3846,-3.3921,-3.4198,-3.4848,-3.5291,-3.5493,-3.5404,-3.538,-3.5284,-3.4969,-3.5235,-3.5502,-3.5819,-3.6726,-3.7561,-3.8322,-3.804,-3.7737,-3.7554,-3.7554,-3.7554,-3.7578,-3.8291,-3.8684,-3.8736,-3.7897,-3.7554,-3.7501,-3.6696,-3.6045,-3.5608,-3.5608,-3.5223,-3.4648,-3.5201,-3.5278,-3.5278,-3.5772,-3.5223,-3.4078,-3.3027,-3.1903,-3.0995,-3.1518,-3.1672,-3.1672,-3.1672,-3.1672,-3.1556,-3.1054,-3.0898,-3.082,-3.0566,-3.0508,-3.0391,-2.9941,-2.9844,-2.9707,-2.9297,-2.8867,-2.8574,-2.8574,-2.8418,-2.8301,-2.8301,-2.8301,-2.8301,-2.8301,-2.8301,-2.8301,-2.8301,-2.8301,-2.8301,-2.8301,-2.8301,-2.8301,-2.8301,-2.8301,-2.8301,-2.8301,-2.8301,-2.8301,-2.8301,-2.8301,-2.8301,-2.8301,-2.8301,-2.8301,-2.8301,-2.8301,-2.8301,-3.4274,-3.5182,-3.5708,-3.6157,-3.5906,-3.5031,-3.3269,-3.2089,-3.0859,-2.8976,-2.777,-2.7017,-2.6901,-2.7871,-2.9076,-3.0167,-3.1913,-3.3294,-3.3922,-3.3947,-3.4098,-3.465,-3.4299,-3.451,-3.5802,-3.5765,-3.5622,-3.5644,-3.5668,-3.5572,-3.5284,-3.5524,-3.5742,-3.5914,-3.6826,-3.7861,-3.8893,-3.8893,-3.8893,-3.8841,-3.8841,-3.8841,-3.8841,-3.8841,-3.8893,-3.8893,-3.8893,-3.8841,-3.8841,-3.8841,-3.8238,-3.7311,-3.7311,-3.6534,-3.553,-3.6511,-3.675,-3.6665,-3.7761,-3.7334,-3.5959,-3.3853,-3.2342,-3.1556,-3.2628,-3.2913,-3.2913,-3.2742,-3.2685,-3.2399,-3.1228,-3.0898,-3.0898,-3.0898,-3.0898,-3.0781,-3.0371,-3.0234,-3.0098,-2.9726,-2.9297,-2.9004,-2.9004,-2.8711,-2.8437,-2.8379,-2.8379,-2.8359,-2.8301,-2.8301,-2.8301,-2.8301,-2.8301,-2.8301,-2.8301,-2.8301,-2.8301,-2.8301,-2.8301,-2.8301,-2.8301,-2.8301,-2.8301,-2.8301,-2.8301,-2.8301,-2.8301,-2.8301,-2.8301,-2.8301,-2.8301,-2.8301,-3.5006,-3.5805,-3.6132,-3.578,-3.5583,-3.4831,-3.2265,-3.1537,-3.0532,-2.7555,-2.6399,-2.5611,-2.4732,-2.6214,-2.7921,-2.9013,-3.1386,-3.342,-3.4424,-3.4198,-3.4098,-3.465,-3.465,-3.4831,-3.5537,-3.5959,-3.6163,-3.5955,-3.6146,-3.6026,-3.5572,-3.5764,-3.6425,-3.7541,-3.7766,-3.8392,-3.9517,-3.9542,-3.9413,-3.9206,-3.9206,-3.9206,-3.9206,-3.9206,-3.931,-3.9542,-3.931,-3.9206,-3.9206,-3.8893,-3.8684,-3.8526,-3.8526,-3.8344,-3.8133,-3.8344,-3.8396,-3.8368,-3.8579,-3.7921,-3.6804,-3.5904,-3.4781,-3.3832,-3.4056,-3.4112,-3.3888,-3.297,-3.2685,-3.2399,-3.1228,-3.0898,-3.0898,-3.0898,-3.0898,-3.0859,-3.0781,-3.0469,-3.0176,-3.0098,-2.9746,-2.9453,-2.9453,-2.9394,-2.9219,-2.8867,-2.8809,-2.8691,-2.834,-2.8301,-2.8301,-2.8301,-2.8301,-2.8301,-2.8301,-2.8301,-2.8301,-2.8301,-2.8301,-2.8301,-2.8301,-2.8301,-2.8301,-2.8301,-2.8301,-2.8301,-2.8301,-2.8301,-2.8301,-2.8301,-2.8301,-2.8301,-3.4931,-3.573,-3.6279,-3.5633,-3.4856,-3.352,-3.0733,-2.9202,-2.767,-2.5234,-2.428,-2.3828,-2.3602,-2.5109,-2.6666,-2.7519,-2.9478,-3.1512,-3.3169,-3.2943,-3.3244,-3.4906,-3.4856,-3.5052,-3.5881,-3.6207,-3.6358,-3.6241,-3.631,-3.6216,-3.5812,-3.6051,-3.6789,-3.7965,-3.8015,-3.8542,-3.9697,-3.9697,-3.9645,-3.9517,-3.9517,-3.9517,-3.9517,-3.9517,-3.9594,-3.9697,-3.9594,-3.9517,-3.949,-3.931,-3.9283,-3.9283,-3.9283,-3.9154,-3.905,-3.905,-3.8945,-3.8788,-3.8788,-3.8449,-3.7974,-3.7655,-3.6263,-3.4759,-3.5366,-3.5443,-3.5223,-3.4692,-3.4525,-3.4246,-3.3006,-3.2721,-3.2721,-3.2721,-3.2721,-3.2721,-3.2721,-3.2535,-3.2369,-3.2369,-3.2051,-3.1795,-3.1795,-3.1608,-3.1161,-3.0356,-3.0207,-2.9928,-2.9094,-2.875,-2.8535,-2.832,-2.8301,-2.8301,-2.8301,-2.8301,-2.8301,-2.8301,-2.8301,-2.8301,-2.8301,-2.8301,-2.8301,-2.8301,-2.8301,-2.8301,-2.8301,-2.8301,-2.8301,-2.8301,-2.8301,-2.8601,-3.4831,-3.5604,-3.6254,-3.5483,-3.4299,-3.2466,-2.9428,-2.7218,-2.5234,-2.3321,-2.2493,-2.2297,-2.2819,-2.4205,-2.5485,-2.6197,-2.777,-2.9615,-3.1738,-3.1763,-3.2566,-3.5182,-3.5006,-3.5152,-3.6304,-3.6405,-3.6405,-3.6405,-3.6405,-3.631,-3.6098,-3.6263,-3.6908,-3.7965,-3.8015,-3.8542,-3.9697,-3.9697,-3.9697,-3.9697,-3.9697,-3.9697,-3.9697,-3.9697,-3.9697,-3.9697,-3.9697,-3.9697,-3.9697,-3.9697,-3.9697,-3.9697,-3.9697,-3.9594,-3.9387,-3.9387,-3.9206,-3.8998,-3.8998,-3.8998,-3.8998,-3.8998,-3.7501,-3.5913,-3.678,-3.6911,-3.6719,-3.6449,-3.6394,-3.6122,-3.4891,-3.4614,-3.4614,-3.4614,-3.4614,-3.4614,-3.4614,-3.4614,-3.4614,-3.4614,-3.434,-3.4131,-3.4131,-3.3876,-3.3268,-3.2154,-3.2024,-3.1491,-3.0183,-2.9644,-2.9199,-2.8648,-2.8398,-2.8301,-2.8301,-2.8301,-2.8301,-2.8301,-2.8301,-2.8301,-2.8301,-2.8301,-2.8301,-2.8301,-2.8301,-2.8301,-2.8301,-2.8301,-2.8301,-2.8301,-2.8379,-2.904,-3.5282,-3.5906,-3.6153,-3.5052,-3.4299,-3.2842,-2.9051,-2.7243,-2.5644,-2.2924,-2.1945,-2.1744,-2.2268,-2.3351,-2.4481,-2.5511,-2.7494,-2.949,-3.1235,-3.1863,-3.2993,-3.5232,-3.5006,-3.5152,-3.6304,-3.6405,-3.6405,-3.6405,-3.6405,-3.6405,-3.6358,-3.6405,-3.6908,-3.7965,-3.8015,-3.8542,-3.9697,-3.9697,-3.9697,-3.9697,-3.9697,-3.9697,-3.9697,-3.9697,-3.9697,-3.9697,-3.9697,-3.9697,-3.9697,-3.9697,-3.9697,-3.9697,-3.9697,-3.9697,-3.9645,-3.9645,-3.9645,-3.9645,-3.9645,-3.9645,-3.9645,-3.9645,-3.9102,-3.8449,-3.8579,-3.8579,-3.8344,-3.7311,-3.7019,-3.675,-3.553,-3.5233,-3.5233,-3.5233,-3.5233,-3.5233,-3.5233,-3.5233,-3.5233,-3.5233,-3.5211,-3.5166,-3.5166,-3.5144,-3.4833,-3.4063,-3.3943,-3.3302,-3.1449,-3.1202,-3.0724,-2.962,-2.875,-2.8301,-2.8301,-2.8301,-2.8301,-2.8301,-2.8301,-2.8301,-2.8301,-2.8301,-2.8301,-2.8301,-2.8301,-2.8301,-2.8301,-2.8301,-2.8301,-2.8301,-2.8691,-2.9479,-3.4781,-3.5203,-3.5278,-3.4826,-3.3545,-3.1637,-2.8775,-2.649,-2.4456,-2.2673,-2.1619,-2.1295,-2.2146,-2.2673,-2.3351,-2.4456,-2.5084,-2.623,-2.8599,-2.9101,-3.0306,-3.3151,-3.3947,-3.465,-3.5755,-3.6182,-3.6405,-3.6405,-3.6405,-3.6405,-3.6405,-3.6405,-3.6908,-3.7965,-3.8015,-3.8542,-3.9697,-3.9697,-3.9697,-3.9697,-3.9697,-3.9697,-3.9697,-3.9697,-3.9697,-3.9697,-3.9697,-3.9697,-3.9697,-3.9697,-3.9697,-3.9697,-3.9697,-3.9697,-3.9697,-3.9697,-3.9697,-3.9697,-3.9697,-3.9697,-3.9697,-3.9697,-3.9542,-3.931,-3.9154,-3.8945,-3.8736,-3.8238,-3.8133,-3.8003,-3.7501,-3.7394,-3.7394,-3.7394,-3.7394,-3.7394,-3.7394,-3.7394,-3.7394,-3.7394,-3.7394,-3.7394,-3.7394,-3.7394,-3.7056,-3.6095,-3.5941,-3.5441,-3.3912,-3.3486,-3.3128,-3.2639,-3.0478,-2.9062,-2.9062,-2.9062,-2.9062,-2.9062,-2.9062,-2.9062,-2.9062,-2.9062,-2.9062,-2.9062,-2.9808,-3.0167,-3.0167,-3.0847,-3.1221,-3.1221,-3.141,-3.2084,-3.3922,-3.4474,-3.4675,-3.4525,-3.2918,-3.0809,-2.8599,-2.5963,-2.3627,-2.2322,-2.1192,-2.0767,-2.187,-2.2071,-2.2422,0.0,0.0,-2.4449,-2.6942,-2.757,-2.8875,-3.1863,-3.3068,-3.4098,-3.5157,-3.5931,-3.6405,-3.6405,-3.6405,-3.6405,-3.6405,-3.6405,-3.6908,-3.7965,-3.8015,-3.8542,-3.9697,-3.9697,-3.9697,-3.9697,-3.9697,-3.9697,-3.9697,-3.9697,-3.9697,-3.9697,-3.9697,-3.9697,-3.9697,-3.9697,-3.9697,-3.9697,-3.9697,-3.9697,-3.9697,-3.9697,-3.9697,-3.9697,-3.9697,-3.9697,-3.9697,-3.9697,-3.9697,-3.9645,-3.949,-3.9258,-3.905,-3.905,-3.905,-3.905,-3.905,-3.905,-3.905,-3.905,-3.905,-3.905,-3.905,-3.905,-3.905,-3.905,-3.905,-3.905,-3.905,-3.905,-3.8788,-3.7897,-3.7737,-3.7287,-3.6022,-3.554,-3.5205,-3.4827,-3.2687,-3.1181,-3.0915,-3.0894,-3.084,-3.0805,-3.0419,-3.0218,-3.0163,-2.9793,-2.9626,-2.9626,-3.0419,-3.1025,-3.1387,-3.2179,-3.2823,-3.3219,-3.3297,-3.3826,-3.2792,-3.3897,-3.46,-3.4048,-3.2641,-3.0809,-2.8599,-2.5963,-2.3527,-2.1845,-2.0589,-2.0162,-2.1292,-2.1493,-2.187,-2.292,-2.4048,0.0,-2.7042,-2.8222,-2.969,-3.1964,-3.2742,-3.352,-3.4625,-3.573,-3.6405,-3.6405,-3.6405,-3.6405,-3.6405,-3.6405,-3.6908,-3.7965,-3.8015,-3.8542,-3.9697,-3.9697,-3.9697,-3.9697,-3.9697,-3.9697,-3.9697,-3.9697,-3.9697,-3.9697,-3.9697,-3.9697,-3.9697,-3.9697,-3.9697,-3.9697,-3.9697,-3.9697,-3.9697,-3.9697,-3.9697,-3.9697,-3.9697,-3.9697,-3.9697,-3.9697,-3.9697,-3.9697,-3.9697,-3.9697,-3.9697,-3.9697,-3.9697,-3.9697,-3.9697,-3.9697,-3.9697,-3.9697,-3.9697,-3.9697,-3.9697,-3.9697,-3.9697,-3.9697,-3.9697,-3.9697,-3.9697,-3.9697,-3.9594,-3.931,-3.9258,-3.8764,-3.7233,-3.7073,-3.6619,-3.5398,-3.5288,-3.4863,-3.4035,-3.3945,-3.3862,-3.3568,-3.2448,-3.1659,-3.1387,-3.0218,-2.9626,-2.9626,-2.9626,-3.0218,-3.1387,-3.1387,-3.2038,-3.3241,-3.3594,-3.4021,-3.0673,-3.1085,-3.121,-3.0658,-2.9528,-2.8197,-2.6716,-2.4833,-2.302,-2.1744,-2.0589,-2.0137,-2.1267,-2.1493,-2.2221,-2.4456,-2.5109,0.0,-2.7128,-2.89,-3.0331,-3.1035,-3.3269,-3.5052,-3.578,-3.6204,-3.6405,-3.6405,-3.6405,-3.6405,-3.6405,-3.6405,-3.6732,-3.7412,-3.7814,-3.8366,-3.912,-3.9496,-3.9697,-3.9697,-3.9697,-3.9697,-3.9697,-3.9697,-3.9697,-3.9697,-3.9697,-3.9697,-3.9697,-3.9697,-3.9697,-3.9697,-3.9697,-3.9697,-3.9697,-3.9697,-3.9697,-3.9697,-3.9697,-3.9697,-3.9697,-3.9697,-3.9697,-3.9697,-3.9697,-3.9697,-3.9697,-3.9697,-3.9697,-3.9697,-3.9697,-3.9697,-3.9697,-3.9697,-3.9697,-3.9697,-3.9697,-3.9697,-3.9697,-3.9697,-3.9697,-3.9697,-3.9697,-3.9697,-3.9697,-3.9594,-3.9569,-3.9413,-3.8945,-3.8868,-3.8712,-3.8372,-3.8319,-3.7358,-3.5057,-3.4872,-3.4872,-3.4786,-3.4405,-3.4186,-3.4076,-3.3691,-3.3526,-3.3526,-3.4054,-3.4546,-3.4949,-3.578,-3.6367,-3.6761,-3.6714,-3.6717,-2.8547,-2.9001,-2.9076,-2.8662,-2.7795,-2.6725,-2.5561,-2.3998,-2.2468,-2.1418,-2.0439,-2.0087,-2.1043,-2.1194,-2.187,-2.4004,-2.4356,-2.5034,-2.7017,-2.8674,-3.0206,-3.1687,-3.3803,-3.5454,-3.6006,-3.6279,-3.6405,-3.6405,-3.6405,-3.6405,-3.6405,-3.6405,-3.6556,-3.6908,-3.7613,-3.8291,-3.8919,-3.9421,-3.9697,-3.9697,-3.9697,-3.9697,-3.9697,-3.9697,-3.9697,-3.9697,-3.9697,-3.9697,0.0,-3.9697,-3.9697,-3.9697,-3.9697,-3.9697,-3.9697,-3.9697,-3.9697,-3.9697,-3.9697,-3.9697,-3.9697,-3.9697,-3.9697,-3.9697,-3.9697,-3.9697,-3.9697,-3.9697,-3.9697,-3.9697,-3.9697,-3.9697,-3.9697,-3.9697,-3.9697,-3.9697,-3.9697,-3.9697,-3.9697,-3.9697,-3.9697,-3.9697,-3.9697,-3.9697,-3.9697,-3.9697,-3.9697,-3.9697,-3.9697,-3.9697,-3.9697,-3.9697,-3.9697,-3.8973,-3.7103,-3.6942,-3.6942,-3.6834,-3.6379,-3.6054,-3.5968,-3.5508,-3.5288,-3.5288,-3.5836,-3.6348,-3.678,-3.795,-3.8579,-3.8579,-3.8368,-3.8291,0.0,-2.7344,-2.7795,-2.777,-2.6967,-2.5921,-2.485,-2.3376,0.0,-2.0918,-2.0239,-1.9987,-2.0641,-2.0742,-2.1144,-2.2347,-2.2623,-2.3778,-2.6967,-2.8021,-2.9854,-3.3571,-3.45,-3.5052,-3.5508,-3.6056,-3.6405,-3.6405,-3.6405,-3.6405,-3.6405,-3.6405,-3.6405,-3.6405,-3.7387,-3.8216,-3.8844,-3.9346,-3.9647,-3.9697,-3.9697,-3.9697,-3.9697,-3.9697,-3.9697,-3.9697,-3.9697,-3.9697,-3.9697,-3.9697,-3.9697,-3.9697,-3.9697,-3.9697,-3.9697,-3.9697,-3.9697,-3.9697,-3.9697,-3.9697,-3.9697,-3.9697,-3.9697,-3.9697,-3.9697,-3.9697,-3.9697,-3.9697,-3.9697,-3.9697,-3.9697,-3.9697,-3.9697,-3.9697,-3.9697,-3.9697,-3.9697,-3.9697,-3.9697,-3.9697,-3.9697,-3.9697,-3.9697,-3.9697,-3.9697,-3.9697,-3.9697,-3.9697,-3.9697,-3.9697,-3.9697,-3.9697,-3.9697,-3.9697,-3.9697,-3.9697,-3.9594,-3.931,-3.8295,-3.753,-3.7311,-3.624,-3.5617,-3.5617,-3.5563,-3.6131,-3.7233,-3.8291,-3.8788,-3.8841,-3.8788,-3.8788,-2.2703,0.0,-2.4858,-2.4374,-2.3778,-2.3226,0.0,-2.1945,-2.0993,-2.0742,-2.0239,-2.0112,-2.1144,-2.132,-2.2071,-2.4431,-2.5561,-2.6691,-2.8323,-3.0482,-3.2717,-3.4856,-3.5655,-3.6031,-3.6157,-3.6329,-3.6405,-3.6405,-3.6405,-3.6405,-3.6405,-3.6405,-3.6405,-3.6405,-3.701,-3.7638,-3.8216,-3.8768,-3.927,-3.9697,-3.9697,-3.9697,-3.9697,-3.9697,-3.9697,-3.9697,-3.9697,-3.9697,-3.9697,-3.9697,-3.9697,-3.9697,-3.9697,-3.9697,-3.9697,-3.9697,-3.9697,-3.9697,-3.9697,-3.9697,-3.9697,-3.9697,-3.9697,-3.9697,-3.9697,-3.9697,-3.9697,-3.9697,-3.9697,-3.9697,-3.9697,-3.9697,-3.9697,-3.9697,-3.9697,-3.9697,-3.9697,-3.9697,-3.9697,-3.9697,-3.9697,-3.9697,-3.9697,-3.9697,-3.9697,-3.9697,-3.9697,-3.9697,-3.9697,-3.9697,-3.9697,-3.9697,-3.9697,-3.9697,-3.9697,-3.9697,-3.9697,-3.9594,-3.9362,-3.9129,-3.9102,-3.8816,-3.8659,-3.8659,-3.8477,-3.8477,-3.8764,-3.8788,-3.8945,-3.9154,-3.8945,-3.8788,-2.1069,-2.2146,-2.315,-2.2794,-2.2493,-2.2246,-2.1995,-2.1295,-2.0616,-2.0339,-2.0012,-2.0062,-2.0968,-2.1144,-2.1974,-2.4456,-2.5385,-2.6691,-2.9289,-3.2089,-3.4248,-3.5357,-3.6031,-3.6405,-3.6405,-3.6405,-3.6405,-3.6405,-3.6405,-3.6405,-3.6405,-3.6405,-3.6405,-3.6405,-3.6707,-3.7061,-3.7613,-3.8467,-3.907,-3.932,-3.9572,-3.9697,-3.9697,-3.9697,-3.9697,-3.9697,-3.9697,-3.9697,-3.9697,-3.9697,-3.9697,-3.9697,-3.9697,-3.9697,-3.9697,-3.9697,-3.9697,-3.9697,-3.9697,-3.9697,-3.9697,-3.9697,-3.9697,-3.9697,-3.9697,-3.9697,-3.9697,-3.9697,-3.9697,-3.9697,-3.9697,-3.9697,-3.9697,-3.9697,-3.9697,-3.9697,-3.9697,-3.9697,-3.9697,-3.9697,-3.9697,-3.9697,-3.9697,-3.9697,-3.9697,-3.9697,-3.9697,-3.9697,-3.9697,-3.9697,-3.9697,-3.9697,-3.9697,-3.9697,-3.9697,-3.9697,-3.9697,-3.9697,-3.9697,-3.9697,-3.9697,-3.9697,-3.9697,-3.9697,-3.9542,-3.9465,-3.9465,-3.931,-3.931,-3.949,-3.931,-3.9206,-2.0668,-2.1594,-2.2393,-2.2318,-2.2322,-2.2196,-2.1719,-2.1219,-2.0691,-2.0162,-2.0062,-2.0238,-2.0842,-2.1094,-2.1873,-2.3904,-2.4682,-2.6364,-3.0181,-3.3043,-3.4856,-3.5307,-3.5981,-3.6405,-3.6405,-3.6405,-3.6405,-3.6405,-3.6405,-3.6405,-3.6405,-3.6405,-3.6405,-3.6405,-3.6405,-3.6631,-3.7061,-3.809,-3.8743,-3.8919,-3.9346,-3.9622,-3.9697,-3.9697,-3.9697,-3.9697,-3.9697,-3.9697,-3.9697,-3.9697,-3.9697,-3.9697,-3.9697,-3.9697,-3.9697,-3.9697,-3.9697,-3.9697,-3.9697,-3.9697,-3.9697,-3.9697,-3.9697,-3.9697,-3.9697,-3.9697,-3.9697,-3.9697,-3.9697,-3.9697,-3.9697,-3.9697,-3.9697,-3.9697,-3.9697,-3.9697,-3.9697,-3.9697,-3.9697,-3.9697,-3.9697,-3.9697,-3.9697,-3.9697,-3.9697,-3.9697,-3.9697,-3.9697,-3.9697,-3.9697,-3.9697,-3.9697,-3.9697,-3.9697,-3.9697,-3.9697,-3.9697,-3.9697,-3.9697,-3.9697,-3.9697,-3.9697,-3.9697,-3.9697,-3.9697,-3.9697,-3.9697,-3.9697,-3.9697,-3.9697,-3.9697,-3.9697,-2.1119,-2.2171,-2.2869,-2.2393,-2.2322,-2.2297,-2.2196,-2.1769,-2.1343,-2.1242,-2.1217,-2.1393,-2.1945,-2.2849,-2.3904,-2.5159,-2.7745,-2.998,-3.111,-3.3269,-3.4705,-3.4781,-3.5755,-3.6405,-3.6405,-3.6405,-3.6405,-3.6405,-3.6405,-3.6405,-3.6405,-3.6405,-3.6405,-3.6405,-3.6405,-3.6455,-3.6531,-3.7184,-3.7914,-3.8919,-3.8994,-3.9245,-3.9697,-3.9697,-3.9697,-3.9697,-3.9697,-3.9697,-3.9697,-3.9697,-3.9697,-3.9697,-3.9697,-3.9697,-3.9697,-3.9697,-3.9697,-3.9697,-3.9697,-3.9697,-3.9697,-3.9697,-3.9697,-3.9697,-3.9697,-3.9697,-3.9697,-3.9697,-3.9697,-3.9697,-3.9697,-3.9697,-3.9697,-3.9697,-3.9697,-3.9697,-3.9697,-3.9697,-3.9697,-3.9697,-3.9697,-3.9697,-3.9697,-3.9697,-3.9697,-3.9697,-3.9697,-3.9697,-3.9697,-3.9697,-3.9697,-3.9697,-3.9697,-3.9697,-3.9697,-3.9697,-3.9697,-3.9697,-3.9697,-3.9697,-3.9697,-3.9697,-3.9697,-3.9697,-3.9697,-3.9697,-3.9697,-3.9697,-3.9697,-3.9697,-3.9697,-3.9697,-2.0439,-2.1393,-2.2322,-2.2644,-2.3,-2.3075,-2.2447,-2.1895,-2.1568,-2.187,-2.192,-2.2196,-2.3075,-2.413,-2.5611,-2.7921,-3.0357,-3.2139,-3.2667,-3.3897,-3.4826,-3.5082,-3.5881,-3.6405,-3.6405,-3.6405,-3.6405,-3.6405,-3.6405,-3.6405,-3.6405,-3.6405,-3.6405,-3.6405,-3.6405,-3.6405,-3.6405,-3.6656,-3.7287,-3.8417,-3.8718,-3.917,-3.9697,-3.9697,-3.9697,-3.9697,-3.9697,-3.9697,-3.9697,-3.9697,-3.9697,-3.9697,-3.9697,-3.9697,-3.9697,-3.9697,-3.9697,-3.9697,-3.9697,-3.9697,-3.9697,-3.9697,-3.9697,-3.9697,-3.9697,-3.9697,-3.9697,-3.9697,-3.9697,-3.9697,-3.9697,-3.9697,-3.9697,-3.9697,-3.9697,-3.9697,-3.9697,-3.9697,-3.9697,-3.9697,-3.9697,-3.9697,-3.9697,-3.9697,-3.9697,-3.9697,-3.9697,-3.9697,-3.9697,-3.9697,-3.9697,-3.9697,-3.9697,-3.9697,-3.9697,-3.9697,-3.9697,-3.9697,-3.9697,-3.9697,-3.9697,-3.9697,-3.9697,-3.9697,-3.9697,-3.9697,-3.9697,-3.9697,-3.9697,-3.9697,-3.9697,-3.9697,-2.0313,-2.1117,-2.2071,-2.2895,-2.3446,-2.3728,-2.3527,-2.2949,-2.2648,-2.3326,-2.3477,-2.3703,-2.4431,-2.5787,-2.7645,-3.0357,-3.229,-3.352,-3.3696,-3.4399,-3.5031,-3.5458,-3.6031,-3.6405,-3.6405,-3.6405,-3.6405,-3.6405,-3.6405,-3.6405,-3.6405,-3.6405,-3.6405,-3.6405,-3.6405,-3.6405,-3.6405,-3.6405,-3.6908,-3.7814,-3.8391,-3.8969,-3.9496,-3.9647,-3.9697,-3.9697,-3.9697,-3.9697,-3.9697,-3.9697,-3.9697,-3.9697,-3.9697,-3.9697,-3.9697,-3.9697,-3.9697,-3.9697,-3.9697,-3.9697,-3.9697,-3.9697,-3.9697,-3.9697,-3.9697,-3.9697,-3.9697,-3.9697,-3.9697,-3.9697,-3.9697,-3.9697,-3.9697,-3.9697,-3.9697,-3.9697,-3.9697,-3.9697,-3.9747,-3.9848,-3.9898,-3.9923,-4.0049,-4.0074,-4.0074,-4.0074,-4.0074,-4.0074,-4.0074,-4.0074,-4.0074,-4.0074,-4.0074,-4.0074,-4.0074,-3.9948,-3.9898,-3.9898,-3.9772,-3.9697,-3.9697,-3.9697,-3.9697,-3.9697,-3.9697,-3.9697,-3.9697,-3.9697,-3.9697,-3.9697,-3.9697,-3.9697,-2.1845,-2.2543,-2.2995,-2.3095,-2.3145,-2.3822,-2.6364,-2.6088,-2.5611,-2.6691,-2.6917,-2.6826,-2.6399,-2.8448,-3.0482,-3.121,-3.3169,-3.4248,-3.3269,-3.45,-3.5458,-3.5483,-3.6031,-3.6405,-3.6405,-3.6405,-3.6405,-3.6405,-3.6405,-3.6405,-3.6405,-3.6405,-3.6405,-3.6405,-3.6405,-3.6405,-3.6405,-3.6405,-3.6707,-3.7236,-3.7814,-3.8366,-3.8994,-3.9471,-3.9697,-3.9697,-3.9697,-3.9697,-3.9697,-3.9697,-3.9697,-3.9697,-3.9697,-3.9697,-3.9697,-3.9697,-3.9697,-3.9697,-3.9697,-3.9697,-3.9697,-3.9697,-3.9697,-3.9697,-3.9697,-3.9697,-3.9697,-3.9697,-3.9697,-3.9697,-3.9697,-3.9697,-3.9697,-3.9697,-3.9697,-3.9697,-3.9697,-3.9697,-3.9848,-4.035,-4.045,-4.0626,-4.1075,-4.1175,-4.1175,-4.1175,-4.1175,-4.1175,-4.1175,-4.1175,-4.1175,-4.1175,-4.1175,-4.1175,-4.1175,-4.0752,-4.045,-4.045,-3.9973,-3.9697,-3.9697,-3.9697,-3.9697,-3.9697,-3.9697,-3.9697,-3.9697,-3.9697,-3.9697,-3.9697,-3.9697,-3.9697,-2.1194,-2.1945,-2.2769,-2.3502,-2.3898,-2.4499,-2.5912,-2.5912,-2.6013,-2.7494,-2.7795,-2.8147,-2.9302,-3.0382,-3.1612,-3.3219,-3.3872,-3.4299,-3.4575,-3.4806,-3.5107,-3.5458,-3.6031,-3.6405,-3.6405,-3.6405,-3.6405,-3.6405,-3.6405,-3.6405,-3.6405,-3.6405,-3.6405,-3.6405,-3.6405,-3.6405,-3.6405,-3.6405,-3.6505,-3.6732,-3.7236,-3.799,-3.8919,-3.9094,-3.9371,-3.9697,-3.9697,-3.9697,-3.9697,-3.9697,-3.9697,-3.9697,-3.9697,-3.9697,-3.9697,-3.9697,-3.9697,-3.9697,-3.9697,-3.9697,-3.9697,-3.9697,-3.9697,-3.9697,-3.9697,-3.9697,-3.9697,-3.9697,-3.9948,-4.0199,-4.0199,-4.0199,-4.03,-4.0626,-4.0701,-4.0701,-4.0701,-4.0701,-4.0724,-4.0924,-4.0974,-4.105,-4.125,-4.1275,-4.1275,-4.1275,-4.1275,-4.1275,-4.1275,-4.1275,-4.1275,-4.1275,-4.1275,-4.1275,-4.1275,-4.11,-4.0974,-4.0974,-4.0199,-3.9697,-3.9697,-3.9697,-3.9697,-3.9697,-3.9697,-3.9697,-3.9697,-3.9697,-3.9873,-4.0199,-4.0199,-4.04,-2.0993,-2.1594,-2.2573,-2.3728,-2.4531,-2.5335,-2.6414,-2.664,-2.7218,-2.9252,-2.9402,-2.9654,-3.1336,-3.1788,-3.2491,-3.4173,-3.4424,-3.4675,-3.5382,-3.5182,-3.5132,-3.573,-3.6132,-3.6405,-3.6405,-3.6405,-3.6405,-3.6405,-3.6405,-3.6405,-3.6405,-3.6405,-3.6405,-3.6405,-3.6405,-3.6405,-3.6405,-3.6405,-3.6405,-3.6405,-3.6782,-3.7513,-3.8592,-3.8844,-3.917,-3.9697,-3.9697,-3.9697,-3.9697,-3.9697,-3.9697,-3.9697,-3.9697,-3.9697,-3.9697,-3.9697,-3.9697,-3.9697,-3.9697,-3.9697,-3.9697,-3.9697,-3.9697,-3.9697,-3.9697,-3.9697,-3.9722,-3.9898,-4.0224,-4.0601,-4.0953,-4.0902,-4.0877,-4.12,-4.1275,-4.1275,-4.1275,-4.1275,-4.1351,-4.1555,-4.1605,-4.1656,-4.1831,-4.1856,-4.1856,-4.1856,-4.1856,-4.1856,-4.1856,-4.1856,-4.1856,-4.1856,-4.1856,-4.1856,-4.1856,-4.1706,-4.1605,-4.1605,-4.0727,-4.0149,-3.9948,-3.9948,-3.9948,-3.9948,-3.9948,-4.0049,-4.0224,-4.0224,-4.04,-4.0724,-4.0724,-4.0924,-2.1644,-2.1895,-2.2573,-2.3728,-2.4833,-2.6189,-2.8411,-2.8913,-2.969,-3.2516,-3.219,-3.1562,-3.2139,-3.2692,-3.3269,-3.3822,-3.4781,-3.5483,-3.5508,-3.5508,-3.5708,-3.6329,-3.6405,-3.6405,-3.6405,-3.6405,-3.6405,-3.6405,-3.6405,-3.6405,-3.6405,-3.6405,-3.6405,-3.6405,-3.6405,-3.6405,-3.6405,-3.6405,-3.6405,-3.6405,-3.6405,-3.6935,-3.8015,-3.8592,-3.917,-3.9697,-3.9697,-3.9697,-3.9697,-3.9697,-3.9697,-3.9697,-3.9697,-3.9697,-3.9697,-3.9697,-3.9697,-3.9697,-3.9697,-3.9697,-3.9697,-3.9697,-3.9697,-3.9697,-3.9697,-3.9697,-3.9798,-4.035,-4.0526,-4.0777,-4.1936,-4.1756,-4.13,-4.13,-4.13,-4.13,-4.13,-4.13,-4.1505,-4.2112,-4.2213,-4.2389,-4.2886,-4.2986,-4.2986,-4.2986,-4.2986,-4.2986,-4.2986,-4.2986,-4.2986,-4.2986,-4.2986,-4.2986,-4.2986,-4.2539,-4.2213,-4.2213,-4.1656,-4.105,-4.0551,-4.0526,-4.0526,-4.0526,-4.0526,-4.0802,-4.1275,-4.1275,-4.1275,-4.13,-4.13,-4.13,-2.1518,-2.1895,-2.2774,-2.4657,-2.5963,-2.7469,-3.0055,-3.0382,-3.0783,-3.3169,-3.3068,-3.2742,-3.3294,-3.3545,-3.3847,-3.4399,-3.4705,-3.5056,-3.5433,-3.5508,-3.5558,-3.578,-3.578,-3.5931,-3.638,-3.6006,-3.5956,-3.638,-3.6405,-3.6405,-3.6405,-3.6405,-3.6405,-3.6405,-3.6405,-3.6405,-3.6405,-3.6405,-3.6405,-3.6405,-3.6405,-3.6782,-3.7437,-3.8015,-3.8567,-3.9145,-3.9521,-3.9697,-3.9697,-3.9697,-3.9697,-3.9697,-3.9697,-3.9697,-3.9697,-3.9697,-3.9697,-3.9697,-3.9697,-3.9697,-3.9697,-3.9697,-3.9697,-3.9697,-3.9697,-3.9697,-3.9798,-4.035,-4.0802,-4.1254,-4.2011,-4.2333,-4.2484,-4.2484,-4.2484,-4.2484,-4.2484,-4.2484,-4.2534,-4.271,-4.2791,-4.2785,-4.2961,-4.2986,-4.2986,-4.2986,-4.2986,-4.2986,-4.2986,-4.2986,-4.2986,-4.2986,-4.2986,-4.2986,-4.2986,-4.2836,-4.2791,-4.2791,-4.2585,-4.2082,-4.1075,-4.105,-4.105,-4.105,-4.105,-4.1125,-4.1275,-4.1275,-4.153,-4.1907,-4.1907,-4.2133,-2.182,-2.2372,-2.3502,-2.5711,-2.6766,-2.8072,-3.1035,-3.1989,-3.2616,-3.3947,-3.3972,-3.3822,-3.4173,-3.4223,-3.4399,-3.4906,-3.5228,-3.5504,-3.583,-3.5881,-3.5881,-3.5881,-3.5881,-3.6006,-3.638,-3.6056,-3.6006,-3.638,-3.6405,-3.6405,-3.6405,-3.6405,-3.6405,-3.6405,-3.6405,-3.6405,-3.6405,-3.6405,-3.6405,-3.6405,-3.6405,-3.6581,-3.6885,-3.7437,-3.799,-3.8567,-3.912,-3.9496,-3.9697,-3.9697,-3.9697,-3.9697,-3.9697,-3.9697,-3.9697,-3.9697,-3.9697,-3.9697,-3.9697,-3.9697,-3.9697,-3.9697,-3.9697,-3.9697,-3.9697,-3.9697,-3.9848,-4.0626,-4.1025,-4.1505,-4.2283,-4.2791,-4.2986,-4.2986,-4.2986,-4.2986,-4.2986,-4.2986,-4.2986,-4.2986,-4.2986,-4.2986,-4.2986,-4.2986,-4.2986,-4.2986,-4.2986,-4.2986,-4.2986,-4.2986,-4.2986,-4.2986,-4.2986,-4.2986,-4.2986,-4.2986,-4.2986,-4.2986,-4.2986,-4.2685,-4.2007,-4.1781,-4.1656,-4.1656,-4.1656,-4.1781,-4.1982,-4.1982,-4.2158,-4.2539,-4.2539,-4.2715,-2.2372,-2.3201,-2.4632,-2.6942,-2.7706,-2.8599,-3.1662,-3.3545,-3.4675,-3.4731,-3.4826,-3.4851,-3.4756,-3.4851,-3.5027,-3.5433,-3.6006,-3.6405,-3.6405,-3.6405,-3.6405,-3.6405,-3.6355,-3.6355,-3.6405,-3.6355,-3.6355,-3.6405,-3.6405,-3.6405,-3.6405,-3.6405,-3.6405,-3.6405,-3.6405,-3.6405,-3.6405,-3.6405,-3.6405,-3.6405,-3.6405,-3.6405,-3.643,-3.6983,-3.7513,-3.8115,-3.8642,-3.917,-3.9697,-3.9697,-3.9697,-3.9697,-3.9697,-3.9697,-3.9697,-3.9697,-3.9697,-3.9697,-3.9697,-3.9697,-3.9697,-3.9697,-3.9697,-3.9697,-3.9697,-3.9697,-3.9923,-4.0974,-4.1275,-4.1526,-4.2685,-4.2986,-4.2986,-4.2986,-4.2986,-4.2986,-4.2986,-4.2986,-4.2986,-4.2986,-4.2986,-4.2986,-4.2986,-4.2986,-4.2986,-4.2986,-4.2986,-4.2986,-4.2986,-4.2986,-4.2986,-4.2986,-4.2986,-4.2986,-4.2986,-4.2986,-4.2986,-4.2986,-4.2986,-4.2986,-4.2986,-4.2539,-4.2288,-4.2288,-4.2288,-4.2539,-4.2986,-4.2986,-4.2986,-4.2986,-4.2986,-4.2986,-2.2694,-2.3747,-2.5352,-2.8473,-3.0557,-3.2139,-3.3269,-3.3822,-3.4324,-3.5132,-3.5705,-3.5881,-3.5408,-3.573,-3.5906,-3.5558,-3.6006,-3.6405,-3.6405,-3.6405,-3.6405,-3.6405,-3.5981,-3.5881,-3.6355,-3.5981,-3.5906,-3.638,-3.6405,-3.6405,-3.6405,-3.6405,-3.6405,-3.6405,-3.6405,-3.6405,-3.6405,-3.6405,-3.6405,-3.6405,-3.6405,-3.6405,-3.643,-3.6983,-3.7739,-3.8693,-3.8818,-3.917,-3.9697,-3.9697,-3.9697,-3.9697,-3.9697,-3.9697,-3.9697,-3.9697,-3.9697,-3.9697,-3.9697,-3.9697,-3.9697,-3.9697,-3.9697,-3.9697,-3.9697,-3.9697,-3.9923,-4.0974,-4.1275,-4.1526,-4.2685,-4.2986,-4.2986,-4.2986,-4.2986,-4.2986,-4.2986,-4.2986,-4.2986,-4.2986,-4.2986,-4.2986,-4.2986,-4.2986,-4.2986,-4.2986,-4.2986,-4.2986,-4.2986,-4.2986,-4.2986,-4.2986,-4.2986,-4.2986,-4.2986,-4.2986,-4.2986,-4.2986,-4.2986,-4.2986,-4.2986,-4.2861,-4.2866,-4.2866,-4.2866,-4.2861,-4.2986,-4.2986,-4.2986,-4.2986,-4.2986,-4.2986,-2.3175,-2.4556,-2.6339,-2.9428,-3.1637,-3.3093,-3.3093,-3.352,-3.4073,-3.465,-3.5403,-3.5881,-3.5558,-3.5981,-3.6329,-3.5981,-3.6182,-3.6405,-3.6405,-3.6405,-3.6405,-3.6405,-3.6107,-3.6031,-3.638,-3.6107,-3.6056,-3.638,-3.6405,-3.6405,-3.6405,-3.6405,-3.6405,-3.6405,-3.6405,-3.6405,-3.6405,-3.6405,-3.6405,-3.6405,-3.6405,-3.6405,-3.6405,-3.6707,-3.7262,-3.8065,-3.8341,-3.8768,-3.932,-3.9597,-3.9697,-3.9697,-3.9697,-3.9697,-3.9697,-3.9697,-3.9697,-3.9697,-3.9697,-3.9697,-3.9697,-3.9697,-3.9697,-3.9697,-3.9697,-3.9873,-4.0249,-4.105,-4.153,-4.1932,-4.276,-4.2986,-4.2986,-4.2986,-4.2986,-4.2986,-4.2986,-4.2986,-4.2986,-4.2986,-4.2986,-4.2986,-4.2986,-4.2986,-4.2986,-4.2986,-4.2986,-4.2986,-4.2986,-4.2986,-4.2986,-4.2986,-4.2986,-4.2986,-4.2986,-4.2986,-4.2986,-4.2986,-4.2986,-4.2986,-4.2986,-4.2986,-4.2986,-4.2986,-4.2986,-4.2986,-4.2986,-4.2986,-4.2986,-4.2986,-4.2986,-4.2986,-2.3276,-2.5259,-2.7555,-3.0206,-3.1989,-3.2943,-3.2466,-3.3093,-3.3746,-3.3746,-3.4625,-3.5357,-3.5357,-3.5855,-3.6254,-3.6254,-3.6355,-3.6405,-3.6405,-3.6405,-3.6405,-3.6405,-3.6405,-3.6405,-3.6405,-3.6405,-3.6405,-3.6405,-3.6405,-3.6405,-3.6405,-3.6405,-3.6405,-3.6405,-3.6405,-3.6405,-3.6405,-3.6405,-3.6405,-3.6405,-3.6405,-3.6405,-3.6405,-3.6405,-3.6707,-3.7211,-3.7764,-3.8341,-3.8969,-3.9471,-3.9697,-3.9697,-3.9697,-3.9697,-3.9697,-3.9697,-3.9697,-3.9697,-3.9697,-3.9697,-3.9697,-3.9697,-3.9697,-3.9697,-3.9697,-4.0074,-4.0626,-4.1125,-4.1731,-4.2338,-4.2836,-4.2986,-4.2986,-4.2986,-4.2986,-4.2986,-4.2986,-4.2986,-4.2986,-4.2986,-4.2986,-4.2986,-4.2986,-4.2986,-4.2986,-4.2986,-4.2986,-4.2986,-4.2986,-4.2986,-4.2986,-4.2986,-4.2986,-4.2986,-4.2986,-4.2986,-4.2986,-4.2986,-4.2986,-4.2986,-4.2986,-4.2986,-4.2986,-4.2986,-4.2986,-4.2986,-4.2986,-4.2986,-4.2986,-4.2986,-4.2986,-4.2986,-2.2221,-2.5511,-2.9151,-3.1436,-3.2541,-3.3068,-3.2993,-3.3111,-3.3237,-3.3237,-3.4073,-3.4826,-3.4826,-3.5232,-3.5608,-3.5608,-3.6056,-3.6405,-3.6405,-3.6405,-3.6405,-3.6405,-3.6405,-3.6405,-3.6405,-3.6405,-3.6405,-3.6405,-3.6405,-3.6405,-3.6405,-3.6405,-3.6405,-3.6405,-3.6405,-3.6405,-3.6405,-3.6405,-3.6405,-3.6405,-3.6405,-3.6405,-3.6405,-3.6405,-3.6707,-3.7211,-3.7764,-3.8341,-3.8969,-3.9471,-3.9697,-3.9697,-3.9697,-3.9697,-3.9697,-3.9697,-3.9697,-3.9697,-3.9697,-3.9697,-3.9697,-3.9697,-3.9697,-3.9697,-3.9697,-4.0074,-4.0626,-4.1125,-4.1731,-4.2338,-4.2836,-4.2986,-4.2986,-4.2986,-4.2986,-4.2986,-4.2986,-4.2986,-4.2986,-4.2986,-4.2986,-4.2986,-4.2986,-4.2986,-4.2986,-4.2986,-4.2986,-4.2986,-4.2986,-4.2986,-4.2986,-4.2986,-4.2986,-4.2986,-4.2986,-4.2986,-4.2986,-4.2986,-4.2986,-4.2986,-4.2986,-4.2986,-4.2986,-4.2986,-4.2986,-4.2986,-4.2986,-4.2986,-4.2986,-4.2986,-4.2986,-4.2986,-2.3935,-2.6289,-2.8674,-3.1512,-3.2164,-3.229,-3.2943,-3.3111,-3.2993,-3.2667,-3.2968,-3.352,-3.4148,-3.468,-3.5132,-3.5458,-3.5708,-3.6006,-3.6355,-3.6405,-3.6405,-3.6405,-3.6405,-3.6405,-3.6405,-3.6405,-3.6405,-3.6405,-3.6405,-3.6405,-3.6405,-3.6405,-3.6405,-3.6405,-3.6405,-3.6405,-3.6405,-3.6405,-3.6405,-3.6405,-3.6405,-3.6405,-3.6405,-3.6405,-3.6531,-3.6832,-3.7638,-3.814,-3.8442,-3.9346,-3.9697,-3.9697,-3.9697,-3.9697,-3.9697,-3.9697,-3.9697,-3.9697,-3.9697,-3.9697,-3.9697,-3.9697,-3.9697,-3.9747,-4.0074,-4.0551,-4.1103,-4.163,-4.2183,-4.2715,-4.2911,-4.2986,-4.2986,-4.2986,-4.2986,-4.2986,-4.2986,-4.2986,-4.2986,-4.2986,-4.2986,-4.2986,-4.2986,-4.2986,-4.2986,-4.2986,-4.2986,-4.2986,-4.2986,-4.2986,-4.2986,-4.2986,-4.2986,-4.2986,-4.2986,-4.2986,-4.2986,-4.2986,-4.2986,-4.2986,-4.2986,-4.2986,-4.2986,-4.2986,-4.2986,-4.2986,-4.2986,-4.2986,-4.2986,-4.2986,-4.2986,-4.2986,-2.4538,-2.5946,-2.7218,-3.0382,-3.1185,-3.1486,-3.2591,-3.2968,-3.2943,-3.2516,-3.2441,-3.2641,-3.3345,-3.3796,-3.4274,-3.4781,-3.5107,-3.5483,-3.6081,-3.6329,-3.6405,-3.6405,-3.6405,-3.6405,-3.6405,-3.6405,-3.6405,-3.6405,-3.6405,-3.6405,-3.6405,-3.6405,-3.6405,-3.6405,-3.6405,-3.6405,-3.6405,-3.6405,-3.6405,-3.6405,-3.6405,-3.6405,-3.6405,-3.6405,-3.6405,-3.6455,-3.7538,-3.8015,-3.809,-3.922,-3.9697,-3.9697,-3.9697,-3.9697,-3.9697,-3.9697,-3.9697,-3.9697,-3.9697,-3.9697,-3.9697,-3.9697,-3.9697,-3.9798,-4.035,-4.0849,-4.1401,-4.2062,-4.2615,-4.2986,-4.2986,-4.2986,-4.2986,-4.2986,-4.2986,-4.2986,-4.2986,-4.2986,-4.2986,-4.2986,-4.2986,-4.2986,-4.2986,-4.2986,-4.2986,-4.2986,-4.2986,-4.2986,-4.2986,-4.2986,-4.2986,-4.2986,-4.2986,-4.2986,-4.2986,-4.2986,-4.2986,-4.2986,-4.2986,-4.2986,-4.2986,-4.2986,-4.2986,-4.2986,-4.2986,-4.2986,-4.2986,-4.2986,-4.2986,-4.2986,-4.2986,-4.2986,-2.2046,-2.3326,-2.4833,-2.762,-2.9503,-3.0934,-3.2014,-3.2692,-3.3111,-3.3043,-3.3043,-3.2893,-3.239,-3.2315,-3.2541,-3.3119,-3.4073,-3.4906,-3.5458,-3.6031,-3.6405,-3.6405,-3.6405,-3.6405,-3.6405,-3.6405,-3.6405,-3.6405,-3.6405,-3.6405,-3.6405,-3.6405,-3.6405,-3.6405,-3.6405,-3.6405,-3.6405,-3.6405,-3.6405,-3.6405,-3.6405,-3.6405,-3.6405,-3.6405,-3.6405,-3.6455,-3.7538,-3.8015,-3.809,-3.922,-3.9697,-3.9697,-3.9697,-3.9697,-3.9697,-3.9697,-3.9697,-3.9697,-3.9697,-3.9697,-3.9697,-3.9697,-3.9697,-3.9798,-4.035,-4.0849,-4.1401,-4.2062,-4.2615,-4.2986,-4.2986,-4.2986,-4.2986,-4.2986,-4.2986,-4.2986,-4.2986,-4.2986,-4.2986,-4.2986,-4.2986,-4.2986,-4.2986,-4.2986,-4.2986,-4.2986,-4.2986,-4.2986,-4.2986,-4.2986,-4.2986,-4.2986,-4.2986,-4.2986,-4.2986,-4.2986,-4.2986,-4.2986,-4.2986,-4.2986,-4.2986,-4.2986,-4.2986,-4.2986,-4.2986,-4.2986,-4.2986,-4.2986,-4.2986,-4.2986,-4.2986,-4.2986,-2.1945,-2.2874,-2.4029,-2.644,-2.8298,-2.979,-3.0934,-3.2164,-3.2968,-3.2591,-3.2516,-3.234,-3.1788,-3.1964,-3.229,-3.2491,-3.3169,-3.3972,-3.4831,-3.5479,-3.5981,-3.6355,-3.6405,-3.6405,-3.6405,-3.6405,-3.6405,-3.6405,-3.6405,-3.6405,-3.6405,-3.6405,-3.6405,-3.6405,-3.6405,-3.6405,-3.6405,-3.6405,-3.6405,-3.6405,-3.6405,-3.6405,-3.6405,-3.6405,-3.6405,-3.6455,-3.7538,-3.8015,-3.809,-3.922,-3.9697,-3.9697,-3.9697,-3.9697,-3.9697,-3.9697,-3.9697,-3.9697,-3.9697,-3.9697,-3.9697,-3.9697,-3.9697,-3.9873,-4.0777,-4.1125,-4.1476,-4.2434,-4.2866,-4.2986,-4.2986,-4.2986,-4.2986,-4.2986,-4.2986,-4.2986,-4.2986,-4.2986,-4.2986,-4.2986,-4.2986,-4.2986,-4.2986,-4.2986,-4.2986,-4.2986,-4.3288,-4.3514,-4.3514,-4.3815,-4.4041,-4.4041,-4.4041,-4.4041,-4.4041,-4.4041,-4.4041,-4.4041,-4.4041,-4.4041,-4.4041,-4.4041,-4.4041,-4.4041,-4.3689,-4.3338,-4.2986,-4.2986,-4.2986,-4.2986,-4.2986,-4.2986,-2.1066,-2.1841,-2.315,-2.5594,-2.6866,-2.811,-3.0357,-3.1587,-3.224,-3.2215,-3.2365,-3.234,-3.1763,-3.1964,-3.2164,-3.1964,-3.2591,-3.3395,-3.4324,-3.5031,-3.5708,-3.6355,-3.6405,-3.6405,-3.6405,-3.6405,-3.6405,-3.6405,-3.6405,-3.6405,-3.6405,-3.6405,-3.6405,-3.6405,-3.6405,-3.6405,-3.6405,-3.6405,-3.6405,-3.6405,-3.6405,-3.6405,-3.6405,-3.6405,-3.6405,-3.6455,-3.7337,-3.7839,-3.809,-3.922,-3.9697,-3.9697,-3.9697,-3.9697,-3.9697,-3.9697,-3.9697,-3.9697,-3.9697,-3.9697,-3.9697,-3.9697,-3.9823,-4.0149,-4.1,-4.1455,-4.1806,-4.271,-4.2986,-4.2986,-4.2986,-4.2986,-4.2986,-4.2986,-4.3112,-4.3263,-4.3263,-4.3263,-4.3263,-4.3263,-4.3413,-4.3539,-4.3539,-4.3539,-4.3539,-4.3539,-4.384,-4.4091,-4.4091,-4.4392,-4.4618,-4.4618,-4.4618,-4.4618,-4.4618,-4.4618,-4.4618,-4.4618,-4.4618,-4.4618,-4.4618,-4.4618,-4.4618,-4.4618,-4.4267,-4.3815,-4.3263,-4.3062,-4.2986,-4.2986,-4.2986,-4.3087,0.0,0.0,0.0,-2.4782,-2.5134,-2.5912,-3.0206,-3.0834,-3.0809,-3.1938,-3.2591,-3.2817,-3.234,-3.224,-3.2064,-3.1512,-3.234,-3.3244,-3.3796,-3.4781,-3.5658,-3.6329,-3.638,-3.638,-3.6405,-3.6405,-3.6405,-3.6405,-3.6405,-3.6405,-3.6405,-3.6405,-3.6405,-3.6405,-3.6405,-3.6405,-3.6405,-3.6405,-3.6405,-3.6405,-3.6405,-3.6405,-3.6405,-3.6405,-3.6405,-3.643,-3.696,-3.7513,-3.809,-3.922,-3.9672,-3.9697,-3.9697,-3.9697,-3.9697,-3.9697,-3.9697,-3.9697,-3.9697,-3.9697,-3.9697,-3.9722,-4.0074,-4.0626,-4.115,-4.1731,-4.2313,-4.2866,-4.2986,-4.2986,-4.2986,-4.2986,-4.3011,-4.3011,-4.3413,-4.3815,-4.3815,-4.384,-4.384,-4.384,-4.4242,-4.4618,-4.4618,-4.4618,-4.4618,-4.4618,-4.4644,-4.4644,-4.4644,-4.4669,-4.4669,-4.4669,-4.4669,-4.4669,-4.4669,-4.4669,-4.4669,-4.4669,-4.4669,-4.4669,-4.4669,-4.4669,-4.4669,-4.4669,-4.4644,-4.4392,-4.384,-4.3288,-4.3011,-4.3011,-4.3011,-4.3313,-1.9635,0.0,0.0,0.0,0.0,0.0,0.0,-2.7143,-2.8273,-3.0583,-3.0859,-3.1135,-3.2566,-3.2842,-3.2641,-3.2064,-3.224,-3.2641,-3.3219,-3.3897,-3.47,-3.5655,-3.578,-3.5931,-3.638,-3.6405,-3.6405,-3.6405,-3.6405,-3.6405,-3.6405,-3.6405,-3.6405,-3.6405,-3.6405,-3.6405,-3.6405,-3.6405,-3.6405,-3.6405,-3.6405,-3.6405,-3.6405,-3.6405,-3.6405,-3.6455,-3.7362,-3.7864,-3.8065,-3.8793,-3.932,-3.9697,-3.9697,-3.9697,-3.9697,-3.9697,-3.9697,-3.9697,-3.9697,-3.9697,-3.9747,-4.0149,-4.04,-4.0701,-4.1656,-4.2087,-4.2313,-4.2866,-4.2986,-4.2986,-4.2986,-4.3263,-4.3564,-4.3564,-4.3991,-4.4392,-4.4392,-4.4719,-4.4895,-4.4468,-4.4518,-4.4618,-4.4618,-4.4618,-4.4618,-4.4618,-4.497,-4.5246,-4.5246,-4.5598,-4.5849,-4.5849,-4.5849,-4.5849,-4.5849,-4.5849,-4.5849,-4.5849,-4.5849,-4.5849,-4.5849,-4.5849,-4.5849,-4.5849,-4.5447,-4.5171,-4.502,-4.4041,-4.3564,-4.3589,-4.3991,-4.4242,-1.9936,-2.079,0.0,0.0,0.0,0.0,-2.541,-2.5988,-2.6927,0.0,-3.0005,-3.0331,-3.2064,-3.2365,-3.234,-3.224,-3.2416,-3.2692,-3.3043,-3.3545,-3.4223,-3.5056,-3.5357,-3.5633,-3.5981,-3.6279,-3.6405,-3.6405,-3.6405,-3.6405,-3.6405,-3.6405,-3.6304,-3.6031,-3.6006,-3.5906,-3.568,-3.5906,-3.6006,-3.6031,-3.6304,-3.6405,-3.6405,-3.6405,-3.6405,-3.6455,-3.7287,-3.7789,-3.804,-3.8617,-3.9195,-3.9697,-3.9697,-3.9697,-3.9697,-3.9697,-3.9697,-3.9697,-3.9697,-3.9697,-3.9798,-4.035,-4.0676,-4.1028,-4.1936,-4.2363,-4.2615,-4.2886,-4.2986,-4.3037,-4.3263,-4.3564,-4.3865,-4.4091,-4.4568,-4.4995,-4.4995,-4.5422,-4.5673,-4.5095,-4.5171,-4.5321,-4.5321,-4.5321,-4.5321,-4.5321,-4.5623,-4.5824,-4.5824,-4.6125,-4.6301,-4.6301,-4.6301,-4.6301,-4.6301,-4.6301,-4.6301,-4.6301,-4.6301,-4.6301,-4.6301,-4.6301,-4.6301,-4.6301,-4.5999,-4.5723,-4.5497,-4.4568,-4.4141,-4.4141,-4.4468,-4.4744,-2.0338,-2.1217,0.0,-2.3577,-2.2723,0.0,-2.5887,-2.5912,-2.5988,0.0,-2.9277,-2.9679,-3.0809,-3.1185,-3.1411,-3.1712,-3.2441,-3.2993,-3.3111,-3.3495,-3.4022,-3.4575,-3.5031,-3.5332,-3.5408,-3.5956,-3.6329,-3.6329,-3.638,-3.6405,-3.6405,-3.6405,-3.6132,-3.5608,-3.5533,-3.5257,-3.4781,-3.5257,-3.5508,-3.5508,-3.6107,-3.6405,-3.6405,-3.6405,-3.6405,-3.643,-3.701,-3.7563,-3.8065,-3.8693,-3.9245,-3.9697,-3.9697,-3.9697,-3.9697,-3.9697,-3.9697,-3.9697,-3.9697,-3.9747,-3.9873,-4.0425,-4.0978,-4.153,-4.2082,-4.264,-4.2986,-4.2986,-4.2986,-4.3112,-4.3664,-4.384,-4.4041,-4.4593,-4.5171,-4.5573,-4.5573,-4.5974,-4.6175,-4.5673,-4.5974,-4.6301,-4.6301,-4.6301,-4.6301,-4.6301,-4.6301,-4.6301,-4.6301,-4.6301,-4.6301,-4.6301,-4.6301,-4.6301,-4.6301,-4.6301,-4.6301,-4.6301,-4.6301,-4.6301,-4.6301,-4.6301,-4.6301,-4.6301,-4.6301,-4.6075,-4.5573,-4.4995,-4.4719,-4.4719,-4.4794,-4.5095,-2.1769,-2.2368,-2.2895,-2.2669,-2.2694,0.0,-2.2648,-2.2799,-2.3502,0.0,-2.6113,-2.6892,-2.8473,-2.9854,-3.0357,-2.9101,-3.0859,-3.2541,-3.3061,-3.3212,-3.3445,-3.3997,-3.4148,-3.4399,-3.4781,-3.5332,-3.5658,-3.5658,-3.6107,-3.6405,-3.6405,-3.6405,-3.6355,-3.6207,-3.578,-3.5458,-3.5332,-3.5433,-3.5508,-3.5508,-3.6107,-3.6405,-3.6405,-3.6405,-3.6405,-3.6455,-3.7412,-3.7914,-3.809,-3.912,-3.9597,-3.9697,-3.9697,-3.9697,-3.9697,-3.9697,-3.9697,-3.9697,-3.9697,-3.9973,-4.045,-4.0949,-4.1555,-4.2162,-4.266,-4.2886,-4.2986,-4.2986,-4.2986,-4.3112,-4.3664,-4.4141,-4.4593,-4.5171,-4.5748,-4.615,-4.615,-4.6225,-4.6276,-4.6175,-4.6225,-4.6301,-4.6301,-4.6301,-4.6301,-4.6301,-4.6301,-4.6301,-4.6301,-4.6301,-4.6301,-4.6301,-4.6301,-4.6301,-4.6301,-4.6301,-4.6301,-4.6301,-4.6301,-4.6301,-4.6301,-4.6301,-4.6301,-4.6301,-4.6301,-4.625,-4.615,-4.5598,-4.5321,-4.5321,-4.5773,-4.605,-2.2694,-2.3095,-2.3471,-2.3226,0.0,0.0,0.0,-2.2723,-2.317,-2.4858,-2.4983,-2.531,-2.6967,-2.7745,-2.8197,-2.8473,-3.0156,-3.1612,-3.2164,-3.2717,-3.3212,-3.3445,-3.3746,-3.3997,-3.4274,-3.4781,-3.5207,-3.5483,-3.5805,-3.6081,-3.638,-3.6405,-3.6279,-3.5956,-3.5429,-3.4956,-3.468,-3.4956,-3.5082,-3.5107,-3.5956,-3.6405,-3.6405,-3.6405,-3.6405,-3.6455,-3.7538,-3.8015,-3.809,-3.922,-3.9697,-3.9697,-3.9697,-3.9697,-3.9697,-3.9697,-3.9697,-3.9697,-3.9697,-4.0049,-4.0601,-4.11,-4.1706,-4.2313,-4.2811,-4.2986,-4.2986,-4.2986,-4.2986,-4.3162,-4.3991,-4.4418,-4.4844,-4.5698,-4.61,-4.6301,-4.6301,-4.6301,-4.6301,-4.6301,-4.6301,-4.6301,-4.6301,-4.6301,-4.6301,-4.6301,-4.6301,-4.6301,-4.6301,-4.6301,-4.6301,-4.6301,-4.6301,-4.6301,-4.6301,-4.6301,-4.6301,-4.6301,-4.6301,-4.6301,-4.6301,-4.6301,-4.6301,-4.6301,-4.6301,-4.6301,-4.6301,-4.6024,-4.5899,-4.5899,-4.6175,-4.6301,-2.3747,-2.4148,-2.4682,-2.4255,0.0,-2.3847,0.0,0.0,0.0,0.0,0.0,0.0,0.0,0.0,0.0,-2.7534,0.0,0.0,0.0,-3.1512,0.0,-3.2717,-3.3345,-3.3696,-3.3596,-3.3872,-3.4405,-3.5282,-3.5132,-3.5403,-3.6157,-3.6355,-3.6157,-3.5683,-3.5031,-3.45,-3.4073,-3.45,-3.468,-3.468,-3.583,-3.6405,-3.6405,-3.6405,-3.6405,-3.6455,-3.7538,-3.8015,-3.809,-3.922,-3.9697,-3.9697,-3.9697,-3.9697,-3.9697,-3.9697,-3.9697,-3.9697,-3.9823,-4.0224,-4.0752,-4.1304,-4.1856,-4.2439,-4.2836,-4.2986,-4.2986,-4.2986,-4.3062,-4.3363,-4.4367,-4.4719,-4.5045,-4.6075,-4.6301,-4.6301,-4.6301,-4.6301,-4.6301,-4.6301,-4.6301,-4.6301,-4.6301,-4.6301,-4.6301,-4.6301,-4.6301,-4.6301,-4.6301,-4.6301,-4.6301,-4.6301,-4.6301,-4.6301,-4.6301,-4.6301,-4.6301,-4.6301,-4.6301,-4.6301,-4.6301,-4.6301,-4.6301,-4.6301,-4.6301,-4.6301,-4.6301,-4.6301,-4.6301,-4.6301,-4.6301,-4.6301,0.0,0.0,0.0,0.0,-2.5762,-2.6063,0.0,0.0,-2.3678,-2.2849,0.0,0.0,0.0,0.0,0.0,0.0,0.0,0.0,-2.7102,-2.8398,-2.9955,-3.1411,-3.2516,-3.2968,-3.2466,-3.2014,-3.2616,-3.463,-3.3897,-3.4022,-3.5508,-3.6107,-3.638,-3.6329,-3.5253,-3.47,-3.4625,-3.47,-3.468,-3.468,-3.583,-3.6405,-3.6405,-3.6405,-3.6405,-3.6455,-3.7538,-3.8015,-3.809,-3.922,-3.9697,-3.9697,-3.9697,-3.9697,-3.9697,-3.9697,-3.9697,-3.9772,-4.0249,-4.0724,-4.1275,-4.1882,-4.2489,-4.2886,-4.2961,-4.2986,-4.2986,-4.2986,-4.3338,-4.384,-4.4468,-4.4995,-4.5547,-4.6175,-4.6301,-4.6301,-4.6301,-4.6301,-4.6301,-4.6301,-4.6301,-4.6301,-4.6301,-4.6301,-4.6301,-4.6301,-4.6301,-4.6301,-4.6301,-4.6301,-4.6301,-4.6301,-4.6301,-4.6301,-4.6301,-4.6301,-4.6301,-4.6301,-4.6301,-4.6301,-4.6301,-4.6301,-4.6301,-4.6301,-4.6301,-4.6301,-4.6301,-4.6301,-4.6301,-4.6301,-4.6301,-4.6301,0.0,0.0,0.0,0.0,0.0,0.0,-2.3828,0.0,-2.3321,0.0,0.0,0.0,0.0,0.0,0.0,0.0,-2.5335,0.0,0.0,0.0,-2.8473,-2.9804,0.0,-3.1448,-3.1877,-3.1398,-3.1962,-3.4073,-3.3003,-3.3248,-3.5382,-3.5755,-3.6031,-3.6405,-3.5303,-3.468,-3.468,-3.468,-3.468,-3.468,-3.583,-3.6405,-3.6405,-3.6405,-3.6581,-3.6933,-3.7663,-3.8191,-3.8567,-3.9371,-3.9697,-3.9697,-3.9697,-3.9697,-3.9697,-3.9697,-3.9697,-3.9772,-4.0325,-4.0824,-4.1426,-4.2359,-4.2841,-4.2986,-4.2986,-4.2986,-4.2986,-4.2986,-4.3363,-4.3915,-4.4493,-4.5045,-4.5623,-4.6175,-4.6301,-4.6301,-4.6301,-4.6301,-4.6301,-4.6301,-4.6301,-4.6301,-4.6301,-4.6301,-4.6301,-4.6301,-4.6301,-4.6301,-4.6301,-4.6301,-4.6301,-4.6301,-4.6301,-4.6301,-4.6301,-4.6301,-4.6301,-4.6301,-4.6301,-4.6301,-4.6301,-4.6301,-4.6301,-4.6301,-4.6301,-4.6301,-4.6301,-4.6301,-4.6301,-4.6301,-4.6301,-4.6301,-2.6189,0.0,0.0,0.0,0.0,0.0,0.0,0.0,0.0,0.0,0.0,0.0,0.0,0.0,0.0,0.0,0.0,-2.5519,0.0,-2.6055,0.0,0.0,0.0,0.0,-3.1676,-3.0685,-3.0947,-3.333,-3.1969,-3.218,-3.4951,-3.5332,-3.5683,-3.6132,-3.5228,-3.468,-3.468,-3.468,-3.468,-3.468,-3.583,-3.6405,-3.6405,-3.6405,-3.6707,-3.7211,-3.7764,-3.8341,-3.8969,-3.9471,-3.9697,-3.9697,-3.9697,-3.9697,-3.9697,-3.9697,-3.9798,-3.9998,-4.0551,-4.1204,-4.1907,-4.271,-4.2986,-4.2986,-4.2986,-4.2986,-4.3011,-4.3162,-4.3614,-4.4166,-4.4719,-4.5271,-4.5824,-4.6225,-4.6301,-4.6301,-4.6301,-4.6301,-4.6301,-4.6301,-4.6301,-4.6301,-4.6301,-4.6301,-4.6301,-4.6301,-4.6301,-4.6301,-4.6301,-4.6301,-4.6301,-4.6301,-4.6301,-4.6301,-4.6301,-4.6301,-4.6301,-4.6301,-4.6301,-4.6301,-4.6301,-4.6301,-4.6301,-4.6301,-4.6301,-4.6301,-4.6301,-4.6301,-4.6301,-4.6301,-4.6301,-4.6301,-2.7706,-2.8825,-2.9603,-2.5753,-2.6063,-2.654,0.0,0.0,-2.5234,0.0,0.0,0.0,0.0,0.0,0.0,0.0,0.0,0.0,0.0,0.0,0.0,0.0,0.0,0.0,-3.1851,-2.9511,-2.917,-3.2288,-3.0491,-3.064,-3.3771,-3.4931,-3.5508,-3.5533,-3.4981,-3.468,-3.468,-3.468,-3.468,-3.468,-3.583,-3.6405,-3.6405,-3.6405,-3.6707,-3.7211,-3.7764,-3.8341,-3.8969,-3.9471,-3.9697,-3.9697,-3.9697,-3.9697,-3.9697,-3.9697,-4.0023,-4.0576,-4.1075,-4.2032,-4.2936,-4.2961,-4.2986,-4.2986,-4.2986,-4.2986,-4.3087,-4.3639,-4.4166,-4.4719,-4.5321,-4.5874,-4.6276,-4.6301,-4.6301,-4.6301,-4.6301,-4.6301,-4.6301,-4.6301,-4.6301,-4.6301,-4.6301,-4.6301,-4.6301,-4.6301,-4.6301,-4.6301,-4.6301,-4.6301,-4.6301,-4.6301,-4.6301,-4.6301,-4.6301,-4.6301,-4.6301,-4.6301,-4.6301,-4.6301,-4.6301,-4.6301,-4.6301,-4.6301,-4.6301,-4.6301,-4.6301,-4.6301,-4.6301,-4.6301,-4.6301,-4.6301,-2.9001,-2.9754,-3.003,-2.7595,-2.7419,-2.7193,-2.4775,0.0,0.0,0.0,0.0,0.0,0.0,0.0,0.0,0.0,0.0,0.0,0.0,0.0,0.0,0.0,0.0,0.0,0.0,-2.9308,-3.0121,-3.1305,-3.034,-3.0943,-3.3746,-3.46,-3.5132,-3.5483,-3.4956,-3.4856,-3.5232,-3.4856,-3.4856,-3.5232,-3.6006,-3.6405,-3.643,-3.6782,-3.7211,-3.7764,-3.8341,-3.8894,-3.9421,-3.9622,-3.9697,-3.9697,-3.9697,-3.9697,-3.9697,-3.9697,-4.0049,-4.0651,-4.1555,-4.2359,-4.2986,-4.2986,-4.2986,-4.2986,-4.2986,-4.2986,-4.3087,-4.3639,-4.4192,-4.4744,-4.5347,-4.5899,-4.6301,-4.6301,-4.6301,-4.6301,-4.6301,-4.6301,-4.6301,-4.6301,-4.6301,-4.6301,-4.6301,-4.6301,-4.6301,-4.6301,-4.6301,-4.6301,-4.6301,-4.6301,-4.6301,-4.6301,-4.6301,-4.6301,-4.6301,-4.6301,-4.6301,-4.6301,-4.6301,-4.6301,-4.6301,-4.6301,-4.6301,-4.6301,-4.6301,-4.6301,-4.6301,-4.6301,-4.6301,-4.6301,-4.6301,-4.6301,-2.9804,-3.0633,-3.1035,-2.9176,-2.9001,-2.8649,-2.6239,-2.6314,-2.6565,0.0,0.0,0.0,0.0,0.0,0.0,0.0,0.0,0.0,0.0,-2.2984,0.0,0.0,0.0,0.0,0.0,-2.8554,-2.9487,-3.1015,-3.0088,-3.061,-3.3144,-3.4198,-3.4831,-3.5182,-3.4856,-3.4931,-3.5483,-3.4956,-3.4956,-3.5508,-3.6107,-3.6405,-3.643,-3.6983,-3.7487,-3.804,-3.8617,-3.917,-3.9697,-3.9697,-3.9697,-3.9697,-3.9697,-3.9697,-3.9722,-3.9923,-4.045,-4.1229,-4.2133,-4.274,-4.2986,-4.2986,-4.2986,-4.2986,-4.2986,-4.3112,-4.3388,-4.394,-4.4493,-4.507,-4.5623,-4.605,-4.6301,-4.6301,-4.6301,-4.6301,-4.6301,-4.6301,-4.6301,-4.6301,-4.6301,-4.6301,-4.6301,-4.6301,-4.6301,-4.6301,-4.6301,-4.6301,-4.6301,-4.6301,-4.6301,-4.6301,-4.6301,-4.6301,-4.6301,-4.6301,-4.6301,-4.6301,-4.6301,-4.6301,-4.6301,-4.6301,-4.6301,-4.6301,-4.6301,-4.6301,-4.6301,-4.6301,-4.6301,-4.6301,-4.6301,-4.6301]},{"header":{"parameterUnit":"m.s-1","parameterCategory":1,"la1":30.6,"la2":29.2853,"lo1":-89.7004,"lo2":-87.6739,"dy":0.0162,"dx":0.0183,"nx":112,"ny":82,"refTime":"2026-03-04T00:00:00:Z","depth":0,"parameterNumber":3,"parameterNumberName":"V-component_of_WINDS"},"data":[0.0,0.0,0.0,0.0,0.0,0.0,0.0,0.0,0.0,0.0,0.0,0.0,0.0,0.0,0.0,0.0,0.0,0.0,0.0,0.0,0.0,0.0,0.0,0.0,0.0,0.0,0.0,0.0,0.0,0.0,0.0,0.0,0.0,0.0,0.0,0.0,0.0,0.0,0.0,0.0,0.0,0.0,0.0,0.0,0.0,0.0,0.0,0.0,0.0,0.0,0.0,0.0,0.0,0.0,0.0,0.0,0.0,0.0,0.0,0.0,0.0,0.0,0.0,0.0,0.0,0.0,0.0,0.0,0.0,0.0,0.0,0.0,0.0,0.0,0.0,0.0,0.0,0.0,0.0,0.0,0.0,0.0,0.0,0.0,0.0,0.0,0.0,0.0,0.0,0.0,3.0424,3.2032,3.591,3.8328,3.8202,3.7971,3.6001,3.1627,0.0,0.0,0.0,0.0,0.0,0.0,0.0,0.0,0.0,0.0,0.0,0.0,0.0,0.0,0.0,0.0,0.0,0.0,0.0,0.0,0.0,0.0,0.0,0.0,0.0,0.0,0.0,0.0,0.0,0.0,0.0,0.0,0.0,0.0,0.0,0.0,0.0,0.0,0.0,0.0,0.0,0.0,0.0,0.0,0.0,0.0,0.0,0.0,0.0,0.0,0.0,0.0,0.0,0.0,0.0,0.0,0.0,0.0,0.0,0.0,0.0,0.0,0.0,0.0,0.0,0.0,0.0,0.0,0.0,0.0,0.0,0.0,0.0,0.0,0.0,0.0,0.0,0.0,0.0,0.0,0.0,0.0,0.0,0.0,0.0,0.0,0.0,0.0,0.0,0.0,0.0,0.0,0.0,0.0,0.0,0.0,0.0,0.0,0.0,0.0,0.0,0.0,0.0,0.0,3.1219,3.5728,3.7963,3.8858,3.8261,3.7069,3.4958,3.177,0.0,0.0,0.0,0.0,0.0,0.0,0.0,0.0,0.0,0.0,0.0,0.0,0.0,0.0,0.0,0.0,0.0,0.0,0.0,0.0,0.0,0.0,0.0,0.0,0.0,0.0,0.0,0.0,0.0,0.0,0.0,0.0,0.0,0.0,0.0,0.0,0.0,0.0,0.0,0.0,0.0,0.0,0.0,0.0,0.0,0.0,0.0,0.0,0.0,0.0,0.0,0.0,0.0,0.0,0.0,0.0,0.0,0.0,0.0,0.0,0.0,0.0,0.0,0.0,0.0,0.0,0.0,0.0,0.0,0.0,0.0,0.0,0.0,0.0,0.0,0.0,0.0,0.0,0.0,0.0,0.0,0.0,0.0,0.0,0.0,0.0,0.0,0.0,0.0,0.0,0.0,0.0,0.0,0.0,0.0,0.0,0.0,0.0,0.0,0.0,0.0,0.0,0.0,3.0483,3.2862,3.7235,3.8659,3.9183,3.8825,3.7433,3.5346,3.2398,3.0988,0.0,0.0,0.0,0.0,0.0,0.0,0.0,0.0,0.0,0.0,0.0,0.0,0.0,0.0,0.0,0.0,0.0,0.0,0.0,0.0,0.0,0.0,0.0,0.0,0.0,0.0,0.0,0.0,0.0,0.0,0.0,0.0,0.0,0.0,0.0,0.0,0.0,0.0,0.0,0.0,0.0,0.0,0.0,0.0,0.0,0.0,0.0,0.0,0.0,0.0,0.0,0.0,0.0,0.0,0.0,0.0,0.0,0.0,0.0,0.0,0.0,0.0,0.0,0.0,0.0,0.0,0.0,0.0,0.0,0.0,0.0,0.0,0.0,0.0,0.0,0.0,0.0,0.0,0.0,0.0,0.0,0.0,0.0,0.0,0.0,0.0,0.0,0.0,0.0,0.0,0.0,0.0,0.0,0.0,0.0,0.0,0.0,0.0,0.0,0.0,0.0,0.0,3.3491,3.475,3.8096,3.8957,3.9315,3.9315,3.7632,3.5479,3.2851,3.0311,0.0,0.0,0.0,0.0,0.0,0.0,0.0,0.0,0.0,0.0,0.0,0.0,0.0,0.0,0.0,0.0,0.0,0.0,0.0,0.0,0.0,0.0,0.0,0.0,0.0,0.0,0.0,0.0,0.0,0.0,0.0,0.0,0.0,0.0,0.0,0.0,0.0,0.0,0.0,0.0,0.0,0.0,0.0,0.0,0.0,0.0,0.0,0.0,0.0,0.0,0.0,0.0,0.0,0.0,0.0,0.0,0.0,0.0,0.0,0.0,0.0,0.0,0.0,0.0,0.0,0.0,0.0,0.0,0.0,0.0,0.0,0.0,0.0,0.0,0.0,0.0,0.0,0.0,0.0,0.0,0.0,0.0,0.0,0.0,0.0,0.0,0.0,0.0,0.0,0.0,0.0,0.0,0.0,0.0,0.0,0.0,0.0,0.0,0.0,0.0,0.0,0.0,3.4518,3.6638,3.8984,3.9282,3.9315,3.9315,3.6671,3.4386,3.2818,2.9403,0.0,0.0,0.0,0.0,0.0,0.0,0.0,0.0,0.0,0.0,0.0,0.0,0.0,0.0,0.0,0.0,0.0,0.0,0.0,0.0,0.0,0.0,0.0,0.0,0.0,0.0,0.0,0.0,0.0,0.0,0.0,0.0,0.0,0.0,0.0,0.0,0.0,0.0,0.0,0.0,0.0,0.0,0.0,0.0,0.0,0.0,0.0,0.0,0.0,0.0,0.0,0.0,0.0,0.0,0.0,0.0,0.0,0.0,0.0,0.0,0.0,0.0,0.0,0.0,0.0,0.0,0.0,0.0,0.0,0.0,0.0,0.0,0.0,0.0,0.0,0.0,0.0,0.0,0.0,0.0,0.0,0.0,0.0,0.0,0.0,0.0,0.0,0.0,0.0,0.0,0.0,0.0,0.0,0.0,0.0,0.0,0.0,0.0,0.0,0.0,0.0,0.0,3.422,3.634,3.9017,3.9315,3.9315,3.9315,3.7433,3.5247,3.2851,0.0,0.0,0.0,0.0,0.0,0.0,0.0,0.0,0.0,0.0,0.0,0.0,0.0,0.0,0.0,0.0,0.0,0.0,0.0,0.0,0.0,0.0,0.0,0.0,0.0,0.0,0.0,0.0,0.0,0.0,0.0,0.0,0.0,0.0,0.0,0.0,0.0,0.0,0.0,0.0,0.0,0.0,0.0,0.0,0.0,0.0,0.0,0.0,0.0,0.0,0.0,0.0,0.0,0.0,0.0,0.0,0.0,0.0,0.0,0.0,0.0,0.0,0.0,0.0,0.0,0.0,0.0,0.0,0.0,0.0,0.0,0.0,0.0,0.0,0.0,0.0,0.0,0.0,0.0,0.0,0.0,0.0,0.0,0.0,0.0,0.0,0.0,0.0,0.0,0.0,0.0,0.0,0.0,0.0,0.0,0.0,0.0,0.0,0.0,0.0,0.0,0.0,3.2221,3.4386,3.6539,3.905,3.9315,3.9315,3.9315,3.75,3.5346,3.2851,0.0,0.0,0.0,0.0,0.0,0.0,0.0,0.0,0.0,0.0,0.0,0.0,0.0,0.0,0.0,0.0,0.0,0.0,0.0,0.0,0.0,0.0,0.0,0.0,0.0,0.0,0.0,0.0,0.0,0.0,0.0,0.0,0.0,0.0,0.0,0.0,0.0,0.0,0.0,0.0,0.0,0.0,0.0,0.0,0.0,0.0,0.0,0.0,0.0,0.0,0.0,0.0,0.0,0.0,0.0,0.0,0.0,0.0,0.0,0.0,0.0,0.0,0.0,0.0,0.0,0.0,0.0,0.0,0.0,0.0,0.0,0.0,0.0,0.0,0.0,0.0,0.0,0.0,0.0,0.0,0.0,0.0,0.0,0.0,0.0,0.0,0.0,0.0,0.0,0.0,0.0,0.0,0.0,0.0,0.0,0.0,0.0,0.0,0.0,0.0,0.0,0.0,3.2354,3.528,3.7665,3.9149,3.9315,3.9315,3.9315,3.6605,3.4286,0.0,0.0,0.0,0.0,0.0,0.0,0.0,0.0,0.0,0.0,0.0,0.0,0.0,0.0,0.0,0.0,0.0,0.0,0.0,0.0,0.0,0.0,0.0,0.0,0.0,0.0,0.0,0.0,0.0,0.0,0.0,0.0,0.0,0.0,0.0,0.0,0.0,0.0,0.0,0.0,0.0,0.0,0.0,0.0,0.0,0.0,0.0,0.0,0.0,0.0,0.0,0.0,0.0,0.0,0.0,0.0,0.0,0.0,0.0,0.0,0.0,0.0,0.0,0.0,0.0,0.0,0.0,0.0,0.0,0.0,0.0,0.0,0.0,0.0,0.0,0.0,0.0,0.0,0.0,0.0,0.0,0.0,0.0,0.0,0.0,0.0,0.0,0.0,0.0,0.0,0.0,0.0,0.0,0.0,0.0,0.0,0.0,0.0,0.0,0.0,0.0,0.0,0.0,3.2354,3.528,3.7665,3.9149,3.9315,3.9315,3.9315,3.7533,3.5379,3.2851,0.0,0.0,0.0,0.0,0.0,0.0,0.0,0.0,0.0,0.0,0.0,0.0,0.0,0.0,0.0,0.0,0.0,0.0,0.0,0.0,0.0,0.0,0.0,0.0,0.0,0.0,0.0,0.0,0.0,0.0,0.0,0.0,0.0,0.0,0.0,0.0,0.0,0.0,0.0,0.0,0.0,0.0,0.0,0.0,0.0,0.0,0.0,0.0,0.0,0.0,0.0,0.0,0.0,0.0,0.0,0.0,0.0,0.0,0.0,0.0,0.0,0.0,0.0,0.0,0.0,0.0,0.0,0.0,0.0,0.0,0.0,0.0,0.0,0.0,0.0,0.0,0.0,0.0,0.0,0.0,0.0,0.0,0.0,0.0,0.0,0.0,0.0,0.0,0.0,0.0,0.0,0.0,0.0,0.0,0.0,0.0,0.0,0.0,0.0,0.0,0.0,0.0,3.2354,3.528,3.7665,3.9149,3.9315,3.9315,3.9315,3.793,3.5843,3.2884,0.0,0.0,0.0,0.0,0.0,0.0,0.0,0.0,0.0,0.0,0.0,0.0,0.0,0.0,0.0,0.0,0.0,0.0,0.0,0.0,0.0,0.0,0.0,0.0,0.0,0.0,0.0,0.0,0.0,0.0,0.0,0.0,0.0,0.0,0.0,0.0,0.0,0.0,0.0,0.0,0.0,0.0,0.0,0.0,0.0,0.0,0.0,0.0,0.0,0.0,0.0,0.0,0.0,0.0,0.0,0.0,0.0,0.0,0.0,0.0,0.0,0.0,0.0,0.0,0.0,0.0,0.0,0.0,0.0,0.0,0.0,0.0,0.0,0.0,0.0,0.0,0.0,0.0,0.0,0.0,0.0,0.0,0.0,0.0,0.0,0.0,0.0,0.0,0.0,0.0,0.0,0.0,0.0,0.0,0.0,0.0,0.0,0.0,0.0,0.0,0.0,0.0,3.2354,3.537,3.7757,3.9149,3.9315,3.9315,3.9315,3.793,3.5876,3.2984,0.0,0.0,0.0,0.0,0.0,0.0,0.0,0.0,0.0,0.0,0.0,0.0,0.0,0.0,0.0,0.0,0.0,0.0,0.0,0.0,0.0,0.0,0.0,0.0,0.0,0.0,0.0,0.0,0.0,0.0,0.0,0.0,0.0,0.0,0.0,0.0,0.0,0.0,0.0,0.0,0.0,0.0,0.0,0.0,0.0,0.0,0.0,0.0,0.0,0.0,0.0,0.0,0.0,0.0,0.0,0.0,0.0,0.0,0.0,0.0,3.231,0.0,0.0,0.0,0.0,0.0,0.0,0.0,0.0,0.0,0.0,0.0,0.0,0.0,0.0,0.0,0.0,0.0,0.0,0.0,0.0,0.0,0.0,0.0,0.0,0.0,0.0,0.0,0.0,0.0,0.0,0.0,0.0,0.0,0.0,0.0,0.0,0.0,0.0,0.0,0.0,0.0,3.2486,3.5874,3.8425,3.9216,3.9395,3.9422,3.9315,3.793,3.6108,3.3723,3.0675,0.0,0.0,0.0,0.0,0.0,0.0,0.0,0.0,0.0,0.0,0.0,0.0,0.0,0.0,0.0,0.0,0.0,0.0,0.0,0.0,0.0,0.0,0.0,0.0,0.0,0.0,0.0,0.0,0.0,0.0,0.0,0.0,0.0,0.0,0.0,0.0,0.0,0.0,0.0,0.0,0.0,0.0,0.0,0.0,0.0,0.0,0.0,0.0,0.0,0.0,0.0,0.0,0.0,0.0,0.0,0.0,0.0,0.0,0.0,0.0,3.4319,0.0,0.0,0.0,0.0,0.0,0.0,0.0,0.0,0.0,0.0,0.0,0.0,0.0,0.0,0.0,0.0,0.0,0.0,0.0,0.0,0.0,0.0,0.0,0.0,0.0,0.0,0.0,0.0,0.0,0.0,0.0,0.0,0.0,0.0,0.0,0.0,0.0,0.0,0.0,0.0,3.3673,3.6561,3.8802,3.9821,3.9621,3.9395,3.9315,3.8261,3.6704,3.4452,3.157,0.0,0.0,0.0,0.0,0.0,0.0,0.0,0.0,0.0,0.0,0.0,0.0,0.0,0.0,0.0,0.0,0.0,0.0,0.0,0.0,0.0,0.0,0.0,0.0,0.0,0.0,0.0,0.0,0.0,0.0,0.0,0.0,0.0,0.0,0.0,0.0,0.0,0.0,0.0,0.0,0.0,0.0,0.0,0.0,0.0,0.0,0.0,0.0,0.0,0.0,0.0,0.0,0.0,3.8472,3.9269,4.0298,4.054,4.1211,4.2033,3.9076,3.8446,3.9282,3.6704,0.0,0.0,0.0,0.0,0.0,0.0,0.0,0.0,0.0,0.0,0.0,0.0,0.0,0.0,0.0,0.0,0.0,0.0,0.0,0.0,0.0,0.0,3.6266,3.6155,3.6592,3.5954,3.2047,0.0,0.0,0.0,0.0,0.0,0.0,0.0,0.0,0.0,0.0,0.0,3.5124,3.746,3.9347,4.0681,4.0074,3.9588,3.9561,3.8771,3.7443,3.5485,3.273,3.0572,0.0,0.0,0.0,0.0,0.0,0.0,0.0,0.0,0.0,0.0,0.0,0.0,0.0,0.0,0.0,0.0,0.0,0.0,0.0,0.0,0.0,0.0,0.0,0.0,0.0,0.0,0.0,0.0,0.0,0.0,0.0,0.0,2.9496,3.0853,0.0,0.0,0.0,0.0,0.0,0.0,0.0,0.0,0.0,0.0,0.0,0.0,0.0,3.6645,3.8053,3.9979,4.109,4.1385,4.3901,4.4783,4.4264,4.4927,4.5296,4.5463,4.4997,0.0,4.0177,3.9149,0.0,0.0,0.0,0.0,0.0,0.0,0.0,0.0,0.0,0.0,0.0,0.0,0.0,0.0,0.0,0.0,0.0,0.0,0.0,0.0,0.0,0.0,4.012,3.9581,3.9564,3.9125,0.0,3.4285,3.1704,3.0644,2.947,0.0,0.0,0.0,0.0,0.0,0.0,0.0,3.5951,3.8833,4.0915,4.1647,4.1131,4.0755,4.0622,3.9358,3.8154,3.7218,3.5,3.3283,3.234,2.9694,0.0,0.0,0.0,0.0,0.0,0.0,0.0,0.0,0.0,0.0,0.0,0.0,0.0,0.0,0.0,0.0,0.0,0.0,0.0,0.0,0.0,0.0,0.0,0.0,0.0,0.0,0.0,0.0,0.0,2.9297,3.0886,3.1515,3.1404,3.0775,0.0,0.0,0.0,0.0,0.0,0.0,0.0,0.0,0.0,3.8246,3.9528,4.0661,4.1741,4.3489,4.4394,4.4428,4.6106,4.6946,4.6982,4.7412,4.7546,4.7452,4.7546,4.6377,4.419,4.2189,4.0554,3.912,0.0,0.0,0.0,0.0,3.7778,3.7978,4.0139,4.0306,3.9536,3.9084,0.0,0.0,0.0,0.0,0.0,0.0,0.0,3.7336,3.8226,4.0095,4.1767,4.1922,4.1955,4.1786,4.111,3.8965,3.6329,0.0,3.266,3.1651,2.8818,0.0,0.0,0.0,0.0,3.5418,3.8115,3.9943,4.1432,4.2522,4.1587,4.0862,4.0782,3.9811,3.8874,3.8171,3.6822,3.5525,3.4286,3.2278,3.0369,0.0,0.0,0.0,0.0,0.0,0.0,0.0,0.0,0.0,0.0,0.0,0.0,0.0,0.0,0.0,0.0,0.0,0.0,0.0,0.0,0.0,0.0,0.0,0.0,0.0,0.0,0.0,0.0,3.1383,3.2508,3.2707,3.3547,3.3228,0.0,0.0,0.0,0.0,0.0,0.0,3.6645,3.8203,3.9975,4.193,4.3099,4.414,4.5052,4.6159,4.6797,4.6999,4.7536,4.8107,4.8578,4.8738,4.8707,4.8578,4.8738,4.8435,4.7603,4.4959,4.3422,4.2551,4.0709,3.9662,3.9394,4.1064,4.1493,4.1587,4.4375,4.4611,4.3569,4.283,4.1345,3.9396,3.6999,0.0,0.0,0.0,0.0,3.9277,4.0965,4.2267,4.3369,4.4113,4.4147,4.3944,4.3775,4.2692,4.0603,0.0,3.5981,3.5105,3.1853,0.0,0.0,0.0,0.0,3.7141,4.002,4.1092,4.2119,4.3434,4.2314,4.1392,4.1218,4.0512,3.9773,3.9009,3.8295,3.7364,3.6233,3.4611,3.2832,3.0945,0.0,0.0,0.0,0.0,0.0,0.0,0.0,0.0,0.0,0.0,0.0,0.0,0.0,0.0,0.0,0.0,0.0,0.0,0.0,0.0,0.0,0.0,0.0,0.0,0.0,0.0,0.0,0.0,0.0,3.5711,3.7161,0.0,0.0,0.0,0.0,3.5069,3.7138,3.9017,4.0433,4.2112,4.3682,4.5231,4.5448,4.6249,4.7703,4.7804,4.8176,4.8852,4.8886,4.8892,4.8769,4.8769,4.8769,4.8769,4.8769,4.8829,4.8754,4.6898,4.5701,4.4964,4.4126,4.382,4.3786,4.4034,4.4562,4.526,4.5578,4.564,4.5776,4.7128,4.5573,4.3003,4.2151,4.0426,0.0,0.0,4.1474,4.2591,4.4857,4.5466,4.5703,4.6447,4.6075,4.5399,4.4688,4.3876,4.2598,0.0,3.871,3.7256,3.56,0.0,3.4551,3.5261,3.6749,3.8575,4.0865,4.2395,4.3578,4.4418,4.3747,4.3003,4.2286,4.155,4.0806,4.0054,3.9343,3.883,3.863,3.6578,3.4981,3.4008,3.1261,0.0,0.0,0.0,0.0,0.0,0.0,0.0,0.0,0.0,0.0,0.0,0.0,0.0,0.0,0.0,0.0,0.0,0.0,0.0,0.0,0.0,0.0,0.0,0.0,0.0,0.0,0.0,0.0,3.8905,3.9592,0.0,3.72,3.7776,3.843,3.8925,4.1096,4.284,4.3906,4.5448,4.6494,4.7001,4.7567,4.7868,4.7906,4.8376,4.8511,4.8308,4.8781,4.8987,4.8925,4.8925,4.8925,4.8925,4.8925,4.8956,4.8951,4.8287,4.7585,4.6844,4.6132,4.5828,4.5896,4.6397,4.6798,4.7132,4.7635,4.753,4.7027,4.6616,4.5771,4.4756,4.3978,4.3538,4.3436,4.3944,4.4621,4.5365,4.621,4.6413,4.6481,4.6718,4.6244,4.5635,4.5365,4.4688,4.3775,4.2462,4.1009,3.9411,3.7415,3.7246,3.7313,3.711,3.8362,4.0121,4.2354,4.3071,4.3707,4.4513,4.3876,4.3098,4.2354,4.161,4.0899,4.0146,3.9876,3.9478,3.8956,3.7729,3.6455,3.5116,3.317,3.0962,0.0,0.0,0.0,0.0,0.0,0.0,0.0,0.0,0.0,0.0,0.0,0.0,0.0,0.0,0.0,0.0,0.0,0.0,0.0,0.0,0.0,0.0,0.0,0.0,0.0,3.6944,3.9358,4.0641,4.1936,4.199,4.0094,4.1264,4.2166,4.2186,4.4305,4.5718,4.6041,4.7259,4.8007,4.8244,4.8511,4.8511,4.8274,4.8781,4.8748,4.8277,4.8781,4.9018,4.9018,4.9018,4.9018,4.9018,4.9018,4.9018,4.9018,4.9018,4.8714,4.824,4.7733,4.753,4.7597,4.8105,4.8274,4.8342,4.8849,4.868,4.8139,4.7124,4.665,4.6346,4.5872,4.5872,4.6109,4.638,4.6786,4.7225,4.7462,4.753,4.753,4.753,4.6989,4.638,4.6109,4.55,4.4722,4.3944,4.2794,4.1407,3.9681,3.9783,3.9952,3.9445,4.0426,4.1745,4.3206,4.3639,4.4012,4.4547,4.4113,4.3403,4.2388,4.161,4.0764,3.9808,3.9503,3.914,3.8633,3.7922,3.7043,3.6028,3.4303,3.2205,2.9754,0.0,0.0,0.0,0.0,0.0,0.0,0.0,0.0,0.0,0.0,0.0,0.0,0.0,0.0,0.0,0.0,0.0,0.0,0.0,0.0,0.0,0.0,0.0,3.5208,3.9149,4.1707,4.1037,4.4236,4.5399,4.2591,4.5037,4.621,4.4784,4.6718,4.7631,4.6887,4.7564,4.8244,4.8984,4.8308,4.8277,4.8984,4.9018,4.9018,4.9018,4.9018,4.9018,4.9018,4.9018,4.9018,4.9018,4.9018,4.9018,4.9018,4.9018,4.9018,4.9018,4.9018,4.9018,4.9018,4.9018,4.9018,4.9018,4.9018,4.9018,4.9018,4.9018,4.8545,4.7906,4.7906,4.7428,4.7022,4.7733,4.7906,4.8075,4.8815,4.9018,4.9018,4.9018,4.8443,4.7703,4.6989,4.6244,4.55,4.4784,4.3978,4.32,4.2455,4.232,4.232,4.232,4.2963,0.0,4.3409,4.4113,4.4615,4.4615,4.4615,4.4005,4.2422,4.161,4.0561,3.9073,3.8294,3.7922,3.7922,3.7178,3.6795,3.6761,3.4539,3.2679,3.119,0.0,0.0,0.0,0.0,0.0,0.0,0.0,0.0,0.0,0.0,0.0,0.0,0.0,0.0,0.0,0.0,0.0,0.0,0.0,0.0,0.0,3.6256,3.9244,3.9421,4.1439,4.3479,4.4946,4.5616,4.5612,4.4801,4.6007,4.6616,4.621,4.7767,4.8612,4.8409,4.8578,4.8815,4.8984,4.8815,4.8815,4.9018,4.9018,4.9018,4.9018,4.9018,4.9018,4.9018,4.9018,4.9018,4.9018,4.9018,4.9018,4.9018,4.9018,4.9018,4.9018,4.9018,4.9018,4.9018,4.9018,4.9018,4.9018,4.9018,4.9018,4.9018,4.9018,4.8883,4.8714,4.8714,4.8545,4.8443,4.8646,4.8714,4.8748,4.8951,4.9018,4.9018,4.9018,4.8443,4.7838,4.7635,4.6616,4.5635,4.5432,4.479,4.4012,4.3234,4.3098,4.3098,4.3098,4.3274,0.0,4.4181,4.4479,4.4615,4.4615,4.4615,4.4005,4.2422,4.161,4.0561,3.9073,3.8294,3.7922,3.7922,3.7178,3.6524,3.596,3.4269,3.2679,0.0,0.0,0.0,0.0,0.0,0.0,0.0,0.0,0.0,0.0,0.0,0.0,0.0,0.0,0.0,0.0,0.0,0.0,0.0,0.0,0.0,0.0,3.9303,4.2064,4.3314,4.4232,4.5274,4.665,4.6684,4.6616,4.6616,4.7293,4.7597,4.7293,4.8342,4.8883,4.8578,4.8849,4.9018,4.9018,4.9018,4.9018,4.9018,4.9018,4.9018,4.9018,4.9323,4.9458,4.9458,4.9796,4.9932,4.9932,4.9932,4.9932,4.9932,4.9932,4.9932,4.9864,0.0,0.0,0.0,0.0,4.9018,4.9018,4.9018,4.9018,4.9018,4.9018,4.9018,4.9018,4.9018,4.9018,4.9018,4.9018,4.9018,4.9018,4.9018,4.9018,4.9018,4.9018,4.868,4.8277,4.7973,4.7259,4.6447,4.5838,4.5365,0.0,4.4045,4.391,4.391,4.391,4.391,4.4079,4.4547,4.4615,4.4615,4.4615,4.4615,4.4079,4.2861,4.1813,0.0,0.0,0.0,3.728,3.6952,3.6535,0.0,0.0,0.0,0.0,0.0,0.0,0.0,0.0,3.2801,3.253,0.0,0.0,0.0,0.0,0.0,0.0,0.0,0.0,0.0,0.0,0.0,0.0,0.0,0.0,0.0,0.0,4.2098,4.3741,4.6413,4.6786,4.6786,4.6786,4.7394,4.78,4.78,4.8443,4.8612,4.7939,4.8578,4.8714,4.8041,4.8646,0.0,0.0,0.0,4.9018,4.9018,4.9086,4.912,4.912,4.9864,5.0202,5.0236,5.0913,5.1185,5.1185,5.1185,5.1185,5.1185,5.1185,5.1185,5.1082,4.9763,4.9255,4.9255,4.9255,4.9187,4.912,4.912,0.0,0.0,4.9018,4.9018,4.9018,4.9018,4.9018,4.9018,4.9018,4.9018,4.9018,4.9018,4.9018,4.9018,4.9018,4.9018,4.8815,4.8173,4.7939,4.75,4.621,4.5805,4.55,4.4852,4.4682,4.4615,4.4615,4.4615,4.4615,4.4615,4.4615,4.4615,4.4615,4.4615,0.0,4.3443,4.2117,4.0696,3.9208,3.7743,3.6603,3.587,3.587,3.6231,3.7032,3.7066,3.7405,3.8159,3.8159,3.8531,3.914,3.5001,3.4527,0.0,0.0,0.0,0.0,0.0,0.0,0.0,0.0,0.0,0.0,0.0,0.0,0.0,0.0,0.0,4.1687,4.4193,4.6109,4.6718,4.6786,4.6786,4.6786,4.6921,4.7022,4.7022,4.7699,4.8041,4.7906,4.8578,4.8951,4.8815,4.8917,4.9018,4.9018,4.9018,4.9018,4.9018,4.9593,4.9864,4.9898,5.0642,0.0,5.1014,5.1117,5.1185,5.1185,5.1185,5.1185,5.1185,5.1185,5.1185,5.1183,5.0913,5.0745,5.0745,5.0745,5.0405,4.9864,4.9864,4.9492,4.9018,4.9018,4.9018,4.9018,4.9018,4.9018,0.0,4.9018,4.9018,4.9018,4.9018,4.9018,4.9018,4.9018,4.9018,4.8951,4.8815,4.8342,4.7804,4.75,4.6515,4.5669,4.55,4.4993,4.4615,4.4615,4.4615,4.4615,4.4615,4.4615,4.4615,4.4615,4.4615,4.4248,4.3443,4.2591,4.1441,3.9977,3.8497,3.7618,3.7483,3.7483,3.7821,3.8565,3.8565,3.8962,3.9673,3.9681,4.0028,4.073,3.8667,3.8328,0.0,0.0,0.0,0.0,0.0,0.0,0.0,0.0,0.0,0.0,0.0,3.5281,3.7995,0.0,4.2173,4.4165,4.6114,4.7225,4.6853,4.7124,4.7225,4.6819,4.7124,4.7361,4.7361,4.8037,4.8477,4.8477,4.8815,4.9018,4.9018,4.9018,4.9018,4.9018,4.9018,4.9187,4.956,4.9898,5.027,5.0676,5.142,5.1758,5.1758,5.2164,5.2367,5.2367,5.2367,5.2367,5.2367,5.2367,5.2367,5.2367,5.2367,5.1894,5.1185,5.1185,5.098,5.0642,5.0642,5.0405,5.0033,4.9661,4.956,4.9492,4.912,4.9018,4.9018,4.9018,4.9018,4.9018,4.9018,4.9018,4.9018,4.9018,4.9018,4.9018,4.9018,4.8714,4.8342,4.7973,4.7297,4.6684,4.6312,4.5635,4.5026,4.4682,4.4615,4.4615,4.4615,4.4615,4.4615,4.4615,4.4615,4.4445,4.4045,4.2963,4.1813,4.0696,3.9614,3.9005,3.9005,3.9005,3.9343,4.0087,4.0087,4.046,4.1196,4.1204,4.1576,4.2286,4.1542,4.1407,0.0,0.0,0.0,0.0,0.0,0.0,0.0,3.2,3.256,3.5407,3.6266,3.7734,4.1598,4.2769,4.4013,4.6355,4.7398,4.7635,4.6887,4.7428,4.7631,4.6887,4.7462,4.7939,4.8075,4.8646,4.9018,4.9018,4.9018,4.9018,4.9018,4.9018,4.9018,4.9018,4.9154,4.9492,5.0067,5.0371,5.0811,5.142,5.2164,5.2536,5.257,5.3213,5.3518,5.3518,5.3518,5.3518,5.3518,5.3518,5.3518,5.3518,5.3518,5.2739,5.1657,5.1657,5.1555,5.1388,5.1388,5.132,5.1083,5.0507,5.0304,5.0168,4.9424,4.9221,4.9187,4.9052,4.9018,4.9018,4.9018,4.9018,4.9018,4.9018,4.9018,4.9018,4.9018,4.9018,4.8815,4.824,4.7973,4.7733,4.7124,4.6413,4.5669,4.4919,4.4716,4.4615,4.4615,4.4615,4.4615,4.4615,4.4615,4.4615,4.4615,4.3301,4.2252,4.1677,4.0933,4.0527,4.0519,4.0527,4.0874,4.161,4.1644,4.2016,4.2753,4.2753,4.3064,4.3639,4.3781,4.3775,3.0858,2.8978,2.8893,3.2342,3.2332,3.2681,0.0,3.7279,3.6988,3.9307,4.0859,4.2141,4.3414,4.538,4.6767,4.6548,4.7275,4.7635,4.6887,4.7428,4.7631,4.6887,4.7462,4.8173,4.8815,4.8951,4.9018,4.9018,4.9018,4.9018,4.9018,4.9018,4.9018,4.9018,4.9627,4.9999,5.0101,5.1386,5.2097,5.2198,5.2976,5.3382,5.3382,5.345,5.3518,5.3518,5.3518,5.3518,5.3518,5.3518,5.3518,5.3518,5.3518,5.3382,5.3247,5.3247,5.2807,5.2198,5.2198,5.1758,5.1217,5.1083,5.1082,5.0947,5.0202,4.9965,4.983,4.9187,4.9018,4.9018,4.9018,4.9018,4.9018,4.9018,4.9018,4.9018,4.9018,4.9018,4.8984,4.8883,4.8376,4.7872,4.777,4.7158,4.6413,4.5703,4.5026,4.4615,4.4615,4.4615,4.4615,4.4615,4.4615,4.4615,4.4615,4.3775,4.324,4.3139,4.2455,4.2049,4.2049,4.2049,4.2388,4.3139,4.3139,4.3538,4.4344,4.4344,4.4412,4.4479,4.5128,4.5094,3.3501,3.3062,3.3291,3.3234,3.4357,3.5896,3.7671,3.8229,3.8885,4.0608,4.2582,4.4027,4.4367,4.6117,4.7018,4.5531,4.6739,4.736,4.5787,4.6932,4.7493,4.6349,4.7198,4.7853,4.7719,4.8096,4.8171,4.7737,4.8513,4.8829,4.8386,4.8386,4.8746,4.9627,4.9516,5.0087,5.1386,5.1995,5.2536,5.301,5.3348,5.3518,5.3518,5.3518,5.3518,5.3518,5.3518,5.3518,5.3518,5.3518,5.3518,5.3518,5.3518,5.3518,5.3518,5.3518,5.3281,5.301,5.301,5.2807,5.2469,5.1995,5.186,5.1725,5.098,5.0744,5.0676,5.0371,4.9965,4.9627,4.9627,4.9323,4.9018,4.9018,4.9018,4.9018,4.9018,4.9018,4.9018,4.9018,4.8748,4.8545,4.8545,4.7936,4.7361,4.7056,4.6346,4.5703,4.5297,4.5229,4.506,4.4649,4.4615,4.4615,4.4615,4.4282,4.4079,4.4079,4.3809,4.3667,4.3667,4.3667,4.3775,4.4079,4.4079,4.4485,4.5229,4.5229,4.5466,4.5901,4.621,4.6177,3.5075,3.5241,3.5498,3.4542,3.6263,3.8182,3.809,3.9029,4.0229,4.1447,4.3038,4.4399,4.4925,4.6028,4.6352,4.4886,4.6257,4.6815,4.4724,4.6094,4.6815,4.5373,4.6094,4.6519,4.5963,4.6939,4.7564,4.7439,4.7999,4.8258,4.7934,4.7737,4.8167,4.9456,4.9127,4.9957,5.1967,5.2203,5.2708,5.3518,5.3518,5.3518,5.3518,5.3518,5.3382,5.3178,5.3382,5.3348,5.3212,5.3382,5.3518,5.3518,5.3518,5.3518,5.3518,5.3518,5.3518,5.3518,5.3518,5.3518,5.3416,5.2807,5.2638,5.2503,5.1725,5.1522,5.1488,5.1285,5.0845,5.0405,5.0405,4.9864,4.9289,4.9289,4.9154,4.9018,4.9018,4.9018,4.9018,4.9018,4.9018,4.9018,4.9018,4.8578,4.8176,4.8176,4.7767,4.7056,4.6109,4.6007,4.5703,4.4959,4.4919,4.4818,4.4615,4.4615,4.4615,4.4615,4.4615,4.4615,4.4615,4.4818,4.4919,4.4919,4.5122,4.5466,4.6007,4.6007,4.6278,4.6786,4.6989,4.709,3.4011,3.2935,3.2559,3.6946,3.8123,3.856,3.9992,4.0843,4.156,4.2227,4.2489,4.3212,4.5293,4.5287,4.5062,4.5244,4.5989,4.588,4.401,4.495,4.534,4.3913,4.3782,4.3783,4.3714,4.561,4.7406,4.8829,4.7638,4.7171,4.7836,4.7204,4.7151,4.7864,4.8512,4.9619,5.1115,5.191,5.2696,5.3518,5.3518,5.3518,5.3518,5.3518,5.3041,5.2378,5.3178,5.3041,5.2378,5.3178,5.3518,5.3518,5.3518,5.3518,5.3518,5.3518,5.3518,5.3518,5.3518,5.3518,5.3518,5.3484,5.345,5.3315,5.2503,5.2266,5.2131,5.142,5.1151,5.1183,5.1183,5.0608,5.0067,5.0067,4.9526,4.9018,4.9018,4.9018,4.9018,4.9018,4.9018,4.9018,4.9018,4.8984,4.8984,4.8984,4.8951,4.8409,4.6955,4.6752,4.6481,4.5737,4.5669,4.5365,4.4682,4.4615,4.4615,4.4615,4.4615,4.4615,4.4615,4.5297,4.5669,4.5669,4.638,4.6718,4.6752,4.6752,4.6786,4.6819,4.753,4.7872,3.355,3.484,3.6415,3.7841,3.961,4.0974,4.1061,4.1955,4.2609,4.1873,4.2921,4.3716,4.2957,4.3647,4.4002,4.3078,4.3674,4.4071,4.3497,4.3889,4.3904,4.3078,4.3778,4.4175,4.3709,4.4709,4.5588,4.6032,4.6518,4.6692,4.6448,4.6202,4.6817,4.8476,4.8331,4.9116,5.1088,5.1382,5.1915,5.2729,5.2729,5.2729,5.2694,5.2131,5.1769,5.1516,5.2343,5.2555,5.2343,5.3178,5.3518,5.3518,5.3518,5.3518,5.3518,5.3518,5.3518,5.3518,5.3518,5.3518,5.3518,5.3518,5.3518,5.345,5.3179,5.3112,5.3044,5.2807,5.2334,5.1928,5.1928,5.1386,5.071,5.0202,4.9898,4.9593,4.912,4.9018,4.9018,4.9018,4.9018,4.9018,4.9018,4.9018,4.9018,4.9018,4.8578,4.8075,4.7597,4.709,4.6684,4.6447,4.6413,4.6312,4.6075,4.6041,4.6041,4.6041,4.6041,4.6041,4.6041,4.6278,4.6413,4.6413,4.665,4.7022,4.753,4.753,4.78,4.8274,4.8511,4.8646,3.4789,3.6594,3.836,3.9409,4.0863,4.1984,4.1806,4.2251,4.2568,4.1858,4.2334,4.2535,4.162,4.1775,4.1942,4.1754,4.2032,4.2294,4.2456,4.252,4.2421,4.2088,4.2607,4.3149,4.3533,4.3665,4.418,4.5311,4.5769,4.5913,4.5697,4.5442,4.605,4.7675,4.7511,4.832,5.0235,5.0524,5.107,5.1878,5.1878,5.1878,5.1842,5.1331,5.0957,5.0729,5.1549,5.1696,5.1512,5.2307,5.2834,5.3041,5.3041,5.3246,5.3484,5.3178,5.3041,5.3109,5.3382,5.3518,5.3518,5.3518,5.3518,5.3518,5.3518,5.3518,5.3518,5.3518,5.3145,5.2739,5.2739,5.2164,5.1488,5.1014,5.0676,5.0304,4.956,4.939,4.9323,4.9052,4.9018,4.9018,4.9018,4.9018,4.9018,4.9018,4.8612,4.8308,4.8308,4.7868,4.7496,4.7225,4.7192,4.709,4.6819,4.6786,4.6786,4.6786,4.6786,4.6786,4.6786,4.7056,4.7192,4.7192,4.7462,4.7834,4.8308,4.8308,4.8545,4.9018,4.9018,4.9018,3.7391,3.8068,3.8417,4.1607,4.194,4.1662,4.2261,4.1931,4.1602,4.2081,4.0636,3.9685,4.0988,3.9646,3.9008,4.1264,4.1076,4.0794,4.1037,4.1043,4.1013,4.1013,4.0466,4.0933,4.3043,4.2552,4.3376,4.6421,4.54,4.488,4.5588,4.4955,4.488,4.5557,4.6234,4.7238,4.8685,4.9481,5.0229,5.1032,5.1032,5.1032,5.1032,5.0995,5.0538,4.9829,5.0653,5.0576,4.9947,5.0767,5.1516,5.2236,5.2236,5.2729,5.328,5.252,5.2236,5.2343,5.3109,5.3382,5.3416,5.3416,5.3484,5.3518,5.3518,5.3518,5.3518,5.3518,5.3518,5.3518,5.3518,5.2942,5.2367,5.23,5.1792,5.1048,5.0304,5.0135,4.9932,4.9187,4.9018,4.9018,4.9018,4.9018,4.9018,4.9018,4.9018,4.9018,4.9018,4.9018,4.8748,4.8007,4.7939,4.7665,4.6955,4.6921,4.6921,4.6921,4.6921,4.6921,4.6921,4.7597,4.7939,4.7939,4.8646,4.9018,4.9018,4.9018,4.9018,4.9018,4.9018,4.9018,3.7282,3.9343,4.134,4.219,4.2617,4.2761,4.247,4.2261,4.1632,3.9805,3.8601,3.7593,3.6504,3.6673,3.7477,3.9013,3.9956,4.0905,4.2085,4.1398,4.0837,4.0982,4.1286,4.1717,4.2271,4.3024,4.3899,4.4849,4.461,4.4534,4.4874,4.4572,4.4688,4.5353,4.5908,4.6549,4.7466,4.8724,4.9559,4.9923,4.9923,4.9923,4.9884,4.9278,4.8821,4.8521,4.9519,4.9805,4.9647,5.0691,5.122,5.1406,5.1406,5.1516,5.1663,5.148,5.1406,5.1443,5.1627,5.2095,5.2624,5.2624,5.3007,5.3518,5.3518,5.3518,5.3518,5.3518,5.3518,5.3518,5.3518,5.3348,5.3044,5.2435,5.2164,5.1826,5.1082,5.0913,5.071,4.9965,4.939,4.9018,4.9018,4.9018,4.9018,4.9018,4.9018,4.9018,4.9018,4.9018,4.8951,4.8748,4.8714,4.8646,4.8477,4.8443,4.8443,4.8443,4.8443,4.8443,4.8443,4.8612,4.8714,4.8714,4.8917,4.9018,4.9018,4.9018,4.9018,4.9018,4.9018,4.9018,3.8751,4.0726,4.247,4.2731,4.2851,4.2581,4.1354,4.0606,3.9565,3.7165,3.5908,3.4921,3.3814,3.4711,3.6061,3.7345,3.8901,4.0374,4.1535,4.1062,4.0708,4.115,4.124,4.167,4.2652,4.3098,4.3538,4.4112,4.4181,4.4258,4.4458,4.4297,4.4334,4.473,4.5555,4.6488,4.7429,4.8254,4.8738,4.8831,4.8831,4.8831,4.8862,4.8355,4.8091,4.8049,4.8615,4.8831,4.8872,4.9479,4.9955,5.0267,5.0267,5.0538,5.0887,5.0506,5.0499,5.0499,5.0151,5.0538,5.1364,5.2092,5.2834,5.3416,5.3109,5.2972,5.2972,5.2972,5.2972,5.3041,5.3382,5.3518,5.3382,5.2942,5.2841,5.2638,5.186,5.1691,5.1454,5.0744,4.9999,4.9492,4.9492,4.9221,4.9018,4.9018,4.9018,4.9018,4.9018,4.9018,4.9018,4.9018,4.9018,4.9018,4.9018,4.9018,4.9018,4.9018,4.9018,4.9018,4.9018,4.9018,4.9018,4.9018,4.9018,4.9018,4.9018,4.9018,4.9018,4.9018,4.9018,4.9018,4.0846,4.2021,4.265,4.309,4.2791,4.1841,3.9649,3.8242,3.6776,3.4532,3.3095,3.2198,3.1989,3.3215,3.4651,3.6031,3.8033,3.9679,4.0427,4.0457,4.0636,4.1294,4.0876,4.131,4.3335,4.2908,4.2926,4.3918,4.3949,4.4026,4.4258,4.4065,4.404,4.4152,4.5273,4.6546,4.7922,4.7922,4.7922,4.7964,4.7964,4.7964,4.7964,4.7964,4.7922,4.7922,4.7922,4.7964,4.7964,4.7964,4.8396,4.9066,4.9066,4.9599,5.0274,4.9567,4.9439,4.955,4.8769,4.9097,5.0065,5.1512,5.252,5.3041,5.2343,5.2164,5.2164,5.2272,5.2307,5.2485,5.328,5.3518,5.3518,5.3518,5.3518,5.3315,5.2604,5.2367,5.2131,5.1488,5.0744,5.0236,5.0236,4.9729,4.9255,4.9154,4.9154,4.912,4.9018,4.9018,4.9018,4.9018,4.9018,4.9018,4.9018,4.9018,4.9018,4.9018,4.9018,4.9018,4.9018,4.9018,4.9018,4.9018,4.9018,4.9018,4.9018,4.9018,4.9018,4.9018,4.9018,4.9018,4.1811,4.2671,4.306,4.2641,4.25,4.1602,3.8452,3.7584,3.6387,3.2766,3.1391,3.0522,2.9475,3.124,3.3275,3.4653,3.7404,3.9828,4.1025,4.0756,4.0636,4.1294,4.1294,4.1602,4.2539,4.295,4.3289,4.3714,4.3557,4.3606,4.4026,4.3871,4.4187,4.5038,4.5308,4.6059,4.7409,4.7439,4.7495,4.7666,4.7666,4.7666,4.7666,4.7666,4.7581,4.7439,4.7581,4.7666,4.7666,4.7922,4.8091,4.8218,4.8218,4.8313,4.848,4.8313,4.8271,4.8343,4.8175,4.8646,4.9399,5.0104,5.0843,5.148,5.1331,5.1294,5.1443,5.2128,5.2307,5.2485,5.328,5.3518,5.3518,5.3518,5.3518,5.345,5.3315,5.2773,5.2266,5.2131,5.1522,5.1014,5.1014,5.0913,5.0608,4.9999,4.9898,4.9695,4.9086,4.9018,4.9018,4.9018,4.9018,4.9018,4.9018,4.9018,4.9018,4.9018,4.9018,4.9018,4.9018,4.9018,4.9018,4.9018,4.9018,4.9018,4.9018,4.9018,4.9018,4.9018,4.9018,4.9018,4.1722,4.2581,4.314,4.256,4.1632,3.9948,3.6626,3.4801,3.2976,3.0073,2.8936,2.8397,2.8128,2.9924,3.1779,3.2796,3.513,3.7554,3.9529,3.926,3.9619,4.1692,4.1632,4.1773,4.2761,4.315,4.3329,4.3478,4.3369,4.3448,4.3832,4.3636,4.4038,4.5244,4.5304,4.5933,4.7309,4.7309,4.7352,4.7409,4.7409,4.7409,4.7409,4.7409,4.7396,4.7309,4.7396,4.7409,4.7482,4.7581,4.7654,4.7654,4.7654,4.7709,4.7794,4.7794,4.788,4.8007,4.8007,4.8229,4.8604,4.8852,4.9797,5.0811,5.039,5.0384,5.0538,5.0951,5.1065,5.1252,5.2059,5.2238,5.2238,5.2238,5.2238,5.2238,5.2238,5.194,5.1676,5.1676,5.1045,5.0514,5.0514,5.0216,4.9989,5.0026,5.0025,5.0056,5.0139,4.9796,4.9424,4.9052,4.9018,4.9018,4.9018,4.9018,4.9018,4.9018,4.9018,4.9018,4.9018,4.9018,4.9018,4.9018,4.9018,4.9018,4.9018,4.9018,4.9018,4.9018,4.9018,4.8798,4.1602,4.2432,4.311,4.2381,4.0876,3.8691,3.507,3.2437,3.0073,2.7854,2.6866,2.6572,2.7255,2.8846,3.0372,3.1152,3.3095,3.5372,3.7823,3.7853,3.8811,4.2021,4.1811,4.1893,4.317,4.329,4.329,4.329,4.329,4.3369,4.3596,4.3409,4.3888,4.5244,4.5304,4.5933,4.7309,4.7309,4.7309,4.7309,4.7309,4.7309,4.7309,4.7309,4.7309,4.7309,4.7309,4.7309,4.7309,4.7309,4.7309,4.7309,4.7309,4.7396,4.7568,4.7568,4.7666,4.7837,4.7837,4.7837,4.7837,4.7837,4.8872,5.0002,4.9367,4.9318,4.951,4.971,4.9749,4.9947,5.0767,5.0957,5.0957,5.0957,5.0957,5.0957,5.0957,5.0957,5.0957,5.0957,5.0435,5.001,5.001,4.9521,4.9321,4.9869,4.9906,5.0152,5.0859,5.0451,4.9942,4.9494,4.9187,4.9018,4.9018,4.9018,4.9018,4.9018,4.9018,4.9018,4.9018,4.9018,4.9018,4.9018,4.9018,4.9018,4.9018,4.9018,4.9018,4.9018,4.9154,4.8811,4.2141,4.2791,4.2991,4.1773,4.0876,3.914,3.4622,3.2467,3.0494,2.732,2.6153,2.5914,2.6596,2.7829,2.9175,3.0402,3.2766,3.5222,3.7225,3.7973,3.932,4.2081,4.1811,4.1893,4.317,4.329,4.329,4.329,4.329,4.329,4.3329,4.329,4.3888,4.5244,4.5304,4.5933,4.7309,4.7309,4.7309,4.7309,4.7309,4.7309,4.7309,4.7309,4.7309,4.7309,4.7309,4.7309,4.7309,4.7309,4.7309,4.7309,4.7309,4.7309,4.7352,4.7352,4.7352,4.7352,4.7352,4.7352,4.7352,4.7352,4.7752,4.8229,4.8175,4.8175,4.8313,4.9066,4.9237,4.9439,5.0274,5.0435,5.0435,5.0435,5.0435,5.0435,5.0435,5.0435,5.0435,5.0435,5.0403,5.0339,5.0339,5.0307,5.0095,4.9678,4.9618,4.9722,5.0085,5.0056,5.0259,5.0918,4.9796,4.9018,4.9018,4.9018,4.9018,4.9018,4.9018,4.9018,4.9018,4.9018,4.9018,4.9018,4.9018,4.9018,4.9018,4.9018,4.9018,4.9018,4.9695,4.955,4.1542,4.1953,4.2043,4.1504,3.9978,3.7704,3.4292,3.1569,2.9146,2.7021,2.5764,2.5322,2.6393,2.7021,2.7829,2.9146,2.9894,3.1329,3.4083,3.4681,3.6118,3.9595,4.0457,4.1294,4.2611,4.312,4.329,4.329,4.329,4.329,4.329,4.329,4.3888,4.5244,4.5304,4.5933,4.7309,4.7309,4.7309,4.7309,4.7309,4.7309,4.7309,4.7309,4.7309,4.7309,4.7309,4.7309,4.7309,4.7309,4.7309,4.7309,4.7309,4.7309,4.7309,4.7309,4.7309,4.7309,4.7309,4.7309,4.7309,4.7309,4.7439,4.7581,4.7709,4.788,4.8049,4.8396,4.848,4.8532,4.8872,4.8953,4.8953,4.8953,4.8953,4.8953,4.8953,4.8953,4.8953,4.8953,4.8953,4.8953,4.8953,4.8953,4.9063,4.934,4.9355,4.9571,5.0159,4.988,4.9697,5.002,5.0226,5.0338,5.0338,5.0338,5.0338,5.0338,5.0338,5.0338,5.0338,5.0338,5.0338,5.0338,4.9854,4.9592,4.9592,4.9126,4.8889,4.8889,4.9185,4.8936,4.0427,4.1085,4.1324,4.1145,3.923,3.6716,3.4083,3.0941,2.8158,2.6602,2.5255,2.4694,2.6063,2.6303,2.6722,0.0,0.0,2.9202,3.2108,3.2856,3.4412,3.7973,3.9409,4.0636,4.1991,4.2821,4.329,4.329,4.329,4.329,4.329,4.329,4.3888,4.5244,4.5304,4.5933,4.7309,4.7309,4.7309,4.7309,4.7309,4.7309,4.7309,4.7309,4.7309,4.7309,4.7309,4.7309,4.7309,4.7309,4.7309,4.7309,4.7309,4.7309,4.7309,4.7309,4.7309,4.7309,4.7309,4.7309,4.7309,4.7309,4.7309,4.7352,4.7482,4.7624,4.7794,4.7794,4.7794,4.7794,4.7794,4.7794,4.7794,4.7794,4.7794,4.7794,4.7794,4.7794,4.7794,4.7794,4.7794,4.7794,4.7794,4.7794,4.8007,4.8615,4.8738,4.9035,4.9923,4.9596,4.9356,4.9623,5.0454,5.0758,5.0325,5.0292,5.0326,5.0393,5.0626,5.0792,5.0825,5.1088,5.1185,5.1185,5.0626,5.0258,4.9986,4.9433,4.9008,4.8788,4.9018,4.8987,3.908,4.0397,4.1235,4.0576,3.8901,3.6716,3.4083,3.0941,2.8038,2.6033,2.4537,2.4029,2.5375,2.5615,2.6063,2.7375,2.8723,0.0,3.2228,3.3634,3.5462,3.8093,3.902,3.9948,4.1265,4.2581,4.329,4.329,4.329,4.329,4.329,4.329,4.3888,4.5244,4.5304,4.5933,4.7309,4.7309,4.7309,4.7309,4.7309,4.7309,4.7309,4.7309,4.7309,4.7309,4.7309,4.7309,4.7309,4.7309,4.7309,4.7309,4.7309,4.7309,4.7309,4.7309,4.7309,4.7309,4.7309,4.7309,4.7309,4.7309,4.7309,4.7309,4.7309,4.7309,4.7309,4.7309,4.7309,4.7309,4.7309,4.7309,4.7309,4.7309,4.7309,4.7309,4.7309,4.7309,4.7309,4.7309,4.7309,4.7309,4.7309,4.7309,4.7396,4.7581,4.7624,4.7976,4.9075,4.9197,4.9487,5.032,5.0397,4.9789,4.827,4.8142,4.8248,4.8501,4.9257,4.9814,4.9986,5.0792,5.1185,5.1185,5.1185,5.0792,4.9986,4.9986,4.9571,4.882,4.9572,5.032,3.6473,3.7045,3.7195,3.6537,3.519,3.3604,3.1839,2.9594,2.7495,2.5914,2.4537,2.3999,2.5345,2.5615,2.6482,2.9146,2.9924,0.0,3.2258,3.4442,3.6148,3.6985,3.9649,4.1773,4.2641,4.305,4.329,4.329,4.329,4.329,4.329,4.329,4.3678,4.4586,4.5065,4.5723,4.6621,4.707,4.7309,4.7309,4.7309,4.7309,4.7309,4.7309,4.7309,4.7309,4.7309,4.7309,4.7309,4.7309,4.7309,4.7309,4.7309,4.7309,4.7309,4.7309,4.7309,4.7309,4.7309,4.7309,4.7309,4.7309,4.7309,4.7309,4.7309,4.7309,4.7309,4.7309,4.7309,4.7309,4.7309,4.7309,4.7309,4.7309,4.7309,4.7309,4.7309,4.7309,4.7309,4.7309,4.7309,4.7309,4.7309,4.7309,4.7309,4.7396,4.7366,4.7495,4.788,4.7892,4.8019,4.824,4.8282,4.8686,4.9604,4.9687,4.9687,4.9795,5.0059,5.0209,5.0283,5.0542,5.0652,5.0652,5.0251,4.9914,4.9681,4.9134,4.8701,4.8453,4.8832,4.9171,3.3871,3.4562,3.4651,3.4234,3.3125,3.178,3.0462,2.8663,2.6836,2.5525,2.4358,2.3939,2.5023,2.5202,2.6063,2.8607,2.9026,2.9834,3.2198,3.4173,3.5998,3.7764,4.0374,4.2252,4.291,4.314,4.329,4.329,4.329,4.329,4.329,4.329,4.3469,4.3888,4.4825,4.5633,4.6279,4.698,4.7309,4.7309,4.7309,4.7309,4.7309,4.7309,4.7309,4.7309,4.7309,4.7309,0.0,4.7309,4.7309,4.7309,4.7309,4.7309,4.7309,4.7309,4.7309,4.7309,4.7309,4.7309,4.7309,4.7309,4.7309,4.7309,4.7309,4.7309,4.7309,4.7309,4.7309,4.7309,4.7309,4.7309,4.7309,4.7309,4.7309,4.7309,4.7309,4.7309,4.7309,4.7309,4.7309,4.7309,4.7309,4.7309,4.7309,4.7309,4.7309,4.7309,4.7309,4.7309,4.7309,4.7309,4.7309,4.7807,4.9125,4.9247,4.9247,4.9327,4.9615,4.9852,4.9962,5.0242,5.0397,5.0397,5.0009,4.9686,4.9367,4.8573,4.8175,4.8175,4.8343,4.8355,0.0,3.2587,3.3125,3.3095,3.2138,3.0823,2.9681,2.7859,0.0,2.4874,2.4066,2.3819,2.4545,2.4664,2.5143,2.6632,2.6961,2.8338,3.2138,3.3395,3.5579,4.0008,4.1115,4.1773,4.241,4.297,4.329,4.329,4.329,4.329,4.329,4.329,4.329,4.329,4.4556,4.5544,4.619,4.689,4.7249,4.7309,4.7309,4.7309,4.7309,4.7309,4.7309,4.7309,4.7309,4.7309,4.7309,4.7309,4.7309,4.7309,4.7309,4.7309,4.7309,4.7309,4.7309,4.7309,4.7309,4.7309,4.7309,4.7309,4.7309,4.7309,4.7309,4.7309,4.7309,4.7309,4.7309,4.7309,4.7309,4.7309,4.7309,4.7309,4.7309,4.7309,4.7309,4.7309,4.7309,4.7309,4.7309,4.7309,4.7309,4.7309,4.7309,4.7309,4.7309,4.7309,4.7309,4.7309,4.7309,4.7309,4.7309,4.7309,4.7309,4.7309,4.7396,4.7581,4.8252,4.88,4.9066,4.9765,5.0165,5.0165,5.0204,4.9844,4.9075,4.8355,4.8007,4.7964,4.8007,4.8007,2.6996,0.0,2.9624,2.9112,2.8338,2.7679,0.0,2.6153,2.4963,2.4664,2.4066,2.3969,2.5143,2.5352,2.6303,2.9116,3.0462,3.1809,3.3754,3.6327,3.899,4.1632,4.2491,4.294,4.309,4.32,4.329,4.329,4.329,4.329,4.329,4.329,4.329,4.329,4.4107,4.4855,4.5544,4.6202,4.68,4.7309,4.7309,4.7309,4.7309,4.7309,4.7309,4.7309,4.7309,4.7309,4.7309,4.7309,4.7309,4.7309,4.7309,4.7309,4.7309,4.7309,4.7309,4.7309,4.7309,4.7309,4.7309,4.7309,4.7309,4.7309,4.7309,4.7309,4.7309,4.7309,4.7309,4.7309,4.7309,4.7309,4.7309,4.7309,4.7309,4.7309,4.7309,4.7309,4.7309,4.7309,4.7309,4.7309,4.7309,4.7309,4.7309,4.7309,4.7309,4.7309,4.7309,4.7309,4.7309,4.7309,4.7309,4.7309,4.7309,4.7309,4.7309,4.7396,4.7538,4.7679,4.7752,4.7934,4.8061,4.8061,4.8157,4.8157,4.7976,4.8007,4.788,4.7709,4.788,4.8007,2.5053,2.6393,2.759,2.7225,2.6866,2.6512,2.6213,2.5322,2.4515,2.4186,2.3849,2.3909,2.4933,2.5143,2.6129,2.9146,3.0253,3.1809,3.4983,3.8242,4.0816,4.2231,4.294,4.329,4.329,4.329,4.329,4.329,4.329,4.329,4.329,4.329,4.329,4.329,4.3648,4.4167,4.4825,4.5843,4.6459,4.686,4.716,4.7309,4.7309,4.7309,4.7309,4.7309,4.7309,4.7309,4.7309,4.7309,4.7309,4.7309,4.7309,4.7309,4.7309,4.7309,4.7309,4.7309,4.7309,4.7309,4.7309,4.7309,4.7309,4.7309,4.7309,4.7309,4.7309,4.7309,4.7309,4.7309,4.7309,4.7309,4.7309,4.7309,4.7309,4.7309,4.7309,4.7309,4.7309,4.7309,4.7309,4.7309,4.7309,4.7309,4.7309,4.7309,4.7309,4.7309,4.7309,4.7309,4.7309,4.7309,4.7309,4.7309,4.7309,4.7309,4.7309,4.7309,4.7309,4.7309,4.7309,4.7309,4.7309,4.7309,4.7439,4.7452,4.7452,4.7581,4.7581,4.7482,4.7581,4.7666,2.4522,2.5734,2.6746,2.6656,2.6602,2.6452,2.5884,2.5232,2.4605,2.4029,2.3909,2.4118,2.4784,2.5083,2.601,2.8487,2.9415,3.142,3.5968,3.9379,4.1632,4.2171,4.288,4.329,4.329,4.329,4.329,4.329,4.329,4.329,4.329,4.329,4.329,4.329,4.329,4.3559,4.4167,4.5394,4.607,4.6279,4.689,4.7219,4.7309,4.7309,4.7309,4.7309,4.7309,4.7309,4.7309,4.7309,4.7309,4.7309,4.7309,4.7309,4.7309,4.7309,4.7309,4.7309,4.7309,4.7309,4.7309,4.7309,4.7309,4.7309,4.7309,4.7309,4.7309,4.7309,4.7309,4.7309,4.7309,4.7309,4.7309,4.7309,4.7309,4.7309,4.7309,4.7309,4.7309,4.7309,4.7309,4.7309,4.7309,4.7309,4.7309,4.7309,4.7309,4.7309,4.7309,4.7309,4.7309,4.7309,4.7309,4.7309,4.7309,4.7309,4.7309,4.7309,4.7309,4.7309,4.7309,4.7309,4.7309,4.7309,4.7309,4.7309,4.7309,4.7309,4.7309,4.7309,4.7309,4.7309,2.5113,2.6422,2.7315,2.6746,2.6602,2.6572,2.6452,2.5944,2.5435,2.5315,2.5285,2.5495,2.6153,2.723,2.8487,2.9983,3.3066,3.5729,3.7075,3.9649,4.1452,4.1542,4.2611,4.329,4.329,4.329,4.329,4.329,4.329,4.329,4.329,4.329,4.329,4.329,4.329,4.3349,4.3439,4.4216,4.5185,4.6279,4.6369,4.677,4.7309,4.7309,4.7309,4.7309,4.7309,4.7309,4.7309,4.7309,4.7309,4.7309,4.7309,4.7309,4.7309,4.7309,4.7309,4.7309,4.7309,4.7309,4.7309,4.7309,4.7309,4.7309,4.7309,4.7309,4.7309,4.7309,4.7309,4.7309,4.7309,4.7309,4.7309,4.7309,4.7309,4.7309,4.7309,4.7309,4.7309,4.7309,4.7309,4.7309,4.7309,4.7309,4.7309,4.7309,4.7309,4.7309,4.7309,4.7309,4.7309,4.7309,4.7309,4.7309,4.7309,4.7309,4.7309,4.7309,4.7309,4.7309,4.7309,4.7309,4.7309,4.7309,4.7309,4.7309,4.7309,4.7309,4.7309,4.7309,4.7309,4.7309,2.4358,2.5495,2.6602,2.7046,2.741,2.75,2.6752,2.6093,2.5704,2.6063,2.6123,2.6452,2.75,2.8757,3.0522,3.3275,3.6178,3.8302,3.8931,4.0397,4.1504,4.1901,4.2761,4.329,4.329,4.329,4.329,4.329,4.329,4.329,4.329,4.329,4.329,4.329,4.329,4.329,4.329,4.3589,4.4436,4.5783,4.6142,4.6681,4.7309,4.7309,4.7309,4.7309,4.7309,4.7309,4.7309,4.7309,4.7309,4.7309,4.7309,4.7309,4.7309,4.7309,4.7309,4.7309,4.7309,4.7309,4.7309,4.7309,4.7309,4.7309,4.7309,4.7309,4.7309,4.7309,4.7309,4.7309,4.7309,4.7309,4.7309,4.7309,4.7309,4.7309,4.7309,4.7309,4.7309,4.7309,4.7309,4.7309,4.7309,4.7309,4.7309,4.7309,4.7309,4.7309,4.7309,4.7309,4.7309,4.7309,4.7309,4.7309,4.7309,4.7309,4.7309,4.7309,4.7309,4.7309,4.7309,4.7309,4.7309,4.7309,4.7309,4.7309,4.7309,4.7309,4.7309,4.7309,4.7309,4.7309,2.4208,2.5166,2.6303,2.7345,2.8004,2.8278,2.8038,2.735,2.6991,2.7799,2.7979,2.8248,2.9116,3.0731,3.2946,3.6178,3.8482,3.9948,4.0157,4.0995,4.1841,4.2351,4.294,4.329,4.329,4.329,4.329,4.329,4.329,4.329,4.329,4.329,4.329,4.329,4.329,4.329,4.329,4.329,4.3888,4.5065,4.5753,4.6441,4.707,4.7249,4.7309,4.7309,4.7309,4.7309,4.7309,4.7309,4.7309,4.7309,4.7309,4.7309,4.7309,4.7309,4.7309,4.7309,4.7309,4.7309,4.7309,4.7309,4.7309,4.7309,4.7309,4.7309,4.7309,4.7309,4.7309,4.7309,4.7309,4.7309,4.7309,4.7309,4.7309,4.7309,4.7309,4.7309,4.7369,4.7489,4.7549,4.7578,4.7728,4.7758,4.7758,4.7758,4.7758,4.7758,4.7758,4.7758,4.7758,4.7758,4.7758,4.7758,4.7758,4.7608,4.7549,4.7549,4.7399,4.7309,4.7309,4.7309,4.7309,4.7309,4.7309,4.7309,4.7309,4.7309,4.7309,4.7309,4.7309,4.7309,2.6033,2.6926,2.7465,2.7585,2.7645,2.8453,3.142,3.1091,3.0522,3.1809,3.2078,3.1899,3.1391,3.3903,3.6327,3.7195,3.9529,4.0816,3.9649,4.1115,4.2351,4.2381,4.294,4.329,4.329,4.329,4.329,4.329,4.329,4.329,4.329,4.329,4.329,4.329,4.329,4.329,4.329,4.329,4.3648,4.4377,4.5065,4.5723,4.6369,4.704,4.7309,4.7309,4.7309,4.7309,4.7309,4.7309,4.7309,4.7309,4.7309,4.7309,4.7309,4.7309,4.7309,4.7309,4.7309,4.7309,4.7309,4.7309,4.7309,4.7309,4.7309,4.7309,4.7309,4.7309,4.7309,4.7309,4.7309,4.7309,4.7309,4.7309,4.7309,4.7309,4.7309,4.7309,4.7489,4.8087,4.8207,4.8416,4.906,4.9179,4.9179,4.9179,4.9179,4.9179,4.9179,4.9179,4.9179,4.9179,4.9179,4.9179,4.9179,4.8566,4.8207,4.8207,4.7638,4.7309,4.7309,4.7309,4.7309,4.7309,4.7309,4.7309,4.7309,4.7309,4.7309,4.7309,4.7309,4.7309,2.5202,2.6153,2.7195,2.8008,2.8543,2.9262,3.0881,3.0881,3.1001,3.2766,3.3125,3.3544,3.4921,3.6207,3.7674,3.9589,4.0367,4.0876,4.1205,4.1572,4.1931,4.2351,4.294,4.329,4.329,4.329,4.329,4.329,4.329,4.329,4.329,4.329,4.329,4.329,4.329,4.329,4.329,4.329,4.3409,4.3678,4.4377,4.5274,4.6279,4.6591,4.692,4.7309,4.7309,4.7309,4.7309,4.7309,4.7309,4.7309,4.7309,4.7309,4.7309,4.7309,4.7309,4.7309,4.7309,4.7309,4.7309,4.7309,4.7309,4.7309,4.7309,4.7309,4.7309,4.7309,4.7608,4.7908,4.7908,4.7908,4.8027,4.8416,4.8506,4.8506,4.8506,4.8506,4.864,4.888,4.894,4.903,4.9269,4.9299,4.9299,4.9299,4.9299,4.9299,4.9299,4.9299,4.9299,4.9299,4.9299,4.9299,4.9299,4.909,4.894,4.894,4.7908,4.7309,4.7309,4.7309,4.7309,4.7309,4.7309,4.7309,4.7309,4.7309,4.7519,4.7908,4.7908,4.8147,2.4963,2.5734,2.6901,2.8278,2.9235,3.0193,3.148,3.1749,3.2437,3.4861,3.504,3.534,3.7345,3.7883,3.8721,4.0726,4.1025,4.1324,4.2261,4.2021,4.1961,4.2581,4.306,4.329,4.329,4.329,4.329,4.329,4.329,4.329,4.329,4.329,4.329,4.329,4.329,4.329,4.329,4.329,4.329,4.329,4.3738,4.4706,4.5992,4.619,4.6681,4.7309,4.7309,4.7309,4.7309,4.7309,4.7309,4.7309,4.7309,4.7309,4.7309,4.7309,4.7309,4.7309,4.7309,4.7309,4.7309,4.7309,4.7309,4.7309,4.7309,4.7309,4.7339,4.7549,4.7938,4.8386,4.8805,4.8745,4.8716,4.9209,4.9299,4.9299,4.9299,4.9299,4.9389,4.9523,4.9583,4.9643,4.9853,4.9883,4.9883,4.9883,4.9883,4.9883,4.9883,4.9883,4.9883,4.9883,4.9883,4.9883,4.9883,4.9703,4.9583,4.9583,4.8536,4.7848,4.7608,4.7608,4.7608,4.7608,4.7608,4.7728,4.7938,4.7938,4.8147,4.864,4.864,4.888,2.5794,2.6093,2.6901,2.8278,2.9594,3.121,3.3934,3.4533,3.5462,3.8751,3.8362,3.7614,3.8302,3.896,3.9649,4.0307,4.1542,4.2381,4.241,4.241,4.265,4.32,4.329,4.329,4.329,4.329,4.329,4.329,4.329,4.329,4.329,4.329,4.329,4.329,4.329,4.329,4.329,4.329,4.329,4.329,4.329,4.4018,4.5304,4.5992,4.6681,4.7309,4.7309,4.7309,4.7309,4.7309,4.7309,4.7309,4.7309,4.7309,4.7309,4.7309,4.7309,4.7309,4.7309,4.7309,4.7309,4.7309,4.7309,4.7309,4.7309,4.7309,4.7429,4.8087,4.8297,4.8596,4.9867,4.9763,4.9329,4.9329,4.9329,4.9329,4.9329,4.9329,4.9464,5.0076,5.0196,5.0405,5.1109,5.1229,5.1229,5.1229,5.1229,5.1229,5.1229,5.1229,5.1229,5.1229,5.1229,5.1229,5.1229,5.0584,5.0196,5.0196,4.9643,4.903,4.8327,4.8297,4.8297,4.8297,4.8297,4.8626,4.9299,4.9299,4.9299,4.9329,4.9329,4.9329,2.5644,2.6093,2.7141,2.9385,3.0941,3.2736,3.5818,3.6207,3.6686,3.9529,3.9409,3.902,3.9679,3.9978,4.0337,4.0995,4.1452,4.1871,4.2321,4.241,4.247,4.2641,4.2641,4.2821,4.326,4.291,4.2851,4.326,4.329,4.329,4.329,4.329,4.329,4.329,4.329,4.329,4.329,4.329,4.329,4.329,4.329,4.3738,4.4616,4.5304,4.5963,4.6651,4.71,4.7309,4.7309,4.7309,4.7309,4.7309,4.7309,4.7309,4.7309,4.7309,4.7309,4.7309,4.7309,4.7309,4.7309,4.7309,4.7309,4.7309,4.7309,4.7309,4.7429,4.8087,4.8626,4.9164,4.9956,5.0451,5.0631,5.0631,5.0631,5.0631,5.0631,5.0631,5.069,5.09,5.0883,5.099,5.1199,5.1229,5.1229,5.1229,5.1229,5.1229,5.1229,5.1229,5.1229,5.1229,5.1229,5.1229,5.1229,5.105,5.0883,5.0883,5.075,5.0152,4.906,4.903,4.903,4.903,4.903,4.912,4.9299,4.9299,4.9494,4.9942,4.9942,5.0212,2.6004,2.6662,2.8008,3.0642,3.1898,3.3455,3.6985,3.8123,3.8871,4.0457,4.0487,4.0307,4.0726,4.0786,4.0995,4.1692,4.1983,4.2312,4.2701,4.2761,4.2761,4.2761,4.2761,4.291,4.326,4.297,4.291,4.326,4.329,4.329,4.329,4.329,4.329,4.329,4.329,4.329,4.329,4.329,4.329,4.329,4.329,4.3499,4.3958,4.4616,4.5274,4.5963,4.6621,4.707,4.7309,4.7309,4.7309,4.7309,4.7309,4.7309,4.7309,4.7309,4.7309,4.7309,4.7309,4.7309,4.7309,4.7309,4.7309,4.7309,4.7309,4.7309,4.7489,4.8416,4.9,4.9464,5.0391,5.0883,5.1229,5.1229,5.1229,5.1229,5.1229,5.1229,5.1229,5.1229,5.1229,5.1229,5.1229,5.1229,5.1229,5.1229,5.1229,5.1229,5.1229,5.1229,5.1229,5.1229,5.1229,5.1229,5.1229,5.1229,5.1229,5.1229,5.1229,5.087,5.0062,4.9793,4.9643,4.9643,4.9643,4.9793,5.0032,5.0032,5.0242,5.0584,5.0584,5.0794,2.6662,2.7649,2.9355,3.2108,3.2946,3.4083,3.7734,3.9978,4.1324,4.1482,4.1504,4.1534,4.1512,4.1534,4.1743,4.2321,4.291,4.329,4.329,4.329,4.329,4.329,4.323,4.323,4.329,4.323,4.323,4.329,4.329,4.329,4.329,4.329,4.329,4.329,4.329,4.329,4.329,4.329,4.329,4.329,4.329,4.329,4.3319,4.3977,4.4706,4.5424,4.6052,4.6681,4.7309,4.7309,4.7309,4.7309,4.7309,4.7309,4.7309,4.7309,4.7309,4.7309,4.7309,4.7309,4.7309,4.7309,4.7309,4.7309,4.7309,4.7309,4.7578,4.894,4.9299,4.9599,5.087,5.1229,5.1229,5.1229,5.1229,5.1229,5.1229,5.1229,5.1229,5.1229,5.1229,5.1229,5.1229,5.1229,5.1229,5.1229,5.1229,5.1229,5.1229,5.1229,5.1229,5.1229,5.1229,5.1229,5.1229,5.1229,5.1229,5.1229,5.1229,5.1229,5.1229,5.0584,5.0285,5.0285,5.0285,5.0584,5.1229,5.1229,5.1229,5.1229,5.1229,5.1229,2.7106,2.8364,3.028,3.3933,3.6417,3.8302,3.9649,4.0307,4.0905,4.1961,4.2551,4.2761,4.2291,4.2581,4.2791,4.247,4.291,4.329,4.329,4.329,4.329,4.329,4.288,4.2761,4.323,4.288,4.2791,4.326,4.329,4.329,4.329,4.329,4.329,4.329,4.329,4.329,4.329,4.329,4.329,4.329,4.329,4.329,4.3319,4.3977,4.4975,4.6112,4.6262,4.6681,4.7309,4.7309,4.7309,4.7309,4.7309,4.7309,4.7309,4.7309,4.7309,4.7309,4.7309,4.7309,4.7309,4.7309,4.7309,4.7309,4.7309,4.7309,4.7578,4.894,4.9299,4.9599,5.087,5.1229,5.1229,5.1229,5.1229,5.1229,5.1229,5.1229,5.1229,5.1229,5.1229,5.1229,5.1229,5.1229,5.1229,5.1229,5.1229,5.1229,5.1229,5.1229,5.1229,5.1229,5.1229,5.1229,5.1229,5.1229,5.1229,5.1229,5.1229,5.1229,5.1229,5.1079,5.0973,5.0973,5.0973,5.1079,5.1229,5.1229,5.1229,5.1229,5.1229,5.1229,2.7619,2.9265,3.139,3.507,3.7704,3.9439,3.9439,3.9948,4.0606,4.1294,4.2192,4.2761,4.247,4.288,4.32,4.288,4.312,4.329,4.329,4.329,4.329,4.329,4.303,4.294,4.326,4.303,4.297,4.326,4.329,4.329,4.329,4.329,4.329,4.329,4.329,4.329,4.329,4.329,4.329,4.329,4.329,4.329,4.329,4.3648,4.4407,4.5364,4.5693,4.6202,4.686,4.7189,4.7309,4.7309,4.7309,4.7309,4.7309,4.7309,4.7309,4.7309,4.7309,4.7309,4.7309,4.7309,4.7309,4.7309,4.7309,4.7519,4.7967,4.903,4.9494,4.9972,5.096,5.1229,5.1229,5.1229,5.1229,5.1229,5.1229,5.1229,5.1229,5.1229,5.1229,5.1229,5.1229,5.1229,5.1229,5.1229,5.1229,5.1229,5.1229,5.1229,5.1229,5.1229,5.1229,5.1229,5.1229,5.1229,5.1229,5.1229,5.1229,5.1229,5.1229,5.1229,5.1229,5.1229,5.1229,5.1229,5.1229,5.1229,5.1229,5.1229,5.1229,5.1229,2.7739,3.0103,3.2766,3.5998,3.8123,3.926,3.8691,3.9439,4.0217,4.0217,4.1265,4.2231,4.2231,4.2731,4.311,4.311,4.323,4.329,4.329,4.329,4.329,4.329,4.329,4.329,4.329,4.329,4.329,4.329,4.329,4.329,4.329,4.329,4.329,4.329,4.329,4.329,4.329,4.329,4.329,4.329,4.329,4.329,4.329,4.329,4.3648,4.4347,4.5005,4.5693,4.6339,4.704,4.7309,4.7309,4.7309,4.7309,4.7309,4.7309,4.7309,4.7309,4.7309,4.7309,4.7309,4.7309,4.7309,4.7309,4.7309,4.7758,4.8416,4.912,4.9733,5.0345,5.105,5.1229,5.1229,5.1229,5.1229,5.1229,5.1229,5.1229,5.1229,5.1229,5.1229,5.1229,5.1229,5.1229,5.1229,5.1229,5.1229,5.1229,5.1229,5.1229,5.1229,5.1229,5.1229,5.1229,5.1229,5.1229,5.1229,5.1229,5.1229,5.1229,5.1229,5.1229,5.1229,5.1229,5.1229,5.1229,5.1229,5.1229,5.1229,5.1229,5.1229,5.1229,2.6482,3.0402,3.4741,3.7464,3.8781,3.9409,3.932,3.9373,3.9523,3.9523,4.0606,4.1504,4.1504,4.2081,4.253,4.253,4.297,4.329,4.329,4.329,4.329,4.329,4.329,4.329,4.329,4.329,4.329,4.329,4.329,4.329,4.329,4.329,4.329,4.329,4.329,4.329,4.329,4.329,4.329,4.329,4.329,4.329,4.329,4.329,4.3648,4.4347,4.5005,4.5693,4.6339,4.704,4.7309,4.7309,4.7309,4.7309,4.7309,4.7309,4.7309,4.7309,4.7309,4.7309,4.7309,4.7309,4.7309,4.7309,4.7309,4.7758,4.8416,4.912,4.9733,5.0345,5.105,5.1229,5.1229,5.1229,5.1229,5.1229,5.1229,5.1229,5.1229,5.1229,5.1229,5.1229,5.1229,5.1229,5.1229,5.1229,5.1229,5.1229,5.1229,5.1229,5.1229,5.1229,5.1229,5.1229,5.1229,5.1229,5.1229,5.1229,5.1229,5.1229,5.1229,5.1229,5.1229,5.1229,5.1229,5.1229,5.1229,5.1229,5.1229,5.1229,5.1229,5.1229,2.8461,3.133,3.4173,3.7554,3.8332,3.8482,3.926,3.9373,3.932,3.8931,3.929,3.9948,4.0696,4.1422,4.1961,4.2351,4.265,4.291,4.323,4.329,4.329,4.329,4.329,4.329,4.329,4.329,4.329,4.329,4.329,4.329,4.329,4.329,4.329,4.329,4.329,4.329,4.329,4.329,4.329,4.329,4.329,4.329,4.329,4.329,4.3439,4.3798,4.4855,4.5454,4.5813,4.689,4.7309,4.7309,4.7309,4.7309,4.7309,4.7309,4.7309,4.7309,4.7309,4.7309,4.7309,4.7309,4.7309,4.7369,4.7758,4.8327,4.8985,4.9613,5.0272,5.0794,5.1139,5.1229,5.1229,5.1229,5.1229,5.1229,5.1229,5.1229,5.1229,5.1229,5.1229,5.1229,5.1229,5.1229,5.1229,5.1229,5.1229,5.1229,5.1229,5.1229,5.1229,5.1229,5.1229,5.1229,5.1229,5.1229,5.1229,5.1229,5.1229,5.1229,5.1229,5.1229,5.1229,5.1229,5.1229,5.1229,5.1229,5.1229,5.1229,5.1229,5.1229,5.1229,2.9179,3.0853,3.2437,3.6207,3.7165,3.7524,3.8841,3.929,3.926,3.8751,3.8661,3.8901,3.9738,4.0277,4.0846,4.1542,4.1931,4.2381,4.3,4.32,4.329,4.329,4.329,4.329,4.329,4.329,4.329,4.329,4.329,4.329,4.329,4.329,4.329,4.329,4.329,4.329,4.329,4.329,4.329,4.329,4.329,4.329,4.329,4.329,4.329,4.3349,4.4736,4.5304,4.5394,4.6741,4.7309,4.7309,4.7309,4.7309,4.7309,4.7309,4.7309,4.7309,4.7309,4.7309,4.7309,4.7309,4.7309,4.7429,4.8087,4.879,4.9449,5.0016,5.0674,5.1229,5.1229,5.1229,5.1229,5.1229,5.1229,5.1229,5.1229,5.1229,5.1229,5.1229,5.1229,5.1229,5.1229,5.1229,5.1229,5.1229,5.1229,5.1229,5.1229,5.1229,5.1229,5.1229,5.1229,5.1229,5.1229,5.1229,5.1229,5.1229,5.1229,5.1229,5.1229,5.1229,5.1229,5.1229,5.1229,5.1229,5.1229,5.1229,5.1229,5.1229,5.1229,5.1229,2.6273,2.7799,2.9594,3.2916,3.516,3.6866,3.8153,3.896,3.9373,3.9379,3.9379,3.92,3.8601,3.8512,3.8781,3.9469,4.0606,4.1692,4.2351,4.294,4.329,4.329,4.329,4.329,4.329,4.329,4.329,4.329,4.329,4.329,4.329,4.329,4.329,4.329,4.329,4.329,4.329,4.329,4.329,4.329,4.329,4.329,4.329,4.329,4.329,4.3349,4.4736,4.5304,4.5394,4.6741,4.7309,4.7309,4.7309,4.7309,4.7309,4.7309,4.7309,4.7309,4.7309,4.7309,4.7309,4.7309,4.7309,4.7429,4.8087,4.879,4.9449,5.0016,5.0674,5.1229,5.1229,5.1229,5.1229,5.1229,5.1229,5.1229,5.1229,5.1229,5.1229,5.1229,5.1229,5.1229,5.1229,5.1229,5.1229,5.1229,5.1229,5.1229,5.1229,5.1229,5.1229,5.1229,5.1229,5.1229,5.1229,5.1229,5.1229,5.1229,5.1229,5.1229,5.1229,5.1229,5.1229,5.1229,5.1229,5.1229,5.1229,5.1229,5.1229,5.1229,5.1229,5.1229,2.6153,2.726,2.8637,3.1509,3.3724,3.5582,3.6866,3.8332,3.929,3.8841,3.8751,3.8542,3.7883,3.8093,3.8482,3.8721,3.9529,4.0487,4.1602,4.2282,4.288,4.323,4.329,4.329,4.329,4.329,4.329,4.329,4.329,4.329,4.329,4.329,4.329,4.329,4.329,4.329,4.329,4.329,4.329,4.329,4.329,4.329,4.329,4.329,4.329,4.3349,4.4736,4.5304,4.5394,4.6741,4.7309,4.7309,4.7309,4.7309,4.7309,4.7309,4.7309,4.7309,4.7309,4.7309,4.7309,4.7309,4.7309,4.7519,4.8596,4.912,4.9539,5.0571,5.0973,5.1229,5.1229,5.1229,5.1229,5.1229,5.1229,5.1229,5.1229,5.1229,5.1229,5.1229,5.1229,5.1229,5.1229,5.1229,5.1229,5.1229,5.1588,5.1858,5.1858,5.2217,5.2486,5.2486,5.2486,5.2486,5.2486,5.2486,5.2486,5.2486,5.2486,5.2486,5.2486,5.2486,5.2486,5.2486,5.2067,5.1648,5.1229,5.1229,5.1229,5.1229,5.1229,5.1229,2.5106,2.6087,2.759,3.0434,3.2018,3.3575,3.6178,3.7644,3.8422,3.8392,3.8571,3.8542,3.7853,3.8093,3.8332,3.8093,3.8841,3.9798,4.0905,4.1841,4.265,4.323,4.329,4.329,4.329,4.329,4.329,4.329,4.329,4.329,4.329,4.329,4.329,4.329,4.329,4.329,4.329,4.329,4.329,4.329,4.329,4.329,4.329,4.329,4.329,4.3349,4.4496,4.5095,4.5394,4.6741,4.7309,4.7309,4.7309,4.7309,4.7309,4.7309,4.7309,4.7309,4.7309,4.7309,4.7309,4.7309,4.7459,4.7848,4.897,4.9404,4.9823,5.09,5.1229,5.1229,5.1229,5.1229,5.1229,5.1229,5.1379,5.1558,5.1558,5.1558,5.1558,5.1558,5.1738,5.1887,5.1887,5.1887,5.1887,5.1887,5.2247,5.2546,5.2546,5.2905,5.3174,5.3174,5.3174,5.3174,5.3174,5.3174,5.3174,5.3174,5.3174,5.3174,5.3174,5.3174,5.3174,5.3174,5.2755,5.2217,5.1558,5.1319,5.1229,5.1229,5.1229,5.1349,0.0,0.0,0.0,2.9535,2.9953,3.0881,3.5998,3.6746,3.6716,3.8063,3.8841,3.911,3.8542,3.8422,3.8212,3.7554,3.8542,3.9619,4.0277,4.1542,4.259,4.32,4.326,4.326,4.329,4.329,4.329,4.329,4.329,4.329,4.329,4.329,4.329,4.329,4.329,4.329,4.329,4.329,4.329,4.329,4.329,4.329,4.329,4.329,4.329,4.3319,4.4047,4.4706,4.5394,4.6741,4.7279,4.7309,4.7309,4.7309,4.7309,4.7309,4.7309,4.7309,4.7309,4.7309,4.7309,4.7339,4.7758,4.8416,4.9149,4.9733,5.0315,5.0973,5.1229,5.1229,5.1229,5.1229,5.1259,5.1259,5.1738,5.2217,5.2217,5.2247,5.2247,5.2247,5.2725,5.3174,5.3174,5.3174,5.3174,5.3174,5.3204,5.3204,5.3204,5.3234,5.3234,5.3234,5.3234,5.3234,5.3234,5.3234,5.3234,5.3234,5.3234,5.3234,5.3234,5.3234,5.3234,5.3234,5.3204,5.2905,5.2247,5.1588,5.1259,5.1259,5.1259,5.1618,2.34,0.0,0.0,0.0,0.0,0.0,0.0,3.2347,3.3694,3.6447,3.6776,3.7105,3.8811,3.914,3.8901,3.8212,3.8422,3.8901,3.9589,4.0397,4.1354,4.2491,4.2641,4.2821,4.326,4.329,4.329,4.329,4.329,4.329,4.329,4.329,4.329,4.329,4.329,4.329,4.329,4.329,4.329,4.329,4.329,4.329,4.329,4.329,4.329,4.3349,4.4526,4.5125,4.5364,4.6232,4.686,4.7309,4.7309,4.7309,4.7309,4.7309,4.7309,4.7309,4.7309,4.7309,4.7369,4.7848,4.8147,4.8506,4.9643,5.0046,5.0315,5.0973,5.1229,5.1229,5.1229,5.1558,5.1917,5.1917,5.2426,5.2905,5.2905,5.3294,5.3503,5.2995,5.3054,5.3174,5.3174,5.3174,5.3174,5.3174,5.3593,5.3922,5.3922,5.4341,5.464,5.464,5.464,5.464,5.464,5.464,5.464,5.464,5.464,5.464,5.464,5.464,5.464,5.464,5.4162,5.3832,5.3653,5.2486,5.1917,5.1947,5.2426,5.2725,2.3759,2.4777,0.0,0.0,0.0,0.0,3.0283,3.0971,3.2019,0.0,3.5759,3.6148,3.8212,3.8571,3.8542,3.8422,3.8631,3.896,3.9379,3.9978,4.0786,4.1871,4.2231,4.256,4.288,4.314,4.329,4.329,4.329,4.329,4.329,4.329,4.317,4.294,4.291,4.2791,4.2521,4.2791,4.291,4.294,4.317,4.329,4.329,4.329,4.329,4.3349,4.4436,4.5035,4.5334,4.6022,4.6711,4.7309,4.7309,4.7309,4.7309,4.7309,4.7309,4.7309,4.7309,4.7309,4.7429,4.8087,4.8476,4.8895,4.9867,5.0375,5.0674,5.1109,5.1229,5.1289,5.1558,5.1917,5.2276,5.2546,5.3114,5.3623,5.3623,5.4132,5.4431,5.3743,5.3832,5.4012,5.4012,5.4012,5.4012,5.4012,5.4371,5.461,5.461,5.497,5.5179,5.5179,5.5179,5.5179,5.5179,5.5179,5.5179,5.5179,5.5179,5.5179,5.5179,5.5179,5.5179,5.5179,5.482,5.4491,5.4221,5.3114,5.2606,5.2606,5.2995,5.3324,2.4238,2.5285,0.0,2.8098,2.7081,0.0,3.0851,3.0881,3.0971,0.0,3.4891,3.537,3.6716,3.7165,3.7434,3.7793,3.8661,3.932,3.9373,3.9918,4.0546,4.1205,4.1841,4.2201,4.2291,4.2851,4.32,4.32,4.326,4.329,4.329,4.329,4.306,4.253,4.244,4.2111,4.1542,4.2111,4.241,4.241,4.303,4.329,4.329,4.329,4.329,4.3319,4.4107,4.4766,4.5364,4.6112,4.677,4.7309,4.7309,4.7309,4.7309,4.7309,4.7309,4.7309,4.7309,4.7369,4.7519,4.8177,4.8835,4.9494,5.0152,5.0704,5.1229,5.1229,5.1229,5.1379,5.2037,5.2247,5.2486,5.3144,5.3832,5.4311,5.4311,5.479,5.5029,5.4431,5.479,5.5179,5.5179,5.5179,5.5179,5.5179,5.5179,5.5179,5.5179,5.5179,5.5179,5.5179,5.5179,5.5179,5.5179,5.5179,5.5179,5.5179,5.5179,5.5179,5.5179,5.5179,5.5179,5.5179,5.5179,5.491,5.4311,5.3623,5.3294,5.3294,5.3384,5.3743,2.5944,2.6716,2.7345,2.7076,2.7106,0.0,2.6991,2.7171,2.8008,0.0,3.112,3.2048,3.3933,3.5579,3.6178,3.4681,3.6776,3.8781,3.9313,3.9493,3.9858,4.0516,4.0696,4.0995,4.1542,4.2201,4.259,4.259,4.303,4.329,4.329,4.329,4.323,4.315,4.2641,4.2351,4.2201,4.2321,4.241,4.241,4.303,4.329,4.329,4.329,4.329,4.3349,4.4586,4.5185,4.5394,4.6621,4.7189,4.7309,4.7309,4.7309,4.7309,4.7309,4.7309,4.7309,4.7309,4.7638,4.8207,4.891,4.9523,5.0136,5.084,5.1109,5.1229,5.1229,5.1229,5.1379,5.2037,5.2606,5.3144,5.3832,5.4521,5.4999,5.4999,5.5089,5.5149,5.5029,5.5089,5.5179,5.5179,5.5179,5.5179,5.5179,5.5179,5.5179,5.5179,5.5179,5.5179,5.5179,5.5179,5.5179,5.5179,5.5179,5.5179,5.5179,5.5179,5.5179,5.5179,5.5179,5.5179,5.5179,5.5179,5.5119,5.4999,5.4341,5.4012,5.4012,5.4551,5.488,2.7106,2.7585,2.8034,2.7679,0.0,0.0,0.0,2.7081,2.7675,2.9624,2.9774,3.0163,3.2138,3.3066,3.3604,3.3933,3.5938,3.7674,3.8332,3.899,3.9493,3.9858,4.0217,4.0516,4.0846,4.1542,4.2051,4.2381,4.2671,4.3,4.326,4.329,4.314,4.2851,4.2222,4.1752,4.1422,4.1752,4.1901,4.1931,4.2851,4.329,4.329,4.329,4.329,4.3349,4.4736,4.5304,4.5394,4.6741,4.7309,4.7309,4.7309,4.7309,4.7309,4.7309,4.7309,4.7309,4.7309,4.7728,4.8386,4.909,4.9703,5.0315,5.102,5.1229,5.1229,5.1229,5.1229,5.1439,5.2426,5.2935,5.3443,5.4461,5.494,5.5179,5.5179,5.5179,5.5179,5.5179,5.5179,5.5179,5.5179,5.5179,5.5179,5.5179,5.5179,5.5179,5.5179,5.5179,5.5179,5.5179,5.5179,5.5179,5.5179,5.5179,5.5179,5.5179,5.5179,5.5179,5.5179,5.5179,5.5179,5.5179,5.5179,5.5179,5.5179,5.485,5.47,5.47,5.5029,5.5179,2.8364,2.8843,2.9415,2.8906,0.0,2.8483,0.0,0.0,0.0,0.0,0.0,0.0,0.0,0.0,0.0,3.2886,0.0,0.0,0.0,3.7554,0.0,3.899,3.9738,4.0157,4.0038,4.0367,4.1093,4.2141,4.1961,4.2192,4.309,4.323,4.309,4.262,4.1841,4.1115,4.0606,4.1115,4.1422,4.1422,4.2701,4.329,4.329,4.329,4.329,4.3349,4.4736,4.5304,4.5394,4.6741,4.7309,4.7309,4.7309,4.7309,4.7309,4.7309,4.7309,4.7309,4.7459,4.7938,4.8566,4.9224,4.9883,5.0465,5.105,5.1229,5.1229,5.1229,5.1319,5.1678,5.2875,5.3294,5.3683,5.491,5.5179,5.5179,5.5179,5.5179,5.5179,5.5179,5.5179,5.5179,5.5179,5.5179,5.5179,5.5179,5.5179,5.5179,5.5179,5.5179,5.5179,5.5179,5.5179,5.5179,5.5179,5.5179,5.5179,5.5179,5.5179,5.5179,5.5179,5.5179,5.5179,5.5179,5.5179,5.5179,5.5179,5.5179,5.5179,5.5179,5.5179,5.5179,0.0,0.0,0.0,0.0,3.0702,3.1061,0.0,0.0,2.8218,2.723,0.0,0.0,0.0,0.0,0.0,0.0,0.0,0.0,3.2228,3.3844,3.5699,3.7434,3.8751,3.929,3.8691,3.8153,3.8871,4.1362,4.0397,4.0546,4.241,4.303,4.326,4.32,4.2013,4.1354,4.1265,4.1354,4.1422,4.1422,4.2701,4.329,4.329,4.329,4.329,4.3349,4.4736,4.5304,4.5394,4.6741,4.7309,4.7309,4.7309,4.7309,4.7309,4.7309,4.7309,4.7399,4.7967,4.864,4.9299,4.9912,5.0524,5.1109,5.1199,5.1229,5.1229,5.1229,5.1648,5.2247,5.2995,5.3623,5.4281,5.5029,5.5179,5.5179,5.5179,5.5179,5.5179,5.5179,5.5179,5.5179,5.5179,5.5179,5.5179,5.5179,5.5179,5.5179,5.5179,5.5179,5.5179,5.5179,5.5179,5.5179,5.5179,5.5179,5.5179,5.5179,5.5179,5.5179,5.5179,5.5179,5.5179,5.5179,5.5179,5.5179,5.5179,5.5179,5.5179,5.5179,5.5179,5.5179,0.0,0.0,0.0,0.0,0.0,0.0,2.8397,0.0,2.7854,0.0,0.0,0.0,0.0,0.0,0.0,0.0,3.0193,0.0,0.0,0.0,3.3933,3.5519,0.0,3.7148,3.7655,3.7088,3.7839,4.0606,3.9158,3.9361,4.2261,4.2611,4.294,4.329,4.2073,4.1422,4.1422,4.1422,4.1422,4.1422,4.2701,4.329,4.329,4.329,4.3499,4.3917,4.4885,4.5514,4.5963,4.692,4.7309,4.7309,4.7309,4.7309,4.7309,4.7309,4.7309,4.7399,4.8057,4.876,4.9479,5.0481,5.0943,5.1229,5.1229,5.1229,5.1229,5.1229,5.1678,5.2336,5.3025,5.3683,5.4371,5.5029,5.5179,5.5179,5.5179,5.5179,5.5179,5.5179,5.5179,5.5179,5.5179,5.5179,5.5179,5.5179,5.5179,5.5179,5.5179,5.5179,5.5179,5.5179,5.5179,5.5179,5.5179,5.5179,5.5179,5.5179,5.5179,5.5179,5.5179,5.5179,5.5179,5.5179,5.5179,5.5179,5.5179,5.5179,5.5179,5.5179,5.5179,5.5179,3.121,0.0,0.0,0.0,0.0,0.0,0.0,0.0,0.0,0.0,0.0,0.0,0.0,0.0,0.0,0.0,0.0,3.0345,0.0,3.0914,0.0,0.0,0.0,0.0,3.7005,3.5848,3.6395,3.9546,3.7679,3.8012,4.1654,4.2201,4.262,4.306,4.1983,4.1422,4.1422,4.1422,4.1422,4.1422,4.2701,4.329,4.329,4.329,4.3648,4.4347,4.5005,4.5693,4.6339,4.704,4.7309,4.7309,4.7309,4.7309,4.7309,4.7309,4.7429,4.7668,4.8327,4.9105,4.9942,5.09,5.1229,5.1229,5.1229,5.1229,5.1259,5.1439,5.1977,5.2636,5.3294,5.3952,5.461,5.5089,5.5179,5.5179,5.5179,5.5179,5.5179,5.5179,5.5179,5.5179,5.5179,5.5179,5.5179,5.5179,5.5179,5.5179,5.5179,5.5179,5.5179,5.5179,5.5179,5.5179,5.5179,5.5179,5.5179,5.5179,5.5179,5.5179,5.5179,5.5179,5.5179,5.5179,5.5179,5.5179,5.5179,5.5179,5.5179,5.5179,5.5179,5.5179,3.2946,3.4352,3.528,3.076,3.1061,3.1629,0.0,0.0,3.0073,0.0,0.0,0.0,0.0,0.0,0.0,0.0,0.0,0.0,0.0,0.0,0.0,0.0,0.0,0.0,3.6803,3.4024,3.3854,3.7972,3.5859,3.6194,4.0247,4.1722,4.241,4.244,4.1782,4.1422,4.1422,4.1422,4.1422,4.1422,4.2701,4.329,4.329,4.329,4.3648,4.4347,4.5005,4.5693,4.6339,4.704,4.7309,4.7309,4.7309,4.7309,4.7309,4.7309,4.7698,4.8356,4.906,5.0092,5.1169,5.1199,5.1229,5.1229,5.1229,5.1229,5.1349,5.2007,5.2636,5.3294,5.4012,5.467,5.5149,5.5179,5.5179,5.5179,5.5179,5.5179,5.5179,5.5179,5.5179,5.5179,5.5179,5.5179,5.5179,5.5179,5.5179,5.5179,5.5179,5.5179,5.5179,5.5179,5.5179,5.5179,5.5179,5.5179,5.5179,5.5179,5.5179,5.5179,5.5179,5.5179,5.5179,5.5179,5.5179,5.5179,5.5179,5.5179,5.5179,5.5179,5.5179,5.5179,3.4562,3.5459,3.5789,3.2886,3.2677,3.2407,2.9592,0.0,0.0,0.0,0.0,0.0,0.0,0.0,0.0,0.0,0.0,0.0,0.0,0.0,0.0,0.0,0.0,0.0,0.0,3.2693,3.3747,3.6654,3.5681,3.6552,4.0217,4.1235,4.1961,4.2381,4.1752,4.1632,4.2081,4.1632,4.1632,4.2081,4.291,4.329,4.3319,4.3738,4.4347,4.5005,4.5693,4.6352,4.698,4.7219,4.7309,4.7309,4.7309,4.7309,4.7309,4.7309,4.7728,4.8446,4.9523,5.0481,5.1229,5.1229,5.1229,5.1229,5.1229,5.1229,5.1349,5.2007,5.2665,5.3324,5.4042,5.47,5.5179,5.5179,5.5179,5.5179,5.5179,5.5179,5.5179,5.5179,5.5179,5.5179,5.5179,5.5179,5.5179,5.5179,5.5179,5.5179,5.5179,5.5179,5.5179,5.5179,5.5179,5.5179,5.5179,5.5179,5.5179,5.5179,5.5179,5.5179,5.5179,5.5179,5.5179,5.5179,5.5179,5.5179,5.5179,5.5179,5.5179,5.5179,5.5179,5.5179,3.5519,3.6507,3.6985,3.4771,3.4562,3.4143,3.127,3.136,3.1659,0.0,0.0,0.0,0.0,0.0,0.0,0.0,0.0,0.0,0.0,2.6499,0.0,0.0,0.0,0.0,0.0,3.1161,3.232,3.6234,3.4919,3.5603,3.9499,4.0756,4.1602,4.2021,4.1632,4.1722,4.2381,4.1752,4.1752,4.241,4.303,4.329,4.3319,4.3977,4.4676,4.5334,4.6022,4.6681,4.7309,4.7309,4.7309,4.7309,4.7309,4.7309,4.7339,4.7578,4.8207,4.9134,5.0212,5.0823,5.1229,5.1229,5.1229,5.1229,5.1229,5.1379,5.1708,5.2366,5.3025,5.3713,5.4371,5.488,5.5179,5.5179,5.5179,5.5179,5.5179,5.5179,5.5179,5.5179,5.5179,5.5179,5.5179,5.5179,5.5179,5.5179,5.5179,5.5179,5.5179,5.5179,5.5179,5.5179,5.5179,5.5179,5.5179,5.5179,5.5179,5.5179,5.5179,5.5179,5.5179,5.5179,5.5179,5.5179,5.5179,5.5179,5.5179,5.5179,5.5179,5.5179,5.5179,5.5179]}]]